[[{"header":{"parameterUnit":"m.s-1","parameterCategory":1,"la1":30.6,"la2":28.766,"lo1":-90.7593,"lo2":-88.6598,"dy":0.0162,"dx":0.0183,"nx":116,"ny":114,"refTime":"2023-06-05T18:00:00:Z","depth":0,"parameterNumber":2,"parameterNumberName":"U-component_of_WINDS"},"data":[0.0,0.0,0.0,0.0,0.0,0.0,0.0,0.0,0.0,0.0,0.0,0.0,0.0,0.0,0.0,0.0,0.0,0.0,0.0,0.0,0.0,0.0,0.0,0.0,0.0,0.0,0.0,0.0,0.0,0.0,0.0,0.0,0.0,0.0,0.0,0.0,0.0,0.0,0.0,0.0,0.0,0.0,0.0,0.0,0.0,0.0,0.0,0.0,0.0,0.0,0.0,0.0,0.0,0.0,0.0,0.0,0.0,0.0,0.0,0.0,0.0,0.0,0.0,0.0,0.0,0.0,0.0,0.0,0.0,0.0,0.0,0.0,0.0,0.0,0.0,0.0,0.0,0.0,0.0,0.0,0.0,0.0,0.0,0.0,0.0,0.0,0.0,0.0,0.0,0.0,0.0,0.0,0.0,0.0,0.0,0.0,0.0,0.0,0.0,0.0,0.0,0.0,0.0,0.0,0.0,0.0,0.0,0.0,0.0,0.0,0.0,0.0,0.0,0.0,0.0,0.0,0.0,0.0,0.0,0.0,0.0,0.0,0.0,0.0,0.0,0.0,0.0,0.0,0.0,0.0,0.0,0.0,0.0,0.0,0.0,0.0,0.0,0.0,0.0,0.0,0.0,0.0,0.0,0.0,0.0,0.0,0.0,0.0,0.0,0.0,0.0,0.0,0.0,0.0,0.0,0.0,0.0,0.0,0.0,0.0,0.0,0.0,0.0,0.0,0.0,0.0,0.0,0.0,0.0,0.0,0.0,0.0,0.0,0.0,0.0,0.0,0.0,0.0,0.0,0.0,0.0,0.0,0.0,0.0,0.0,0.0,0.0,0.0,0.0,0.0,0.0,0.0,0.0,0.0,0.0,0.0,0.0,0.0,0.0,0.0,0.0,0.0,0.0,0.0,0.0,0.0,0.0,0.0,0.0,0.0,0.0,0.0,0.0,0.0,0.0,0.0,0.0,0.0,0.0,0.0,0.0,0.0,0.0,0.0,0.0,0.0,0.0,0.0,0.0,0.0,0.0,0.0,0.0,0.0,0.0,0.0,0.0,0.0,0.0,0.0,0.0,0.0,0.0,0.0,0.0,0.0,0.0,0.0,0.0,0.0,0.0,0.0,0.0,0.0,0.0,0.0,0.0,0.0,0.0,0.0,0.0,0.0,0.0,0.0,0.0,0.0,0.0,0.0,0.0,0.0,0.0,0.0,0.0,0.0,0.0,0.0,0.0,0.0,0.0,0.0,0.0,0.0,0.0,0.0,0.0,0.0,0.0,0.0,0.0,0.0,0.0,0.0,0.0,0.0,0.0,0.0,0.0,0.0,0.0,0.0,0.0,0.0,0.0,0.0,0.0,0.0,0.0,0.0,0.0,0.0,0.0,0.0,0.0,0.0,0.0,0.0,0.0,0.0,0.0,0.0,0.0,0.0,0.0,0.0,0.0,0.0,0.0,0.0,0.0,0.0,0.0,0.0,0.0,0.0,0.0,0.0,0.0,0.0,0.0,0.0,0.0,0.0,0.0,0.0,0.0,0.0,0.0,0.0,0.0,0.0,0.0,0.0,0.0,0.0,0.0,0.0,0.0,0.0,0.0,0.0,0.0,0.0,0.0,0.0,0.0,0.0,0.0,0.0,0.0,0.0,0.0,0.0,0.0,0.0,0.0,0.0,0.0,0.0,0.0,0.0,0.0,0.0,0.0,0.0,0.0,0.0,0.0,0.0,0.0,0.0,0.0,0.0,0.0,0.0,0.0,0.0,0.0,0.0,0.0,0.0,0.0,0.0,0.0,0.0,0.0,0.0,0.0,0.0,0.0,0.0,0.0,0.0,0.0,0.0,0.0,0.0,0.0,0.0,0.0,0.0,0.0,0.0,0.0,0.0,0.0,0.0,0.0,0.0,0.0,0.0,0.0,0.0,0.0,0.0,0.0,0.0,0.0,0.0,0.0,0.0,0.0,0.0,0.0,0.0,0.0,0.0,0.0,0.0,0.0,0.0,0.0,0.0,0.0,0.0,0.0,0.0,0.0,0.0,0.0,0.0,0.0,0.0,0.0,0.0,0.0,0.0,0.0,0.0,0.0,0.0,0.0,0.0,0.0,0.0,0.0,0.0,0.0,0.0,0.0,0.0,0.0,0.0,0.0,0.0,0.0,0.0,0.0,0.0,0.0,0.0,0.0,0.0,0.0,0.0,0.0,0.0,0.0,0.0,0.0,0.0,0.0,0.0,0.0,0.0,0.0,0.0,0.0,0.0,0.0,0.0,0.0,0.0,0.0,0.0,0.0,0.0,0.0,0.0,0.0,0.0,0.0,0.0,0.0,0.0,0.0,0.0,0.0,0.0,0.0,0.0,0.0,0.0,0.0,0.0,0.0,0.0,0.0,0.0,0.0,0.0,0.0,0.0,0.0,0.0,0.0,0.0,0.0,0.0,0.0,0.0,0.0,0.0,0.0,0.0,0.0,0.0,0.0,0.0,0.0,0.0,0.0,0.0,0.0,0.0,0.0,0.0,0.0,0.0,0.0,0.0,0.0,0.0,0.0,0.0,0.0,0.0,0.0,0.0,0.0,0.0,0.0,0.0,0.0,0.0,0.0,0.0,0.0,0.0,0.0,0.0,0.0,0.0,0.0,0.0,0.0,0.0,0.0,0.0,0.0,0.0,0.0,0.0,0.0,0.0,0.0,0.0,0.0,0.0,0.0,0.0,0.0,0.0,0.0,0.0,0.0,0.0,0.0,0.0,0.0,0.0,0.0,0.0,0.0,0.0,0.0,0.0,0.0,0.0,0.0,0.0,0.0,0.0,0.0,0.0,0.0,0.0,0.0,0.0,0.0,0.0,0.0,0.0,0.0,0.0,0.0,0.0,0.0,0.0,0.0,0.0,0.0,0.0,0.0,0.0,0.0,0.0,0.0,0.0,0.0,0.0,0.0,0.0,0.0,0.0,0.0,0.0,0.0,0.0,0.0,0.0,0.0,0.0,0.0,0.0,0.0,0.0,0.0,0.0,0.0,0.0,0.0,0.0,0.0,0.0,0.0,0.0,0.0,0.0,0.0,0.0,0.0,0.0,0.0,0.0,0.0,0.0,0.0,0.0,0.0,0.0,0.0,0.0,0.0,0.0,0.0,0.0,0.0,0.0,0.0,0.0,0.0,0.0,0.0,0.0,0.0,0.0,0.0,0.0,0.0,0.0,0.0,0.0,0.0,0.0,0.0,0.0,0.0,0.0,0.0,0.0,0.0,0.0,0.0,0.0,0.0,0.0,0.0,0.0,0.0,0.0,0.0,0.0,0.0,0.0,0.0,0.0,0.0,0.0,0.0,0.0,0.0,0.0,0.0,0.0,0.0,0.0,0.0,0.0,0.0,0.0,0.0,0.0,0.0,0.0,0.0,0.0,0.0,0.0,0.0,0.0,0.0,0.0,0.0,0.0,0.0,0.0,0.0,0.0,0.0,0.0,0.0,0.0,0.0,0.0,0.0,0.0,0.0,0.0,0.0,0.0,0.0,0.0,0.0,0.0,0.0,0.0,0.0,0.0,0.0,0.0,0.0,0.0,0.0,0.0,0.0,0.0,0.0,0.0,0.0,0.0,0.0,0.0,0.0,0.0,0.0,0.0,0.0,0.0,0.0,0.0,0.0,0.0,0.0,0.0,0.0,0.0,0.0,0.0,0.0,0.0,0.0,0.0,0.0,0.0,0.0,0.0,0.0,0.0,0.0,0.0,0.0,0.0,0.0,0.0,0.0,0.0,0.0,0.0,0.0,0.0,0.0,0.0,0.0,0.0,0.0,0.0,0.0,0.0,0.0,0.0,0.0,0.0,0.0,0.0,0.0,0.0,0.0,0.0,0.0,0.0,0.0,0.0,0.0,0.0,0.0,0.0,0.0,0.0,0.0,0.0,0.0,0.0,0.0,0.0,0.0,0.0,0.0,0.0,0.0,0.0,0.0,0.0,0.0,0.0,0.0,0.0,0.0,0.0,0.0,0.0,0.0,0.0,0.0,0.0,0.0,0.0,0.0,0.0,0.0,0.0,0.0,0.0,0.0,0.0,0.0,0.0,0.0,0.0,0.0,0.0,0.0,0.0,0.0,0.0,0.0,0.0,0.0,0.0,0.0,0.0,0.0,0.0,0.0,0.0,0.0,0.0,0.0,0.0,0.0,0.0,0.0,0.0,0.0,0.0,0.0,0.0,0.0,0.0,0.0,0.0,0.0,0.0,0.0,0.0,0.0,0.0,0.0,0.0,0.0,0.0,0.0,0.0,0.0,0.0,0.0,0.0,0.0,0.0,0.0,0.0,0.0,0.0,0.0,0.0,0.0,0.0,0.0,0.0,0.0,0.0,0.0,0.0,0.0,0.0,0.0,0.0,0.0,0.0,0.0,0.0,0.0,0.0,0.0,0.0,0.0,0.0,0.0,0.0,0.0,0.0,0.0,0.0,0.0,0.0,0.0,0.0,0.0,0.0,0.0,0.0,0.0,0.0,0.0,0.0,0.0,0.0,0.0,0.0,0.0,0.0,0.0,0.0,0.0,0.0,0.0,0.0,0.0,0.0,0.0,0.0,0.0,0.0,0.0,0.0,0.0,0.0,0.0,0.0,0.0,0.0,0.0,0.0,0.0,0.0,0.0,0.0,0.0,0.0,0.0,0.0,0.0,0.0,0.0,0.0,0.0,0.0,0.0,0.0,0.0,0.0,0.0,0.0,0.0,0.0,0.0,0.0,0.0,0.0,0.0,0.0,0.0,0.0,0.0,0.0,0.0,0.0,0.0,0.0,0.0,0.0,0.0,0.0,0.0,0.0,0.0,0.0,0.0,0.0,0.0,0.0,0.0,0.0,0.0,0.0,0.0,0.0,0.0,0.0,0.0,0.0,0.0,0.0,0.0,0.0,0.0,0.0,0.0,0.0,0.0,0.0,0.0,0.0,0.0,0.0,0.0,0.0,0.0,0.0,0.0,0.0,0.0,0.0,0.0,0.0,0.0,0.0,0.0,0.0,0.0,0.0,0.0,0.0,0.0,0.0,0.0,0.0,0.0,0.0,0.0,0.0,0.0,0.0,0.0,0.0,0.0,0.0,0.0,0.0,0.0,0.0,0.0,0.0,0.0,0.0,0.0,0.0,0.0,0.0,0.0,0.0,0.0,0.0,0.0,0.0,0.0,0.0,0.0,0.0,0.0,0.0,0.0,0.0,0.0,0.0,0.0,0.0,0.0,0.0,0.0,0.0,0.0,0.0,0.0,0.0,0.0,0.0,0.0,0.0,0.0,0.0,0.0,0.0,0.0,0.0,0.0,0.0,0.0,0.0,0.0,0.0,0.0,0.0,0.0,0.0,0.0,0.0,0.0,0.0,0.0,0.0,0.0,0.0,0.0,0.0,0.0,0.0,0.0,0.0,0.0,0.0,0.0,0.0,0.0,0.0,0.0,0.0,0.0,0.0,0.0,0.0,0.0,0.0,0.0,0.0,0.0,0.0,0.0,0.0,0.0,0.0,0.0,0.0,0.0,0.0,0.0,0.0,0.0,0.0,0.0,0.0,0.0,0.0,0.0,0.0,0.0,0.0,0.0,0.0,0.0,0.0,0.0,0.0,0.0,0.0,0.0,0.0,0.0,0.0,0.0,0.0,0.0,0.0,0.0,0.0,0.0,0.0,0.0,0.0,0.0,0.0,0.0,0.0,0.0,0.0,0.0,0.0,0.0,0.0,0.0,0.0,0.0,0.0,0.0,0.0,0.0,0.0,0.0,0.0,0.0,0.0,0.0,0.0,0.0,0.0,0.0,0.0,0.0,0.0,0.0,0.0,0.0,0.0,0.0,0.0,0.0,0.0,0.0,0.0,0.0,0.0,0.0,0.0,0.0,0.0,0.0,0.0,0.0,0.0,0.0,0.0,0.0,0.0,0.0,0.0,0.0,0.0,0.0,0.0,0.0,0.0,0.0,0.0,0.0,0.0,0.0,0.0,0.0,0.0,0.0,0.0,0.0,0.0,0.0,0.0,0.0,0.0,0.0,0.0,0.0,0.0,0.0,0.0,0.0,0.0,0.0,0.0,0.0,0.0,0.0,0.0,0.0,0.0,0.0,0.0,0.0,0.0,0.0,0.0,0.0,0.0,-2.3174,-2.3135,0.0,0.0,0.0,0.0,0.0,0.0,0.0,0.0,0.0,0.0,0.0,0.0,0.0,0.0,0.0,0.0,0.0,0.0,0.0,0.0,0.0,0.0,0.0,0.0,0.0,0.0,0.0,0.0,0.0,0.0,0.0,0.0,0.0,0.0,0.0,0.0,0.0,0.0,-0.0698,-0.0,-0.0,-0.0,-0.0,-0.0,0.0,0.0,0.0,0.0,0.0,0.0,0.0,0.0,0.0,0.0,0.0,0.0,0.0,0.0,0.0,0.0,0.0,0.0,0.0,0.0,0.0,0.0,0.0,0.0,0.0,0.0,0.0,0.0,0.0,0.0,0.0,0.0,0.0,0.0,0.0,0.0,0.0,0.0,0.0,0.0,0.0,0.0,0.0,0.0,0.0,0.0,0.0,0.0,0.0,0.0,0.0,0.0,0.0,0.0,0.0,0.0,0.0,0.0,0.0,0.0,0.0,0.0,0.0,0.0,0.0,0.0,0.0,0.0,0.0,0.0,0.0,-2.375,0.0,0.0,0.0,0.0,0.0,0.0,0.0,0.0,0.0,0.0,0.0,0.0,0.0,0.0,0.0,0.0,0.0,0.0,0.0,0.0,0.0,0.0,0.0,0.0,-0.6964,-0.6771,-0.6121,-0.5586,0.0,0.0,0.0,0.0,0.0,0.0,0.0,-0.4938,-0.4766,-0.4563,-0.1486,-0.0,-0.0,-0.0,-0.0,-0.0,-0.0,0.0,0.0,0.0,0.0,0.0,0.0,0.0,0.0,0.0,0.0,0.0,0.0,0.0,0.0,0.0,0.0,0.0,0.0,0.0,0.0,0.0,0.0,0.0,0.0,0.0,0.0,0.0,0.0,0.0,0.0,0.0,0.0,0.0,0.0,0.0,0.0,0.0,0.0,0.0,0.0,0.0,0.0,0.0,0.0,0.0,0.0,0.0,0.0,0.0,0.0,0.0,0.0,0.0,0.0,0.0,0.0,0.0,0.0,0.0,0.0,0.0,0.0,0.0,-2.7817,-2.7923,-2.7129,-2.7197,-2.7314,-2.7373,-2.5781,-2.4922,-2.4639,-2.456,0.0,0.0,0.0,0.0,0.0,0.0,0.0,0.0,0.0,0.0,0.0,0.0,0.0,0.0,0.0,0.0,0.0,0.0,0.0,0.0,0.0,-0.8178,-0.7846,-0.7111,-0.6912,-0.6439,0.0,0.0,0.0,0.0,0.0,0.0,-0.5071,-0.4895,-0.4836,-0.483,-0.1592,-0.0,-0.0,-0.0,-0.0,-0.0,-0.0,-0.0,-0.0,0.0,0.0,0.0,0.0,0.0,0.0,0.0,0.0,0.0,0.0,0.0,0.0,0.0,0.0,0.0,0.0,0.0,0.0,0.0,0.0,0.0,0.0,0.0,0.0,0.0,0.0,0.0,0.0,0.0,0.0,0.0,0.0,0.0,0.0,0.0,0.0,0.0,0.0,0.0,0.0,0.0,-1.7881,-1.7998,0.0,0.0,0.0,0.0,0.0,0.0,0.0,0.0,0.0,0.0,0.0,0.0,0.0,-3.0876,-3.146,-3.0928,-3.0035,-2.876,-2.849,-2.8081,-2.7598,-2.7959,-2.8525,-2.918,-2.8203,0.0,-2.5527,-2.5137,0.0,0.0,0.0,0.0,0.0,0.0,0.0,0.0,0.0,0.0,0.0,0.0,0.0,0.0,0.0,0.0,0.0,0.0,0.0,0.0,0.0,-0.8407,-0.8137,-0.7172,-0.6702,-0.6227,-0.5573,-0.5562,0.0,0.0,0.0,-0.526,-0.526,-0.5209,-0.515,-0.5191,-0.1709,-0.0,-0.0,-0.0,-0.0,-0.0,-0.0,-0.0,-0.0,-0.0,0.0,0.0,0.0,0.0,0.0,0.0,0.0,0.0,0.0,0.0,0.0,0.0,0.0,0.0,0.0,0.0,0.0,0.0,0.0,0.0,0.0,0.0,0.0,0.0,0.0,0.0,0.0,0.0,0.0,0.0,0.0,0.0,0.0,0.0,0.0,0.0,0.0,0.0,0.0,-1.7881,-1.8555,-1.8066,-1.8437,-1.8535,0.0,0.0,0.0,0.0,0.0,0.0,0.0,0.0,0.0,-3.0713,-3.0723,-3.1258,-3.2343,-3.207,-3.1726,-3.1592,-3.1366,-3.089,-3.0205,-3.0391,-3.0674,-3.1006,-3.0635,-2.9629,-2.8154,-2.7002,-2.6025,-2.5205,0.0,0.0,0.0,0.0,-2.5088,-2.5293,0.0,0.0,0.0,0.0,0.0,0.0,0.0,0.0,0.0,0.0,0.0,0.0,-0.8901,-0.8822,-0.8374,-0.7432,-0.6782,-0.6254,-0.5664,-0.5674,0.0,0.0,-0.5428,-0.5428,-0.5428,-0.4965,-0.4485,-0.3984,-0.1348,-0.0,-0.0,-0.0,-0.0,-0.0,-0.0,-0.0,-0.0,-0.0,-0.0,-0.0,0.0,0.0,0.0,0.0,0.0,0.0,0.0,0.0,0.0,0.0,0.0,0.0,0.0,0.0,0.0,0.0,0.0,0.0,0.0,0.0,0.0,0.0,0.0,0.0,0.0,0.0,0.0,0.0,0.0,0.0,0.0,0.0,0.0,0.0,0.0,0.0,0.0,-1.8301,-1.9092,-1.8125,-1.9062,-1.9404,0.0,0.0,0.0,0.0,0.0,0.0,-2.8692,-3.0059,-3.1049,-3.1734,-3.2008,-3.2732,-3.3679,-3.3503,-3.3523,-3.3683,-3.3456,-3.2874,-3.2178,-3.2285,-3.2324,-3.2324,-3.2217,-3.167,-3.0723,-2.8906,-2.7588,-2.667,-2.624,-2.6064,-2.6103,-2.6426,-2.6621,-2.6768,0.0,0.0,0.0,0.0,0.0,0.0,0.0,0.0,0.0,0.0,0.0,-0.9794,-1.0438,-0.9745,-0.8944,-0.8007,-0.7781,-0.7159,-0.5882,-0.5535,-0.5446,-0.5428,-0.5428,-0.5428,-0.5428,-0.3734,-0.2005,-0.0235,-0.0084,-0.0,-0.0,-0.0,-0.0,-0.0,-0.0,-0.0,-0.0,-0.0,-0.0,-0.0,-0.0,0.0,0.0,0.0,0.0,0.0,0.0,0.0,0.0,0.0,0.0,0.0,0.0,0.0,0.0,0.0,0.0,0.0,0.0,0.0,0.0,0.0,0.0,0.0,0.0,0.0,0.0,0.0,0.0,0.0,0.0,0.0,0.0,0.0,0.0,0.0,0.0,0.0,0.0,-1.8164,-1.9863,0.0,0.0,0.0,0.0,-2.5007,-2.6087,-2.7676,-2.997,-3.2052,-3.3419,-3.3977,-3.6321,-3.7476,-3.7027,-3.6154,-3.5314,-3.4316,-3.3316,-3.2652,-3.2178,-3.2588,-3.2764,-3.2744,-3.2344,-3.2353,-3.25,-3.0361,-2.873,-2.7559,-2.7119,-2.6953,-2.6953,-2.6973,-2.7246,-2.7565,0.0,0.0,0.0,0.0,0.0,0.0,0.0,0.0,-1.0542,-1.0975,-1.0486,-1.0001,-0.9755,-0.9067,-0.8242,-0.7473,-0.7268,-0.6918,-0.6197,-0.5905,-0.5661,-0.5439,-0.5428,-0.5393,-0.5387,-0.4776,-0.2976,-0.0,-0.0,-0.0,-0.0,-0.0,-0.0,-0.0,-0.0,-0.0,-0.0,-0.0,-0.0,-0.0,-0.0,-0.0,0.0,0.0,0.0,0.0,0.0,0.0,0.0,0.0,0.0,0.0,0.0,0.0,0.0,0.0,0.0,0.0,0.0,0.0,0.0,0.0,0.0,0.0,0.0,0.0,0.0,0.0,0.0,0.0,0.0,0.0,0.0,0.0,0.0,0.0,0.0,0.0,0.0,-2.0928,-2.2314,0.0,-2.2256,-2.3574,-2.5382,-2.7468,-2.8444,-3.0649,-3.4522,-3.5232,-3.5471,-3.5317,-3.6772,-3.6858,-3.5435,-3.4704,-3.4438,-3.4794,-3.3993,-3.3389,-3.2988,-3.3418,-3.3467,-3.3193,-3.3037,-3.2861,-3.274,-3.1667,-3.0655,-2.9697,-2.9238,-2.8927,-2.8721,-2.8957,-2.9203,-2.9332,0.0,0.0,0.0,0.0,0.0,0.0,0.0,0.0,-1.0784,-1.0635,-1.0137,-0.9628,-0.9063,-0.8321,-0.7625,-0.7197,-0.6993,-0.6681,-0.6288,-0.6023,-0.5725,-0.5446,-0.5396,-0.5387,-0.5396,-0.5398,-0.3667,-0.0,-0.0,-0.0,-0.0,-0.0,-0.0,-0.0,-0.0,-0.0,-0.0,-0.0,-0.0,-0.0,-0.0,-0.0,-0.0,0.0,0.0,0.0,0.0,0.0,0.0,0.0,0.0,0.0,0.0,0.0,0.0,0.0,0.0,0.0,0.0,0.0,0.0,0.0,0.0,0.0,0.0,0.0,0.0,0.0,0.0,0.0,0.0,0.0,0.0,0.0,0.0,0.0,0.0,-2.0977,-2.2578,-2.2715,-2.4248,-2.5068,-2.4502,-2.5869,-2.7492,-2.9525,-3.1119,-3.3469,-3.6645,-3.7391,-3.7274,-3.6487,-3.7177,-3.6827,-3.5035,-3.4551,-3.4473,-3.4677,-3.4288,-3.3838,-3.3428,-3.3721,-3.3691,-3.3418,-3.3418,-3.3203,-3.2842,-3.2525,-3.1915,-3.1093,-3.0654,-3.029,-3.0079,-3.0329,-3.0472,-3.0413,0.0,0.0,0.0,0.0,0.0,0.0,0.0,-1.0645,-1.0445,-0.9961,-0.918,-0.8546,-0.8455,-0.7657,-0.7204,-0.7363,-0.6963,-0.6576,-0.6359,-0.5913,-0.5525,-0.5382,-0.5316,-0.5318,-0.5378,-0.5328,-0.3472,-0.0,-0.0,-0.0,-0.0,-0.0,-0.0,-0.0,-0.0,-0.0,-0.0,-0.0,-0.0,-0.0,-0.0,-0.0,-0.0,0.0,0.0,0.0,0.0,0.0,0.0,0.0,0.0,0.0,0.0,0.0,0.0,0.0,0.0,0.0,0.0,0.0,0.0,0.0,0.0,0.0,0.0,0.0,0.0,0.0,0.0,0.0,0.0,0.0,0.0,0.0,0.0,0.0,-1.9404,-2.1973,-2.3721,-2.3369,-2.5557,-2.6777,-2.5957,-2.7383,-2.914,-3.101,-3.3801,-3.56,-3.6129,-3.8326,-3.8999,-3.7412,-3.7762,-3.7406,-3.63,-3.6195,-3.5575,-3.4072,-3.4092,-3.3867,-3.3418,-3.3447,-3.3437,-3.3418,-3.3418,-3.3107,-3.2767,-3.2758,-3.2248,-3.1411,-3.1083,-3.0908,-3.0889,-3.0889,-3.0889,-3.0869,0.0,0.0,0.0,0.0,0.0,0.0,0.0,-1.1009,-1.0743,-1.0302,-0.9495,-0.8911,-0.8639,-0.7724,-0.7248,-0.7512,-0.7024,-0.6813,-0.7188,-0.6194,-0.5554,-0.5412,-0.4113,-0.4051,-0.5347,-0.2804,-0.1007,-0.0,-0.0,-0.0,-0.0,-0.0,-0.0,-0.0,-0.0,-0.0,-0.0,-0.0,-0.0,-0.0,-0.0,-0.0,-0.0,0.0,0.0,0.0,0.0,0.0,0.0,0.0,0.0,0.0,0.0,0.0,0.0,0.0,0.0,0.0,0.0,0.0,0.0,0.0,0.0,0.0,0.0,0.0,0.0,0.0,0.0,0.0,0.0,0.0,0.0,0.0,-2.0244,-2.1738,-2.2051,-2.3877,-2.5596,-2.6748,-2.8057,-2.8896,-2.8965,-2.9394,-3.0368,-3.1876,-3.2127,-3.3434,-3.6384,-3.6214,-3.6145,-3.6726,-3.7082,-3.6644,-3.5152,-3.549,-3.508,-3.4072,-3.442,-3.4177,-3.3437,-3.3737,-3.3679,-3.3418,-3.3087,-3.2922,-3.2758,-3.21,-3.174,-3.1446,-3.1353,-3.113,-3.0889,-3.0889,-3.0889,-3.0869,0.0,0.0,0.0,0.0,0.0,0.0,0.0,-1.1283,-1.0853,-0.984,-0.9368,-0.8963,-0.8691,-0.7673,-0.7225,-0.8005,-0.7487,-0.7006,-0.6821,-0.6104,-0.5708,-0.578,-0.3837,-0.2821,-0.3121,-0.1103,-0.0,-0.0,-0.0,-0.0,-0.0,-0.0,-0.0,-0.0,-0.0,-0.0,-0.0,-0.0,-0.0,-0.0,-0.0,-0.0,-0.0,-0.0,-0.0,-0.0,-0.0,-0.0,-0.0,-0.0,0.0,0.0,0.0,0.0,0.0,0.0,0.0,0.0,0.0,0.0,0.0,0.0,0.0,0.0,0.0,0.0,0.0,0.0,0.0,0.0,0.0,0.0,0.0,0.0,-2.1836,-2.3516,-2.4863,-2.5898,-2.7021,-2.8389,-2.9307,-3.0,-3.0449,-3.0488,-3.0813,-3.1706,-3.284,-3.4117,-3.5675,-3.5971,-3.6292,-3.6792,-3.6331,-3.5741,-3.5052,-3.5325,-3.5026,-3.404,-3.4087,-3.3748,-3.3117,-3.3258,-3.32,-3.2913,-3.2602,-3.2383,-3.2212,-3.1719,-3.145,0.0,0.0,0.0,0.0,0.0,-3.0743,-3.0587,0.0,0.0,0.0,0.0,0.0,0.0,0.0,-1.1496,-1.0798,-0.9098,-0.9105,-0.9169,-0.8686,-0.7586,-0.7307,-0.856,-0.7965,-0.7116,-0.6008,-0.595,-0.605,-0.6315,-0.4296,-0.2134,-0.0,-0.0,-0.0,-0.0,-0.0,-0.0,-0.0,-0.0,-0.0,-0.0,-0.0,-0.0,-0.0,-0.0,-0.0,-0.0,-0.0,-0.0,-0.0,-0.0,-0.0,-0.0,-0.0,-0.0,-0.0,-0.0,0.0,0.0,0.0,0.0,0.0,0.0,0.0,0.0,0.0,0.0,0.0,0.0,0.0,0.0,0.0,0.0,0.0,0.0,0.0,0.0,0.0,0.0,0.0,0.0,-2.3389,-2.4883,-2.7383,-2.7822,-2.8174,-2.8965,-2.9775,-3.0439,-3.085,-3.0889,-3.0908,-3.0957,-3.4243,-3.5653,-3.4386,-3.6362,0.0,0.0,0.0,-3.4906,-3.5297,-3.5229,-3.4814,-3.4082,-3.3595,-3.3148,-3.2758,-3.2392,-3.2161,-3.2161,-3.2142,-3.1822,-3.1513,-3.1493,-3.12,-3.0889,-3.0889,-3.0889,-3.0889,-3.0889,-3.0597,-3.0383,0.0,0.0,0.0,0.0,0.0,0.0,0.0,-1.1931,-1.1162,-0.9425,-1.003,-1.0063,-0.8435,-0.7971,-0.7938,-0.8284,-0.766,-0.7019,-0.6729,-0.6913,-0.6931,-0.6713,-0.6189,-0.4088,-0.0097,-0.0,-0.0,-0.0,-0.0,-0.0,-0.0,-0.0,-0.0,-0.0,-0.0,-0.0,-0.0,-0.0,-0.0,-0.0,-0.0,-0.0,-0.0,-0.0,-0.0,-0.0,-0.0,-0.0,-0.0,-0.0,-0.0,-0.0376,-0.2751,-0.4233,0.0,0.0,0.0,0.0,0.0,0.0,0.0,0.0,0.0,0.0,0.0,0.0,0.0,0.0,0.0,0.0,0.0,0.0,0.0,-2.2668,-2.4336,-2.6016,-2.791,-2.8769,-2.9385,-2.9893,-3.043,-3.0791,-3.0879,-3.0889,-3.1035,-3.1367,-3.2107,-3.2744,-3.3099,-3.3534,-3.4073,-3.4675,-3.4326,-3.439,-3.4774,-3.4452,-3.4258,-3.4087,0.0,0.0,-3.2729,-3.2342,-3.2177,-3.2177,-3.1841,-3.1525,-3.1503,-3.1191,-3.1025,-3.0889,-3.0889,-3.0889,-3.0889,-3.0889,-3.0879,-3.0693,0.0,0.0,0.0,0.0,0.0,0.0,0.0,-1.2178,-1.1614,-1.0254,-1.0523,-1.0616,-0.9761,-0.8942,-0.8641,-0.9366,-0.7883,-0.7151,-0.7694,-0.719,-0.6962,-0.7118,-0.7145,-0.559,-0.2078,-0.0701,-0.0,-0.0,-0.0,-0.0,-0.0,-0.0,-0.0,-0.0,-0.0,-0.0,-0.0,-0.0,-0.0,-0.0,-0.0,-0.0,-0.0,-0.0,-0.0,-0.0,-0.0,-0.0,-0.0,-0.0,-0.1602,-0.3519,-0.3423,-0.4447,-0.5648,0.0,0.0,0.0,0.0,0.0,0.0,0.0,0.0,0.0,0.0,0.0,0.0,0.0,0.0,-1.5922,-1.8056,0.0,-2.2217,-2.439,-2.5674,-2.6973,-2.8691,-2.9111,-2.9482,-3.0117,-3.0605,-3.0889,-3.0889,-3.0889,-3.1064,-3.1484,-3.2385,-3.2915,-3.2754,-3.3693,-3.4298,-3.4089,-3.4118,-3.4133,-3.405,-3.4145,-3.3796,-3.3139,-3.2734,-3.2322,-3.2129,-3.1742,-3.1523,-3.1523,-3.1347,-3.12,-3.1191,-3.1025,-3.0889,-3.0889,-3.0889,-3.0889,-3.0889,-3.0889,-3.0733,-3.0597,0.0,0.0,0.0,0.0,0.0,0.0,0.0,-1.2305,-1.1922,-1.0932,-1.0932,-1.1097,-1.1094,-0.9898,-0.9427,-1.0278,-0.8102,-0.7269,-0.8549,-0.7336,-0.6773,-0.7346,-0.761,-0.6845,-0.4822,-0.1609,-0.0,-0.0,-0.0,-0.0,-0.0,-0.0,-0.0,-0.0,-0.0,-0.0,-0.0,-0.0,-0.0,-0.0,-0.0,-0.0,-0.0,-0.0,-0.0,-0.0,-0.0,-0.0,-0.0,-0.0,-0.3075,-0.661,-0.4779,-0.516,-0.6148,-0.5785,-0.5616,0.0,0.0,0.0,0.0,0.0,0.0,0.0,0.0,-1.1209,-1.1653,-1.2682,-1.4532,-1.6645,-1.8812,-2.1094,-2.3492,-2.5985,-2.6816,-2.7676,-2.9228,-2.9141,-2.9199,-2.998,-3.0478,-3.0791,-3.0879,-3.0889,-3.1103,-3.1611,-3.3092,-3.3758,-3.3015,-3.4419,-3.494,-3.3934,-3.3943,-3.3704,-3.3239,-3.3453,-3.3123,-3.2197,-3.2089,-3.1745,-3.1503,-3.1054,-3.0889,-3.0889,-3.0889,-3.0889,-3.0889,-3.0889,-3.0889,-3.0889,-3.0889,-3.0889,-3.0889,-3.0889,-3.0713,-3.0412,0.0,0.0,0.0,0.0,0.0,0.0,0.0,0.0,-1.1922,-1.0932,-1.162,-1.1781,-1.0905,-1.0306,-0.9822,-0.9503,-0.785,-0.7346,-0.8558,-0.7371,-0.6885,-0.735,-0.7717,-0.7869,-0.7578,-0.2621,-0.0,-0.0,-0.0,-0.0,-0.0,-0.0,-0.0,-0.0,-0.0,-0.0,-0.0,-0.0,-0.0,-0.0,-0.0,-0.0,-0.0,-0.0,-0.0,-0.0,-0.0,-0.0,-0.0,-0.0,-0.288,-0.6384,-0.6342,-0.6183,-0.6013,-0.583,-0.5951,-0.6233,-0.6916,-0.8005,-0.9245,-1.0267,-1.0551,-1.0935,0.0,-1.2726,-1.3099,-1.4801,-1.7077,-1.9141,-2.027,-2.3129,-2.5548,-2.6289,-2.707,-2.792,-2.8857,-2.8945,-2.9092,-2.959,-3.0019,-3.043,-3.085,-3.0889,-3.123,-3.2031,-3.2371,-3.2745,-3.331,-3.3515,-3.3564,-3.3506,-3.3175,-3.2921,-3.2871,-3.2197,-3.1881,-3.2152,-3.1469,-3.1221,-3.1503,-3.1054,-3.0889,-3.0889,-3.0889,-3.0889,-3.0889,-3.0889,-3.0889,-3.0889,-3.0889,-3.0889,-3.0889,-3.0889,-3.0879,-3.0869,0.0,0.0,0.0,0.0,0.0,0.0,0.0,0.0,0.0,0.0,-1.207,-1.215,-1.1694,-1.1198,-1.0504,-0.9592,-0.8322,-0.7642,-0.7988,-0.7051,-0.6776,-0.7389,-0.7807,-0.8014,-0.8009,-0.5766,-0.3131,-0.0,-0.0,-0.0,-0.0,-0.0,-0.0,-0.0,-0.0,-0.0,-0.0,-0.0,-0.0,-0.0,-0.0,-0.0,-0.0,-0.0,-0.0,-0.0,-0.0,-0.0,0.0,-0.0,-0.1169,-0.3043,-0.5216,-0.6002,-0.6047,-0.6138,-0.6328,-0.6779,-0.8028,-0.9284,-1.0434,-1.1142,-1.1717,-1.2345,-1.3253,-1.3494,-1.3892,-1.4947,-1.752,-1.976,-2.0649,-2.3502,-2.5957,-2.6641,-2.7266,-2.7959,-2.8799,-2.8496,-2.8437,-2.9111,-2.9131,-2.9453,-3.0391,-3.0488,-3.085,-3.1728,-3.2031,-3.2402,-3.3054,-3.3068,-3.3078,-3.3078,-3.2612,-3.2296,-3.2103,-3.19,-3.1732,-3.1455,-3.1368,-3.12,-3.1191,-3.1025,-3.0889,-3.0889,-3.0889,-3.0889,-3.0889,-3.0889,-3.0889,-3.0889,-3.0889,-3.0889,-3.0889,-3.0889,-3.0889,-3.0879,0.0,0.0,0.0,0.0,0.0,0.0,0.0,0.0,0.0,0.0,-1.2305,-1.2271,-1.2191,-1.1512,-1.0684,-0.9807,-0.8422,-0.7613,-0.7667,-0.6831,-0.6354,-0.6374,-0.7429,-0.8045,-0.7962,-0.6567,-0.394,-0.0,-0.0,-0.0,-0.0,-0.0,-0.0,-0.0,-0.0,-0.0,-0.0,-0.0,-0.0,-0.0,-0.0,-0.0,-0.0,-0.0,-0.0,-0.0,-0.0,-0.0542,-0.1226,-0.1241,-0.1286,-0.1891,-0.4509,-0.5583,-0.592,-0.6252,-0.6698,-0.739,-0.9052,-1.0251,-1.1169,-1.1924,-1.2786,-1.3547,-1.3921,-1.4235,-1.4589,-1.5097,-1.7682,-1.9979,-2.0512,-2.3377,-2.5986,-2.6719,-2.7305,-2.792,-2.8643,-2.8125,-2.7891,-2.8506,-2.8203,-2.8398,-2.956,-2.999,-3.0566,-3.1445,-3.1807,-3.2139,-3.2603,-3.2585,-3.2642,-3.2604,-3.22,-3.1818,-3.1523,-3.1689,-3.1513,-3.0889,-3.12,-3.1191,-3.0889,-3.0889,-3.0889,-3.0889,-3.0889,-3.0889,-3.0889,-3.0889,-3.0889,-3.0889,-3.0889,-3.081,-3.0703,-3.0703,-3.076,-3.0672,0.0,0.0,0.0,0.0,0.0,0.0,0.0,0.0,0.0,0.0,0.0,0.0,0.0,-1.0829,-1.0,-0.974,-0.789,-0.7033,-0.7686,-0.6795,-0.555,-0.3806,-0.6511,-0.8004,-0.8007,-0.2901,-0.0202,-0.0,-0.0,-0.0,-0.0,-0.0,-0.0,-0.0,-0.0,-0.0,-0.0,-0.0,-0.0,-0.0,-0.0,-0.0,-0.0,-0.0,-0.0,-0.0,-0.0,-0.188,-0.4347,-0.4341,-0.4599,-0.4982,-0.5055,-0.5257,-0.5533,-0.6062,-0.6962,-0.8177,-0.9667,-1.0555,-1.1269,-1.2506,-1.3394,-1.4208,-1.479,-1.515,-1.5444,-1.5745,-1.8082,-2.0102,-2.0127,-2.3195,-2.5889,-2.6338,-2.7119,-2.7822,-2.8252,-2.7939,-2.7676,-2.7695,-2.7324,-2.7402,-2.8262,-2.9473,-3.0566,-3.1445,-3.1533,-3.1728,-3.2158,-3.2162,-3.2219,-3.2217,-3.1722,-3.1553,-3.1513,-3.1181,-3.0898,-3.0889,-3.0898,-3.0898,-3.0889,-3.0889,-3.0889,-3.0889,-3.0889,-3.0889,-3.0889,-3.0889,-3.0889,-3.0889,-3.0889,-3.0615,-3.0215,-3.0215,-3.0246,-3.0204,0.0,0.0,0.0,0.0,0.0,0.0,0.0,0.0,0.0,0.0,0.0,0.0,0.0,0.0,0.0,0.0,-0.7362,-0.6733,-0.6602,-0.4879,-0.3818,-0.3632,-0.3053,-0.2719,-0.2695,-0.0883,-0.0,-0.0,-0.0,-0.0,-0.0,-0.0,-0.0,-0.0,-0.0,-0.0,-0.0,-0.0,-0.0,-0.0,-0.0,-0.0,-0.0,-0.0,-0.121,-0.2997,0.0,-0.3628,-0.4499,-0.4471,-0.4592,-0.4711,-0.4694,-0.5203,-0.5982,-0.7405,-0.855,-0.9659,-1.0943,-1.1857,-1.2699,-1.3681,-1.4442,-1.5057,-1.5451,-1.5611,-1.5658,-1.5565,-1.6635,-1.7873,-1.8822,-2.0784,-2.3014,-2.5158,-2.625,-2.7168,-2.8154,-2.793,-2.7559,-2.7266,-2.7109,-2.7246,-2.7822,-2.8516,-2.9404,-3.0557,-3.0928,-3.1319,-3.1762,-3.1764,-3.1682,-3.1791,-3.1348,-3.1054,-3.1054,-3.1025,-3.0889,-3.0889,-3.0889,-3.0889,-3.0889,-3.0889,-3.0889,-3.0889,-3.0889,-3.0889,-3.0889,-3.0889,-3.0713,-3.043,-3.043,-3.0166,-2.9785,-2.9785,-2.9643,-2.9309,0.0,0.0,0.0,0.0,0.0,0.0,0.0,0.0,0.0,0.0,0.0,0.0,0.0,0.0,0.0,0.0,0.0,-0.6302,-0.5939,-0.454,-0.3343,-0.2339,-0.0852,-0.0,-0.0,-0.0,-0.0,-0.0,-0.0,-0.0,-0.0,-0.0,-0.0,-0.0,-0.0,-0.0,-0.0,-0.0,-0.0,-0.0,-0.0,-0.0,-0.0,-0.0,-0.1897,0.0,-0.4499,-0.4474,-0.4515,-0.4524,-0.4487,-0.4484,-0.4477,-0.5337,-0.6641,-0.824,-0.956,-1.0708,-1.1997,-1.2926,-1.3734,-1.4609,-1.5197,-1.5598,-1.5785,-1.5832,-1.5718,-1.5324,-1.6053,-1.7062,-1.7842,-1.9448,-2.1427,-2.3962,-2.499,-2.6016,-2.7617,-2.7471,-2.7217,-2.7246,-2.7246,-2.7363,-2.7637,-2.8047,-2.876,-2.9893,-3.0391,-3.079,-3.0964,-3.1143,-3.126,-3.123,-3.1044,-3.0889,-3.0889,-3.0889,-3.0889,-3.0889,-3.0889,-3.0889,-3.0889,-3.0889,-3.0752,-3.0713,-3.0869,-3.0762,-3.0441,-3.0791,-3.0527,-2.999,-3.0137,-2.9844,-2.9336,-2.9336,-2.9062,-2.873,0.0,0.0,0.0,0.0,0.0,0.0,0.0,0.0,0.0,0.0,0.0,0.0,0.0,0.0,0.0,0.0,0.0,0.0,-0.5755,-0.5714,-0.4094,-0.0453,-0.0081,-0.0,-0.0,-0.0,-0.0,-0.0,-0.0,-0.0,-0.0,-0.0,-0.0,-0.0,-0.0,-0.0,-0.0,-0.0,-0.0,-0.0,-0.0,-0.0,-0.0,-0.0214,-0.1997,-0.4418,-0.4498,-0.4494,-0.4477,-0.4477,-0.448,-0.4543,-0.465,-0.5828,-0.7402,-0.8737,-1.0098,-1.1403,-1.2879,-1.3707,-1.4355,-1.5204,-1.5625,-1.5825,-1.5812,-1.5798,-1.5618,-1.5127,-1.6275,-1.7424,-1.7317,-1.9052,-2.1103,-2.2852,-2.3555,-2.4629,-2.6748,-2.6728,-2.6777,-2.7568,-2.7666,-2.7666,-2.7666,-2.8027,-2.8613,-2.9473,-2.9932,-3.0176,-3.0195,-3.0635,-3.0879,-3.0859,-3.0879,-3.0889,-3.0889,-3.0889,-3.0889,-3.0889,-3.0889,-3.0889,-3.0889,-3.0889,-3.0597,-3.0257,-3.0645,-3.0334,-2.9601,-3.0441,-3.0303,-2.957,-2.9971,-2.9619,-2.8887,-2.8887,-2.8633,-2.835,0.0,0.0,0.0,0.0,0.0,0.0,0.0,0.0,0.0,0.0,0.0,0.0,0.0,0.0,0.0,0.0,0.0,0.0,-0.5899,-0.5904,-0.5475,-0.4525,-0.1589,-0.0,-0.0,-0.0,-0.0,-0.0,-0.0,-0.0,-0.0,-0.0,-0.0,-0.0,-0.0,-0.0,-0.0,-0.0,-0.0,-0.0,-0.0,-0.0,-0.0293,-0.2988,-0.3485,-0.2966,-0.4268,-0.4632,-0.4522,-0.4522,-0.4616,-0.5036,-0.6316,-0.7215,-0.8212,-1.0497,-1.1695,-1.2579,-1.3841,-1.4616,-1.5164,-1.5611,-1.5772,-1.5772,-1.5558,-1.5337,-1.528,-1.534,-1.5234,-1.5481,-1.6831,-1.827,-1.9929,-2.2308,-2.4121,-2.5771,-2.7285,-2.7676,-2.7773,-2.7676,-2.7666,-2.7666,-2.7666,-2.7764,-2.8174,-2.9023,-2.9482,-2.9863,-3.0176,-3.0635,-3.0732,-3.0381,-3.0713,-3.0889,-3.0889,-3.0889,-3.0889,-3.0889,-3.0889,-3.0889,-3.0889,-3.0889,-3.0597,-3.0199,-3.0276,-3.0108,-2.9658,-2.979,-2.9554,-2.9092,-2.9199,-2.8926,-2.8447,-2.8447,-2.8389,-2.831,0.0,0.0,0.0,0.0,0.0,0.0,0.0,0.0,0.0,0.0,0.0,0.0,0.0,0.0,0.0,0.0,0.0,0.0,0.0,-0.6142,-0.6125,-0.6143,-0.3962,-0.1881,-0.0078,-0.0,-0.0,-0.0,-0.0,-0.0,-0.0,-0.0,-0.0,-0.0,-0.0,-0.0,-0.0,-0.0,-0.0,0.0,0.0,-0.0953,-0.2623,-0.4634,-0.4552,-0.3462,-0.4468,-0.4704,-0.4582,-0.4711,-0.487,-0.5341,-0.7298,-0.824,-0.9146,-1.171,-1.2966,-1.3728,-1.4656,-1.5237,-1.5625,-1.5792,-1.5832,-1.5718,-1.5304,-1.5424,-1.5486,-1.5145,-1.5258,-1.5667,-1.6661,-1.786,-1.9317,-2.1325,-2.332,-2.5127,-2.6611,-2.751,-2.7998,-2.7949,-2.8271,-2.835,-2.7978,-2.8281,-2.8701,-2.917,-2.9434,-2.9678,-2.9912,-3.0537,-3.0596,-2.9941,-3.0547,-3.0889,-3.0889,-3.0889,-3.0889,-3.0889,-3.0889,-3.0889,-3.0889,-3.0889,-3.0597,-3.018,0.0,-2.9863,-2.9292,-2.956,-2.9174,-2.8662,-2.8848,-2.8662,-2.8291,-2.8291,-2.8291,-2.8291,0.0,0.0,0.0,0.0,0.0,0.0,0.0,0.0,0.0,0.0,0.0,0.0,0.0,0.0,0.0,0.0,0.0,0.0,0.0,0.0,-0.615,-0.5885,-0.6125,-0.4603,-0.0953,-0.0293,-0.0,-0.0,-0.0,-0.0,-0.0,-0.0,-0.0,-0.0,-0.0,-0.0,-0.0,-0.0,-0.0,-0.0074,-0.051,-0.2628,-0.5403,0.0,-0.5151,-0.4855,-0.4773,-0.4745,-0.4711,-0.5047,-0.5186,-0.5593,-0.7807,-0.9001,-1.0083,-1.2625,-1.3921,-1.4656,-1.5284,-1.5665,-1.5879,-1.5838,-1.5832,-1.5665,-1.5217,-1.5701,-1.5974,-1.5068,-1.5889,-1.6795,-1.6842,-1.7887,-1.9228,-2.0527,-2.2148,-2.3848,-2.5586,-2.6836,-2.7754,-2.8232,-2.8945,-2.9111,-2.8359,-2.8965,-2.9424,-2.9482,-2.9482,-2.9613,-2.9885,-3.0407,-3.0391,-2.9678,-3.04,-3.083,-3.0889,-3.0889,-3.0889,-3.0889,-3.0889,-3.0889,-3.0889,-3.0889,-3.0597,-3.019,-3.0168,-2.9665,-2.8876,-2.9297,-2.9003,-2.833,-2.8691,-2.8613,-2.8291,-2.8291,-2.8291,-2.8291,0.0,0.0,0.0,0.0,0.0,0.0,0.0,0.0,0.0,0.0,-0.6569,-0.6338,0.0,0.0,0.0,0.0,0.0,0.0,0.0,0.0,0.0,-0.3732,-0.5323,-0.5979,-0.522,-0.1805,-0.0,-0.0,-0.0,-0.0,-0.0,-0.0,-0.0,-0.0,-0.0,-0.0,-0.0,-0.0,-0.0,-0.0275,-0.3231,-0.4846,-0.5413,-0.5391,0.0,0.0,-0.4803,-0.4613,-0.4642,-0.5135,-0.5484,-0.6086,-0.8534,-0.9515,-1.0439,-1.3438,-1.4402,-1.4703,-1.5531,-1.5972,-1.6139,-1.5892,-1.5832,-1.5792,-1.5718,-1.5533,-1.5568,-1.6427,-1.6599,-1.6967,-1.8037,-1.9015,-2.0127,-2.1445,-2.2793,-2.4287,-2.6025,-2.6768,-2.7412,-2.8203,-2.8428,-2.8457,-2.8301,-2.8428,-2.8652,-2.9004,-2.9033,-2.9709,-3.1137,-3.0358,-2.9893,-3.0078,-3.0234,-3.0508,-3.0889,-3.0889,-3.0889,-3.0889,-3.0889,-3.0889,-3.0889,-3.0889,-3.0597,-3.0238,-2.9815,0.0,-2.8866,-2.8593,-2.8437,-2.8301,-2.8369,-2.8359,-2.8291,-2.8291,-2.8291,-2.8291,0.0,0.0,0.0,0.0,0.0,0.0,0.0,-0.6549,-0.6552,-0.6625,-0.66,-0.6485,-0.6479,-0.6393,-0.6314,0.0,0.0,0.0,0.0,0.0,0.0,0.0,0.0,0.0,-0.2992,-0.101,-0.0,-0.0,0.0,-0.0,-0.0,-0.0,-0.0,-0.0,-0.0,-0.0,-0.0,-0.0,-0.1093,-0.2975,-0.4675,-0.4834,-0.4098,0.0,0.0,0.0,-0.4775,-0.4922,-0.5346,-0.5905,-0.6439,-0.7236,-0.9025,-1.0237,-1.1387,-1.3774,-1.4629,-1.491,-1.5631,-1.6046,-1.6206,-1.5905,-1.5832,-1.5737,-1.5691,-1.5718,-1.5982,-1.6633,-1.707,-1.7624,-1.8414,-1.9336,-2.0195,-2.1055,-2.2285,-2.3652,-2.5156,-2.6133,-2.7002,-2.7861,-2.897,-2.9566,-2.9323,-2.9515,-2.9748,-2.9951,-2.9971,-3.0376,-3.1218,-3.0709,-3.0279,-3.0176,-2.999,-3.0195,-3.0889,-3.0713,-3.0509,-3.0512,-3.0809,-3.0743,-3.0568,-3.0568,-3.0422,-3.0131,-2.9802,-2.9305,-2.8866,-2.871,-2.8447,-2.8291,-2.8291,-2.8291,-2.8291,-2.8291,-2.8291,-2.8291,0.0,0.0,0.0,0.0,0.0,0.0,0.0,-0.6612,-0.6668,-0.6701,-0.6776,-0.6803,-0.6678,-0.6021,-0.5653,0.0,0.0,0.0,0.0,0.0,0.0,0.0,0.0,0.0,-0.0,0.0,0.0,-0.0,-0.0,0.0,0.0,0.0,0.0,0.0,-0.0,-0.0,-0.0071,-0.0845,-0.2781,0.0,0.0,-0.4579,-0.3416,0.0,0.0,0.0,0.0,-0.5489,-0.6099,-0.6676,-0.7475,-0.8342,-0.9249,-1.0528,-1.204,-1.3737,-1.4536,-1.4997,-1.5578,-1.5999,-1.6206,-1.5905,-1.5961,-1.5978,-1.5826,-1.6269,-1.6759,-1.6872,-1.7501,-1.8164,-1.8682,-1.9326,-1.998,-2.0605,-2.1572,-2.2744,-2.4209,-2.5391,-2.6494,-2.7539,-2.9554,-3.0621,-2.9953,-3.0748,-3.118,-3.0863,-3.139,-3.1589,-3.1274,-3.1274,-3.1027,-3.0446,-2.9823,-2.9814,-3.0596,-3.0287,-3.012,-3.0102,-3.0407,-3.048,-3.0102,-3.0102,-3.0074,-3.0035,-2.9585,-2.9189,0.0,-2.8858,-2.8583,-2.8291,-2.8291,-2.8291,-2.8291,-2.8291,-2.8291,-2.8291,0.0,0.0,0.0,0.0,0.0,0.0,0.0,-0.6761,-0.6821,-0.7047,-0.7068,-0.7088,-0.7071,-0.4894,-0.3425,0.0,0.0,0.0,0.0,0.0,0.0,0.0,0.0,0.0,0.0,0.0,0.0,-0.0,-0.0,0.0,0.0,0.0,0.0,0.0,0.0,-0.0,-0.0218,-0.3489,0.0,0.0,0.0,0.0,0.0,0.0,0.0,0.0,0.0,-0.6235,-0.6315,-0.714,-0.811,-0.8935,-0.9062,-0.9976,-1.1384,-1.2902,-1.3915,-1.4689,-1.5277,-1.5845,-1.6206,-1.5905,-1.6344,-1.6855,-1.6771,-1.7198,-1.7669,-1.7839,-1.794,-1.8262,-1.9072,-1.9287,-1.9746,-2.0977,-2.1279,-2.207,-2.4131,-2.4863,-2.581,-2.7471,-2.9278,-2.9858,-2.8601,-3.0764,-3.1699,-3.0484,-3.2723,-3.3534,-3.2297,-3.2196,-3.1837,-3.0912,-2.9629,-2.9209,-2.9687,-2.9678,-2.9634,-2.9666,-2.9682,-2.9711,-2.9657,-2.9657,-2.9705,-2.9675,-2.9124,-2.8906,0.0,-2.851,-2.8301,-2.8291,-2.8291,-2.8291,-2.8291,-2.8291,-2.8291,-2.8291,0.0,0.0,0.0,0.0,0.0,0.0,-0.6814,-0.6947,-0.6505,-0.5151,-0.6265,-0.7129,-0.7124,-0.3631,-0.1233,-0.1202,0.0,0.0,0.0,0.0,0.0,0.0,0.0,0.0,0.0,0.0,-0.0,-0.0,-0.0,0.0,0.0,0.0,0.0,0.0,0.0,-0.1374,-0.3885,-0.535,0.0,0.0,0.0,0.0,0.0,0.0,0.0,0.0,0.0,0.0,-0.7807,-0.8276,-0.8936,-0.964,-0.9686,-1.0258,-1.1268,-1.2609,-1.3313,-1.3975,-1.509,-1.5825,-1.6206,-1.5905,-1.619,-1.666,-1.6857,-1.7064,-1.7479,-1.8238,-1.8389,-1.8652,-1.9502,-1.9668,-1.9922,-2.0703,-2.0615,-2.1103,-2.3008,-2.3418,-2.4723,-2.7778,-2.9703,-3.1097,-3.1893,-3.2955,-3.3353,-3.2855,-3.3773,-3.4178,-3.3563,-3.3027,-3.2159,-3.101,-2.9657,-2.9131,-2.957,-2.9307,-2.9228,-2.9205,-2.9508,-2.9498,-2.9176,-2.9176,-2.9223,-2.916,-2.9003,-2.8809,0.0,-2.8594,-2.8564,-2.8291,-2.8291,-2.8291,-2.8291,-2.8291,-2.8291,-2.8291,0.0,0.0,0.0,0.0,0.0,-0.6753,-0.6905,-0.7027,-0.6294,-0.3894,-0.4461,-0.4975,-0.5008,-0.1965,-0.0,-0.0,-0.0,0.0,0.0,0.0,0.0,0.0,0.0,0.0,0.0,0.0,-0.0,-0.0,-0.0,-0.0,0.0,0.0,-0.0,-0.0079,0.0,0.0,0.0,0.0,0.0,0.0,0.0,0.0,0.0,0.0,0.0,0.0,0.0,0.0,0.0,0.0,0.0,-1.01,-1.0306,-1.0629,-1.1132,-1.1975,-1.2692,-1.3474,-1.4683,-1.5769,-1.6538,-1.6421,-1.6831,-1.732,-1.7376,-1.748,-1.7692,-1.8421,-1.8562,-1.8896,-1.9756,-1.9912,-2.0059,-2.0498,-2.042,-2.082,-2.2305,-2.2982,-2.452,-2.7505,-2.9758,-3.1593,-3.3115,-3.4,-3.4581,-3.4981,-3.4981,-3.4981,-3.4981,-3.3588,-3.2137,-3.0811,-2.9467,-2.8877,-2.9189,-2.8887,-2.873,-2.874,-2.9015,-2.8996,-2.872,-2.872,-2.872,-2.872,-2.872,-2.8573,0.0,-2.8583,-2.8573,-2.8291,-2.8291,-2.8291,-2.8291,-2.8291,-2.8291,-2.8291,0.0,0.0,0.0,0.0,0.0,0.0,-0.6905,-0.7025,-0.6241,-0.388,-0.1588,-0.0094,-0.0098,-0.0,-0.0,-0.0,-0.0,0.0,0.0,0.0,0.0,0.0,0.0,0.0,0.0,0.0,-0.0,-0.0,-0.0,-0.0,-0.0,-0.0,-0.0,-0.0157,0.0,0.0,0.0,0.0,0.0,0.0,0.0,0.0,0.0,0.0,0.0,0.0,0.0,0.0,0.0,0.0,0.0,0.0,0.0,-1.0914,-1.0944,-1.0999,-1.2051,-1.334,-1.3941,-1.5581,-1.7251,-1.7602,-1.8513,-1.9272,-1.8789,-1.8639,-1.8572,-1.8562,-1.8562,-1.8896,-1.9756,-1.9912,-2.0059,-2.0498,-2.0937,-2.1523,-2.2393,-2.4161,-2.5748,-2.6597,-2.9274,-3.0891,-3.0785,-3.2971,-3.4981,-3.6263,-3.6358,-3.6358,-3.6358,-3.3749,-3.1735,-3.0328,-2.9006,-2.8301,-2.8301,-2.8301,-2.8301,-2.8301,-2.8301,-2.8301,-2.8291,-2.8291,-2.8291,-2.8291,-2.8291,-2.8291,0.0,-2.8291,-2.8291,-2.8291,-2.8291,-2.8291,-2.8291,-2.8291,-2.8291,-2.8291,0.0,0.0,0.0,0.0,0.0,0.0,0.0,-0.7091,-0.6297,-0.3896,-0.1483,-0.0,-0.0,-0.0,-0.0,-0.0,-0.0,0.0,0.0,0.0,0.0,0.0,0.0,0.0,0.0,0.0,-0.0,-0.0,-0.0,-0.0,-0.0083,-0.2953,-0.427,-0.4332,-0.416,-0.4943,0.0,0.0,0.0,0.0,0.0,0.0,-0.657,0.0,0.0,0.0,0.0,0.0,0.0,0.0,0.0,0.0,0.0,0.0,0.0,-1.2672,-1.3199,-1.3912,-1.4957,-1.5898,-1.664,-1.7077,-1.7627,-1.8068,-1.7943,-1.8248,-1.8721,-1.9023,-1.9307,-1.9687,-2.0254,-2.0867,-2.1227,-2.1026,-2.1659,-2.2521,-2.3515,-2.4482,-2.6282,-2.9509,-3.2767,-3.4662,-3.4603,-3.5362,-3.6115,-3.6897,-3.6571,-3.6115,-3.5563,-3.4454,-3.3563,-3.3166,-3.0824,-2.9713,-2.9713,-2.9713,-2.9207,-2.8291,-2.8291,-2.8291,-2.8291,-2.8291,-2.8291,-2.8291,-2.8291,-2.8291,0.0,-2.8291,-2.8291,-2.8291,-2.8291,-2.8291,-2.8291,-2.8291,-2.8291,-2.8291,0.0,0.0,0.0,0.0,0.0,0.0,0.0,-0.7081,-0.6236,-0.395,-0.1467,-0.0,-0.0,-0.0,-0.0,-0.0,-0.0,0.0,0.0,0.0,0.0,0.0,0.0,0.0,0.0,-0.0,-0.0,-0.0,-0.1773,-0.2701,-0.2728,-0.4459,-0.5682,-0.6238,-0.5007,-0.5132,0.0,0.0,0.0,0.0,0.0,0.0,-0.7599,0.0,0.0,0.0,0.0,0.0,0.0,0.0,0.0,0.0,0.0,0.0,0.0,0.0,-1.4762,-1.5048,-1.5601,-1.6393,-1.71,-1.7468,-1.7881,-1.8193,-1.8349,-1.8547,-1.887,-1.9895,-2.0014,-2.0266,-2.1445,-2.2043,-2.2328,-2.2397,-2.3182,-2.4083,-2.4675,-2.5975,-2.8128,-3.1583,-3.4264,-3.5742,-3.5742,-3.6119,-3.6584,-3.7149,-3.6671,-3.6297,-3.6015,-3.4954,-3.4581,-3.5174,-3.2443,-3.0824,-3.0317,-3.0317,-2.9608,-2.8291,-2.8291,-2.8291,-2.8291,-2.8291,-2.8291,-2.8291,-2.8291,-2.8291,0.0,-2.8291,-2.8291,-2.8291,-2.8291,-2.8291,-2.8291,-2.8291,-2.8291,-2.8291,0.0,0.0,0.0,0.0,0.0,0.0,0.0,-0.7081,-0.6326,-0.4127,-0.1632,-0.0,-0.0,-0.0,-0.0,-0.0,0.0,0.0,0.0,0.0,0.0,0.0,0.0,0.0,-0.0,-0.0,-0.0,-0.0,-0.477,-0.7061,-0.7087,-0.4865,-0.4746,-0.6354,-0.6508,-0.65,0.0,0.0,0.0,0.0,0.0,0.0,0.0,0.0,0.0,0.0,0.0,0.0,0.0,0.0,0.0,0.0,0.0,0.0,0.0,0.0,0.0,0.0,0.0,-1.6963,-1.829,-1.8599,-1.8948,-1.9346,-1.9801,-1.9321,0.0,-2.1105,-2.0808,-2.0812,-2.3114,-2.3275,-2.3371,-2.4267,-2.5284,-2.5904,-2.5938,-2.8268,-3.0786,-3.292,-3.4135,-3.4813,-3.4726,-3.5717,-3.6584,-3.7149,-3.6671,-3.6596,-3.7149,-3.5466,-3.5078,-3.6358,-3.3836,-3.1825,-3.0421,-3.0421,-2.9713,-2.8291,-2.8291,-2.8291,-2.8291,-2.8291,-2.8291,0.0,-2.8291,0.0,0.0,-2.8291,-2.8291,-2.8291,-2.8291,-2.8291,-2.8291,-2.8291,-2.8291,-2.8291,0.0,0.0,0.0,0.0,0.0,0.0,0.0,0.0,0.0,0.0,-0.2612,-0.0,-0.0,-0.0,-0.0,0.0,0.0,0.0,0.0,0.0,0.0,0.0,0.0,0.0,-0.0,-0.0,-0.0,-0.0,-0.477,-0.7061,-0.709,-0.635,-0.6192,-0.6512,-0.6491,-0.6479,0.0,0.0,0.0,0.0,0.0,0.0,0.0,0.0,0.0,0.0,-1.0903,-1.1556,0.0,0.0,0.0,0.0,0.0,0.0,0.0,0.0,-1.7148,-1.7232,-1.7413,0.0,-1.7724,-1.8066,-1.8479,-1.9021,0.0,-2.041,-2.1104,-2.2325,-2.2582,-2.2977,-2.391,-2.4688,-2.5171,-2.5419,-2.6288,-2.705,-2.7528,-3.0323,-3.2673,-3.3621,-3.5052,-3.5642,-3.4801,-3.5717,-3.6584,-3.7149,-3.6671,-3.6596,-3.7149,-3.636,-3.6061,-3.6358,-3.4763,-3.3254,-3.1825,-3.1825,-3.0618,-2.8291,-2.8291,-2.8291,-2.8291,-2.8291,-2.8291,-2.8291,-2.8291,0.0,-2.8291,-2.8291,-2.8291,-2.8291,-2.8291,-2.8291,-2.8291,-2.8291,-2.8291,-2.8291,0.0,0.0,0.0,0.0,0.0,0.0,0.0,0.0,0.0,0.0,0.0,-0.0,-0.0,-0.0,0.0,0.0,0.0,0.0,0.0,0.0,0.0,0.0,0.0,-0.0,-0.0,-0.0,-0.1078,-0.3235,-0.4759,-0.6074,-0.7082,-0.696,-0.683,-0.6695,-0.6542,-0.6706,0.0,0.0,0.0,0.0,-1.0568,0.0,0.0,0.0,0.0,0.0,-1.1914,-1.2617,0.0,-1.4213,-1.4875,-1.5615,0.0,0.0,0.0,0.0,-1.7519,-1.7715,-1.7949,-1.7988,-1.8018,-1.8242,-1.8623,-1.9261,-2.0438,-2.1071,-2.1857,-2.353,-2.3636,-2.3965,-2.5439,-2.5944,-2.6372,-2.7115,-2.7939,-2.8687,-2.9536,-3.1183,-3.2792,-3.4123,-3.5064,-3.5579,-3.5479,-3.6019,-3.6584,-3.7149,-3.6671,-3.6596,-3.7149,-3.6659,-3.6156,-3.5463,-3.4787,-3.3761,-3.2331,-3.1735,-3.0317,-2.8291,-2.8291,-2.8291,-2.8291,-2.8291,-2.8291,-2.8291,-2.8291,0.0,-2.8291,-2.8291,-2.8291,-2.8291,-2.8291,-2.8291,-2.8291,-2.8291,-2.8291,-2.8291,0.0,0.0,0.0,0.0,0.0,0.0,0.0,0.0,0.0,0.0,0.0,0.0,0.0,0.0,0.0,0.0,0.0,0.0,0.0,0.0,0.0,0.0,0.0,-0.0,-0.0,-0.072,-0.3056,-0.7135,-0.5107,-0.5186,-0.7084,-0.7061,-0.7065,-0.6915,-0.677,-0.7107,0.0,0.0,-1.004,-1.0864,-1.1922,0.0,0.0,0.0,0.0,0.0,0.0,0.0,0.0,-1.5811,-1.6044,-1.6095,-1.7147,0.0,0.0,0.0,0.0,0.0,-1.8008,-1.8408,-1.8799,-1.8601,-1.9014,-1.9756,-2.1272,-2.17,-2.2371,-2.4767,-2.4552,-2.4632,-2.6884,-2.7029,-2.7245,-2.8675,-2.9553,-3.0444,-3.1612,-3.1851,-3.2604,-3.45,-3.4864,-3.5278,-3.6031,-3.627,-3.6558,-3.7023,-3.6621,-3.6571,-3.7036,-3.6621,-3.587,-3.4775,-3.4276,-3.3464,-3.2331,-3.0916,-2.9577,-2.8193,-2.8193,-2.8174,-2.8144,-2.8232,-2.8165,-2.8165,0.0,0.0,-2.8291,-2.8291,-2.8291,-2.8291,-2.8291,-2.8291,-2.8291,-2.8291,-2.8291,-2.8291,0.0,0.0,0.0,0.0,0.0,0.0,0.0,0.0,0.0,0.0,0.0,0.0,0.0,0.0,0.0,0.0,0.0,0.0,0.0,0.0,0.0,-0.0,-0.0,-0.0,-0.0,-0.3989,-0.6403,-0.7135,-0.6739,-0.6723,-0.7084,-0.7061,-0.7065,-0.6915,-0.7492,-0.7874,-0.8073,-0.9813,-1.064,-1.0864,-1.1922,0.0,0.0,0.0,0.0,0.0,0.0,0.0,0.0,-1.645,-1.6999,-1.7678,-1.7823,0.0,0.0,0.0,0.0,0.0,-1.8008,-1.8848,-1.9541,-1.8818,-1.9228,-2.0336,-2.2204,-2.2895,-2.3788,-2.5849,-2.6164,-2.6325,-2.711,-2.7576,-2.8125,-2.8762,-3.0181,-3.17,-3.3294,-3.3922,-3.4336,-3.4675,-3.5542,-3.5805,-3.5052,-3.5818,-3.6395,-3.6483,-3.6408,-3.6395,-3.6483,-3.6408,-3.6263,-3.6061,-3.3848,-3.2532,-3.2331,-3.0916,-2.9423,-2.7764,-2.7764,-2.7552,-2.7168,-2.7632,-2.7737,-2.7854,0.0,-2.8291,-2.8291,-2.8291,-2.8291,-2.8291,-2.8291,-2.8291,-2.8291,-2.8291,-2.8291,-2.8291,0.0,0.0,0.0,0.0,0.0,0.0,0.0,0.0,0.0,0.0,0.0,0.0,0.0,0.0,0.0,0.0,0.0,0.0,0.0,0.0,0.0,-0.0,-0.0,-0.0,-0.0,-0.4953,-0.7472,-0.7362,-0.7428,-0.737,-0.7278,-0.7183,-0.7407,-0.7847,-0.8263,-0.9022,-1.0031,-1.0952,-1.152,-1.1998,0.0,0.0,0.0,0.0,0.0,0.0,0.0,0.0,0.0,0.0,-1.7647,-1.8008,-1.8008,0.0,0.0,0.0,0.0,0.0,-1.835,-1.9121,-1.9873,-1.9717,-2.0332,-2.1595,-2.3931,-2.413,-2.4436,-2.6528,-2.6904,-2.708,-2.762,-2.8436,-2.939,-3.052,-3.1336,-3.2215,-3.3307,-3.3671,-3.406,-3.465,-3.5165,-3.5504,-3.5604,-3.6069,-3.6358,-3.6358,-3.6358,-3.6358,-3.6358,-3.6358,-3.6061,-3.5367,-3.3342,-3.1805,-3.0857,-2.9559,-2.8461,-2.7666,-2.7432,-2.7211,-2.7014,-2.7263,-2.7439,-2.7718,0.0,-2.8135,-2.8291,-2.8291,-2.8291,-2.8291,-2.8291,-2.8291,-2.8291,-2.8291,-2.8291,-2.8291,0.0,0.0,0.0,0.0,0.0,0.0,0.0,0.0,0.0,0.0,0.0,0.0,0.0,0.0,0.0,0.0,0.0,0.0,0.0,0.0,-0.0,-0.0,-0.0,-0.0579,-0.1824,-0.5267,-0.7276,-0.7645,-0.7624,-0.7622,-0.7366,-0.7513,-0.7979,-0.8756,-0.9212,-1.0269,-1.1745,-1.1932,-1.2497,-1.33,0.0,0.0,0.0,0.0,0.0,0.0,0.0,0.0,0.0,0.0,0.0,0.0,0.0,0.0,0.0,-1.8008,-1.8242,-1.8516,-1.8533,-1.9268,-2.0066,-2.0629,-2.1382,-2.2541,-2.5061,-2.5084,-2.5147,-2.7234,-2.7557,-2.7645,-2.8197,-2.9114,-3.0331,-3.1951,-3.2428,-3.2855,-3.3558,-3.3759,-3.4161,-3.5002,-3.5102,-3.5441,-3.6282,-3.6358,-3.6358,-3.6358,-3.6358,-3.6358,-3.6358,-3.6061,-3.5414,-3.4304,-3.2574,-3.1037,-2.9589,-2.8104,-2.7363,-2.7363,-2.7051,-2.6812,-2.6739,-2.6816,-2.707,-2.7428,-2.7545,-2.7718,-2.8009,-2.8135,-2.8155,-2.8155,-2.8281,-2.8291,-2.8291,-2.8291,-2.8291,-2.8291,0.0,0.0,0.0,0.0,0.0,0.0,0.0,0.0,0.0,0.0,0.0,0.0,0.0,0.0,0.0,0.0,0.0,0.0,0.0,0.0,-0.0,-0.0,-0.0,-0.2294,-0.7287,-0.5384,-0.5419,-0.7715,-0.7607,-0.7522,-0.7461,-0.843,-0.8949,-0.8948,-1.0879,-1.1769,-1.1905,-1.2747,-1.3724,-1.4687,-1.4764,0.0,0.0,0.0,0.0,0.0,0.0,0.0,0.0,0.0,0.0,0.0,0.0,0.0,-1.8008,-1.8008,-1.8037,-1.8135,-1.8525,-1.9268,-2.0137,-2.1114,-2.1701,-2.2495,-2.4581,-2.5414,-2.6248,-2.8363,-2.8398,-2.821,-2.8762,-2.9377,-3.0331,-3.1951,-3.3093,-3.4148,-3.5215,-3.5805,-3.6157,-3.6232,-3.6245,-3.627,-3.6358,-3.6358,-3.6358,-3.6358,-3.6358,-3.6358,-3.6358,-3.5174,-3.4257,-3.3768,-3.1274,-2.9669,-2.9105,-2.7342,-2.6484,-2.6484,-2.6433,-2.6209,-2.5859,-2.6241,-2.6418,-2.6537,-2.6902,-2.7031,-2.7157,-2.7573,-2.7728,-2.7737,-2.8145,-2.8291,-2.8291,-2.8291,-2.8291,-2.8291,0.0,0.0,0.0,0.0,0.0,0.0,0.0,0.0,0.0,0.0,0.0,0.0,0.0,0.0,0.0,0.0,0.0,0.0,0.0,-0.0,-0.0,-0.0,-0.0,-0.2516,-0.7839,-0.7054,-0.6914,-0.7902,-0.7787,-0.7655,-0.7509,-0.7865,-0.8706,-1.0005,-1.0781,-1.1934,-1.3304,-1.3629,-1.4279,-1.5181,-1.5725,-1.675,0.0,0.0,0.0,0.0,0.0,0.0,0.0,0.0,-1.9072,-1.8828,-1.8994,-1.8936,-1.8809,-1.8809,-1.8994,-1.9228,-1.9385,-2.0068,-2.0811,-2.1191,-2.2352,-2.3928,-2.6097,-2.6641,-2.7248,-2.906,-2.9566,-2.9829,-3.0369,-3.0633,-3.1336,-3.2993,-3.3909,-3.4801,-3.5893,-3.6232,-3.6358,-3.6358,-3.6358,-3.6358,-3.6358,-3.6358,-3.6358,-3.6358,-3.6044,-3.555,-3.4771,-3.4174,-3.3394,-3.2517,-3.0632,-2.9425,-2.9052,-2.7262,-2.625,-2.5986,-2.5917,-2.583,-2.5742,-2.5879,-2.6132,-2.6426,-2.6565,-2.6728,-2.6989,-2.7231,-2.7467,-2.7728,-2.8145,-2.8291,-2.8291,-2.8291,-2.8291,-2.8291,0.0,0.0,0.0,0.0,0.0,0.0,0.0,0.0,0.0,0.0,0.0,0.0,0.0,0.0,0.0,0.0,0.0,0.0,-0.0,-0.0,-0.0,-0.0,-0.0,-0.2524,-0.7922,-0.7178,-0.7163,-0.7972,-0.7946,-0.7787,-0.7597,-0.8362,-0.9474,-1.0804,-1.15,-1.2727,-1.4215,-1.4128,-1.4615,-1.5529,-1.6477,-1.7441,0.0,0.0,0.0,0.0,0.0,0.0,0.0,0.0,-1.9512,-1.9307,-1.9443,-1.9394,-1.9287,-1.9287,-1.9492,-1.9746,-1.9883,-2.0361,-2.0889,-2.1162,-2.2439,-2.4282,-2.6451,-2.7392,-2.8334,-3.0161,-3.0859,-3.1173,-3.1348,-3.1386,-3.1938,-3.3621,-3.4361,-3.5102,-3.6207,-3.6358,-3.6358,-3.6358,-3.6358,-3.6358,-3.6358,-3.6358,-3.6282,-3.6119,-3.5369,-3.4499,-3.354,-3.2553,-3.1592,-3.0678,-2.9316,-2.8407,-2.7945,-2.6794,-2.6035,-2.5742,-2.5742,-2.5742,-2.5742,-2.5742,-2.5879,-2.6152,-2.6152,-2.6386,-2.6553,-2.6788,-2.7072,-2.7486,-2.7727,-2.7978,-2.8096,-2.8096,-2.8174,-2.8291,0.0,0.0,0.0,0.0,0.0,0.0,0.0,0.0,0.0,0.0,0.0,0.0,0.0,0.0,0.0,0.0,0.0,0.0,-0.0,-0.0,-0.0,-0.0,-0.0,-0.2524,-0.7818,-0.534,-0.5327,-0.7972,-0.7949,-0.7885,-0.7695,-1.0279,-1.1364,-1.1216,-1.3448,-1.4522,-1.4502,-1.4215,-1.4734,-1.5779,-1.6846,-1.7997,-1.9125,0.0,0.0,0.0,0.0,0.0,0.0,0.0,-2.0,-1.9375,-1.9785,-1.9639,-1.9297,-1.9297,-1.9297,-1.9394,-1.9805,-1.9922,-2.0137,-2.1016,-2.1987,-2.3223,-2.5135,-2.7325,-2.9489,-3.1763,-3.2215,-3.2051,-3.1512,-3.1411,-3.1951,-3.3633,-3.4361,-3.5102,-3.6207,-3.6358,-3.6358,-3.6358,-3.6358,-3.6358,-3.6358,-3.6345,-3.6119,-3.5487,-3.436,-3.3446,-3.2933,-3.0392,-2.8831,-2.8389,-2.7051,-2.6182,-2.5752,-2.5742,-2.5742,-2.5732,-2.5742,-2.5742,-2.5742,-2.5742,-2.5742,-2.5742,-2.5742,-2.5742,-2.5752,-2.6259,-2.6606,-2.6991,-2.7025,-2.7275,-2.7656,-2.7666,-2.793,-2.8281,0.0,0.0,0.0,0.0,0.0,0.0,0.0,0.0,0.0,0.0,0.0,0.0,0.0,0.0,0.0,0.0,0.0,0.0,-0.0,-0.0,-0.0,-0.0,-0.0,-0.1616,-0.5065,-0.6263,-0.7108,-0.7889,-0.7882,-0.7784,-0.76,-0.9303,-1.0468,-1.1273,-1.2913,-1.3901,-1.4509,-1.4429,-1.5346,-1.687,-1.7532,-1.8883,-2.0656,0.0,0.0,0.0,0.0,0.0,0.0,0.0,0.0,0.0,-2.0332,-2.0283,-2.0185,-2.0185,-2.0185,-2.0215,-2.0332,-2.0605,-2.0908,-2.1172,-2.2393,-2.3865,-2.4798,-2.6202,-2.8058,-3.1026,-3.2278,-3.2893,-3.3119,-3.283,-3.2993,-3.4274,-3.4613,-3.5102,-3.6207,-3.6358,-3.6358,-3.6358,-3.6031,-3.5793,-3.5793,-3.4649,-3.3877,-3.372,-3.2113,-3.0801,-2.9811,-2.8946,-2.8028,-2.7051,-2.6576,-2.6357,-2.619,-2.582,-2.5606,-2.5246,-2.5606,-2.5742,-2.5742,-2.5742,-2.5742,-2.5742,-2.5742,-2.5742,-2.5752,-2.6259,-2.6468,-2.6592,-2.6894,-2.709,-2.7246,-2.7559,-2.7744,-2.7891,0.0,0.0,0.0,0.0,0.0,0.0,0.0,0.0,0.0,0.0,-0.0,0.0,0.0,0.0,0.0,0.0,0.0,0.0,0.0,-0.0,-0.0,-0.0,-0.2022,-0.3438,-0.4036,-0.6662,-0.7895,-0.7811,-0.7811,-0.7767,-0.7685,-0.9545,-1.0753,-1.1507,-1.3273,-1.4327,-1.4689,-1.4569,-1.5169,-1.6255,-1.7546,-1.8815,-2.0237,0.0,0.0,0.0,0.0,0.0,0.0,0.0,0.0,0.0,-2.0566,-2.0566,-2.0566,-2.0566,-2.0693,-2.083,-2.083,-2.1152,-2.1533,-2.1699,-2.2655,-2.3825,-2.4523,-2.629,-2.844,-3.0453,-3.1812,-3.2818,-3.3359,-3.3034,-3.3244,-3.4801,-3.4675,-3.467,-3.5482,-3.5886,-3.5831,-3.5334,-3.5357,-3.5269,-3.4558,-3.3486,-3.2628,-3.1844,-3.0409,-2.9029,-2.8105,-2.7528,-2.6868,-2.6133,-2.6133,-2.6152,-2.6112,-2.58,-2.5489,-2.5101,-2.5317,-2.5336,-2.5227,-2.5499,-2.5742,-2.5742,-2.5742,-2.5742,-2.5742,-2.6005,-2.6084,-2.6131,-2.6426,-2.6621,-2.6797,-2.706,-2.7266,-2.7441,0.0,0.0,0.0,0.0,0.0,0.0,0.0,0.0,0.0,0.0,-0.0,-0.0,0.0,0.0,0.0,0.0,0.0,0.0,0.0,0.0,-0.0202,-0.0707,-0.5376,-0.6897,-0.442,-0.6748,-0.7895,-0.7831,-0.7818,-0.7907,-0.8,-1.0568,-1.1806,-1.2015,-1.4384,-1.5257,-1.495,-1.4703,-1.4569,-1.4856,-1.7024,-1.8176,-1.8818,-2.1025,0.0,0.0,0.0,0.0,0.0,0.0,0.0,0.0,-2.0684,-2.0654,-2.0625,-2.0625,-2.0918,-2.123,-2.123,-2.1553,-2.1992,-2.2461,-2.2949,-2.3525,-2.4355,-2.7212,-2.9747,-2.9842,-3.1009,-3.2153,-3.257,-3.2442,-3.2957,-3.4748,-3.4304,-3.3781,-3.4029,-3.4805,-3.478,-3.3601,-3.445,-3.4521,-3.2978,-3.2604,-3.1693,-3.0045,-2.8838,-2.7923,-2.7369,-2.6274,-2.5723,-2.5674,-2.5606,-2.5616,-2.5606,-2.5606,-2.5363,-2.4965,-2.4977,-2.4826,-2.4371,-2.5169,-2.5606,-2.5606,-2.5625,-2.5625,-2.5625,-2.5635,-2.5742,-2.5742,-2.5742,-2.5977,-2.6338,-2.6377,-2.6631,-2.6963,0.0,0.0,0.0,0.0,0.0,0.0,0.0,0.0,0.0,0.0,0.0,0.0,0.0,0.0,0.0,0.0,0.0,0.0,0.0,0.0,-0.1921,-0.6095,-0.7418,-0.7704,-0.7156,-0.7666,-0.7945,-0.7991,-0.7872,-0.8383,-0.9431,-1.0944,-1.2368,-1.3504,-1.5057,-1.5444,-1.4977,-1.5137,-1.5459,-1.5806,-1.6919,-1.849,-2.027,-2.1107,-2.1844,0.0,0.0,0.0,0.0,0.0,0.0,0.0,-2.1602,-2.1367,-2.1094,-2.1094,-2.1152,-2.123,-2.123,-2.1553,-2.207,-2.2812,-2.3838,-2.4795,-2.5332,-2.6309,-2.7513,-2.855,-3.0838,-3.2512,-3.2048,-3.2839,-3.3177,-3.2147,-3.2251,-3.2293,-3.1773,-3.2759,-3.3356,-3.3064,-3.2903,-3.2695,-3.2301,-3.0154,-2.8427,-2.7676,-2.6788,-2.6051,-2.569,-2.5633,-2.5576,-2.5225,-2.5189,-2.5091,-2.4714,-2.4714,-2.4472,0.0,-2.4364,-2.4303,-2.3988,-2.4488,-2.4714,-2.4714,-2.5101,-2.5237,-2.5237,-2.5606,-2.5742,-2.5742,-2.5742,-2.5791,-2.5918,-2.626,-2.6445,-2.6572,0.0,0.0,0.0,0.0,0.0,0.0,0.0,0.0,0.0,0.0,0.0,0.0,0.0,0.0,0.0,0.0,0.0,0.0,0.0,0.0,-0.5067,-0.7837,-0.8016,-0.7992,-0.7972,-0.7962,-0.7952,-0.8038,-0.796,-0.8597,-0.9947,-1.1086,-1.249,-1.3974,-1.5242,-1.5585,-1.5177,-1.5331,-1.5568,-1.591,-1.7474,-1.8962,-2.0305,-2.1682,-2.2446,-2.2812,-2.2812,0.0,0.0,0.0,0.0,0.0,0.0,0.0,-2.1553,-2.1553,-2.1689,-2.1846,-2.1846,-2.2158,-2.2695,-2.3535,-2.4414,-2.5185,-2.5635,-2.5918,-2.632,-2.7296,-2.9117,-3.0588,-3.0395,-3.1121,-3.1616,-3.1038,-3.0926,-3.0616,-3.0099,-3.0959,-3.1389,-3.0717,-3.096,-3.0894,-3.0018,-2.8347,-2.6869,-2.6083,-2.5456,-2.501,-2.4775,-2.498,-2.5,-2.4766,-2.4755,-2.4641,-2.4374,-2.439,-2.4192,-2.3773,-2.4049,-2.3867,-2.3525,-2.4102,-2.439,-2.439,-2.4643,-2.4746,-2.4764,-2.5264,-2.5381,-2.5439,-2.5654,-2.5742,-2.5762,-2.5986,-2.6074,-2.6103,0.0,0.0,0.0,0.0,0.0,0.0,0.0,0.0,0.0,0.0,0.0,0.0,0.0,0.0,0.0,0.0,0.0,0.0,0.0,0.0,0.0,-0.8019,-0.7989,-0.7972,-0.7969,-0.8048,-0.8038,-0.8038,-0.8038,-0.8825,-1.0386,-1.1274,-1.2623,-1.4262,-1.5337,-1.5665,-1.5398,-1.5451,-1.5444,-1.5582,-1.7689,-1.8781,-1.9405,-2.1676,-2.2589,-2.2862,-2.3047,-2.292,-2.2617,-2.2617,0.0,0.0,0.0,0.0,-2.1992,-2.1992,-2.2236,-2.251,-2.251,-2.2871,-2.3437,-2.4219,-2.4746,-2.5185,-2.5635,-2.5742,-2.584,-2.6201,-2.7215,-2.8185,-2.8458,-2.8986,-2.9583,-3.0006,-2.957,-2.8953,-2.8509,-2.9234,-2.9365,-2.8242,-2.9081,-2.9179,-2.761,-2.6931,-2.6094,-2.4947,-2.458,-2.4385,-2.4316,-2.4375,-2.4385,-2.4307,-2.4272,-2.4243,-2.4199,-2.4183,-2.397,-2.372,-2.372,-2.3495,-2.3144,-2.3857,-2.42,-2.42,-2.423,-2.4316,-2.4365,-2.48,-2.4987,-2.5,-2.5449,-2.5625,-2.5635,-2.5713,-2.5742,-2.5742,0.0,0.0,0.0,0.0,0.0,0.0,0.0,0.0,0.0,0.0,-0.0,-0.0,0.0,0.0,0.0,0.0,0.0,0.0,-0.0,0.0,0.0,-0.7995,-0.7982,-0.7965,-0.8045,-0.8041,-0.8038,-0.8038,-0.8038,-0.9213,-1.1653,-1.1818,-1.3177,-1.5534,-1.573,-1.5665,-1.5418,-1.5665,-1.5625,-1.5418,-1.6033,-1.6901,-1.8048,-1.9497,-2.0666,-2.1658,-2.2677,-2.3105,-2.3057,-2.3057,-2.3018,0.0,0.0,0.0,-2.2432,-2.2432,-2.2471,-2.251,-2.251,-2.3096,-2.3818,-2.4297,-2.4746,-2.5185,-2.5635,-2.5742,-2.5752,-2.581,-2.6845,-2.7448,-2.6864,-2.8211,-2.8713,-2.6724,-2.7197,-2.7441,-2.6259,-2.7153,-2.7862,-2.7673,-2.7862,-2.7683,-2.7033,-2.602,-2.4943,-2.4014,-2.4238,-2.4258,-2.3896,-2.4219,-2.4248,-2.3887,-2.3895,-2.364,-2.332,-2.331,-2.3261,-2.3164,-2.3164,-2.3154,-2.3135,-2.3251,-2.3271,-2.3281,-2.373,-2.3861,-2.3861,-2.4355,-2.4492,-2.4551,-2.499,-2.5156,-2.5205,-2.5596,-2.5742,-2.5742,0.0,0.0,0.0,0.0,0.0,0.0,0.0,0.0,0.0,0.0,0.0,-0.0,0.0,0.0,0.0,-0.0,-0.2731,-0.4455,-0.4448,-0.6673,-0.7992,-0.7982,-0.7962,-0.8048,-0.8038,-0.8038,-0.8038,-0.8038,-0.8726,-1.0092,-1.195,-1.2624,-1.398,-1.5832,-1.5832,-1.5758,-1.5651,-1.5772,-1.5758,-1.5745,-1.6518,-1.7225,-1.787,-1.9039,-2.0215,-2.1382,-2.1933,-2.2501,-2.3135,-2.3135,-2.3135,-2.3135,-2.3135,0.0,0.0,0.0,-2.2861,-2.2861,-2.2861,-2.332,-2.3838,-2.4014,-2.457,-2.5117,-2.5322,-2.5557,-2.5742,-2.5742,-2.611,-2.645,-2.6084,-2.6693,-2.6935,-2.5927,-2.6197,-2.639,-2.5732,-2.6197,-2.6572,-2.6572,-2.634,-2.6108,-2.5906,-2.499,-2.4199,-2.3818,-2.374,-2.3623,-2.3437,-2.3603,-2.3613,-2.3428,-2.3386,-2.3299,-2.3144,-2.3135,-2.3135,-2.3135,-2.3135,-2.3135,-2.3135,-2.3135,-2.3135,-2.3144,-2.3281,-2.3408,-2.3446,-2.3906,-2.4062,-2.4131,-2.4805,-2.5068,-2.5127,-2.5566,-2.5742,-2.5742,0.0,0.0,0.0,0.0,0.0,0.0,0.0,0.0,0.0,0.0,0.0,0.0,0.0,0.0,0.0,0.0,-0.5682,-0.8039,-0.8019,-0.7989,-0.7972,-0.7972,-0.7952,-0.8038,-0.8038,-0.8038,-0.8137,-0.8528,-0.9509,-1.0877,-1.2431,-1.3392,-1.4561,-1.5832,-1.5832,-1.5832,-1.5832,-1.5832,-1.5832,-1.5927,-1.685,-1.7225,-1.7311,-1.8588,-1.9579,-2.0486,-2.1114,-2.1845,-2.2677,-2.296,-2.3135,-2.3135,-2.3135,-2.3135,0.0,0.0,0.0,-2.3135,-2.3135,-2.3379,-2.3652,-2.376,-2.4268,-2.4805,-2.5019,-2.5322,-2.5596,-2.5713,-2.5742,-2.5742,-2.5742,-2.5742,-2.5742,-2.5742,-2.5742,-2.5742,-2.5742,-2.5742,-2.5693,-2.5586,-2.5273,-2.498,-2.4766,-2.417,-2.374,-2.3633,-2.332,-2.3135,-2.3135,-2.3135,-2.3135,-2.3135,-2.3135,-2.3135,-2.3135,-2.3135,-2.3135,-2.3135,-2.3135,-2.3135,-2.3135,-2.3135,-2.3135,-2.3135,-2.3135,-2.3135,-2.3164,-2.3486,-2.3623,-2.3701,-2.4453,-2.4814,-2.4961,-2.54,-2.5635,-2.5742,0.0,0.0,0.0,0.0,0.0,0.0,0.0,0.0,0.0,0.0,0.0,0.0,-0.0,-0.0,-0.2022,-0.7128,-0.7831,-0.8016,-0.7995,-0.7979,-0.7972,-0.7972,-0.7952,0.0,-0.8038,-0.8038,-0.8627,-0.9903,-0.9998,-1.1258,-1.3776,-1.3878,-1.4561,-1.5832,-1.5832,-1.5832,-1.5832,-1.5832,-1.5832,-1.5832,-1.5825,-1.592,-1.6015,-1.7318,-1.787,-1.8234,-2.0486,-2.1382,-2.1569,-2.2677,-2.3135,-2.3135,-2.3135,-2.3135,-2.3135,0.0,0.0,0.0,-2.3135,-2.3154,-2.3271,-2.3691,-2.3828,-2.4072,-2.4883,-2.5088,-2.5225,-2.5644,-2.5742,-2.5742,-2.5742,-2.5742,-2.5742,-2.5742,-2.5742,-2.5742,-2.5742,-2.5742,-2.5586,-2.5156,-2.5088,-2.4746,-2.3935,-2.3818,-2.3623,-2.3203,-2.3154,-2.3135,-2.3135,-2.3135,-2.3135,-2.3135,-2.3135,-2.3135,-2.3135,-2.3135,-2.3135,-2.3135,-2.3135,-2.3135,-2.3135,-2.3135,-2.3135,-2.3135,-2.3135,-2.3135,-2.3135,-2.3164,-2.3174,-2.3213,-2.3682,-2.4102,-2.4502,-2.4941,-2.5371,-2.5742,0.0,0.0,0.0,0.0,0.0,0.0,0.0,0.0,0.0,0.0,0.0,0.0,0.0,-0.3035,-0.5886,-0.7831,-0.8009,-0.7989,-0.7979,-0.7962,-0.7952,-0.7952,-0.8045,-0.8038,-0.8038,-0.8038,-0.8233,-0.8726,-1.0386,-1.1653,-1.2619,-1.4364,-1.5343,-1.5832,-1.5832,-1.5832,-1.5832,-1.5832,-1.5832,-1.5832,-1.5832,-1.5832,-1.5825,-1.6298,-1.6943,-1.7777,-1.868,-1.9497,-2.0305,-2.1578,-2.1933,-2.212,-2.2862,-2.3135,-2.3135,-2.3135,-2.3135,-2.3135,-2.3135,-2.3135,-2.3174,-2.333,-2.3584,-2.3867,-2.418,-2.4453,-2.4775,-2.5215,-2.5303,-2.54,-2.5684,-2.5742,-2.5742,-2.5742,-2.5742,-2.5742,-2.5742,-2.5488,-2.5244,-2.5088,-2.458,-2.4131,-2.3818,-2.3535,-2.3301,-2.3154,-2.3135,-2.3135,-2.3135,-2.3135,-2.3135,-2.3135,-2.3135,-2.3135,-2.3135,-2.3135,-2.3135,-2.3135,-2.3135,-2.3135,-2.3135,-2.3135,-2.3135,-2.3135,-2.3135,-2.3135,-2.3135,-2.3135,-2.3135,-2.3213,-2.3916,-2.4287,-2.4502,-2.5234,-2.5596,-2.5742,0.0,0.0,0.0,0.0,0.0,0.0,0.0,0.0,0.0,-0.0,0.0,0.0,0.0,0.0,-0.8036,-0.8009,-0.7985,-0.7969,-0.7962,-0.8048,-0.8038,-0.8038,-0.8038,-0.8038,-0.8038,-0.8038,-0.8432,-0.9312,-1.1068,-1.2334,-1.321,-1.4956,-1.5832,-1.5832,-1.5832,-1.5832,-1.5832,-1.5832,-1.5832,-1.5832,-1.5832,-1.5885,-1.5979,-1.5979,-1.6512,-1.7435,-1.7705,-1.831,-1.9201,-2.0348,-2.0666,-2.0935,-2.2129,-2.2765,-2.3135,-2.3135,-2.3135,-2.3135,-2.3135,-2.3135,-2.3135,-2.3135,-2.3359,-2.3613,-2.375,-2.4004,-2.4326,-2.4756,-2.4853,-2.4941,-2.5234,-2.5293,-2.5342,-2.5488,-2.5518,-2.5459,-2.5312,-2.5003,-2.4798,-2.4717,-2.4189,-2.3779,-2.3584,-2.331,-2.3135,-2.3135,-2.3135,0.0,-2.3135,-2.3135,-2.3135,-2.3135,-2.3135,-2.3135,-2.3135,-2.3135,-2.3135,-2.3135,-2.3135,-2.3135,-2.3135,-2.3135,-2.3135,-2.3135,-2.3135,-2.3135,-2.3135,-2.3135,-2.3135,-2.3213,-2.3926,-2.4287,-2.4502,-2.5244,-2.5605,-2.5742,0.0,0.0,0.0,0.0,0.0,0.0,0.0,0.0,-0.0,-0.0,0.0,0.0,0.0,0.0,0.0,-0.7975,-0.7972,-0.7962,-0.8041,-0.8038,-0.8038,-0.8038,-0.8038,-0.8038,-0.8038,-0.8038,-0.9213,-1.175,-1.1848,-1.3204,-1.573,-1.573,-1.5832,-1.5832,-1.5838,-1.5845,-1.5838,-1.5832,-1.5832,-1.5838,-1.5832,-1.6005,-1.6259,-1.6259,-1.6433,-1.6839,-1.7703,-1.8059,-1.8198,-1.9152,-1.9405,-1.9695,-2.0962,-2.2157,-2.3154,-2.3154,-2.3154,-2.3135,0.0,0.0,0.0,-2.3135,-2.3135,-2.3252,-2.3672,-2.3769,-2.3887,-2.4316,-2.4394,-2.4404,-2.4414,-2.4414,-2.4551,-2.4961,-2.5039,-2.4902,-2.4473,-2.4413,-2.4262,-2.3842,-2.3764,-2.3641,-2.3096,-2.3135,-2.3135,-2.3135,-2.3135,-2.3135,-2.3135,-2.3135,-2.3135,-2.3135,-2.3135,-2.3135,-2.3135,-2.3135,-2.3135,-2.3135,-2.3135,-2.3135,-2.3135,-2.3135,-2.3135,-2.3135,-2.3135,-2.3135,-2.3135,-2.3135,-2.3135,-2.3184,-2.3633,-2.4053,-2.4463,-2.4922,-2.5361,-2.5742,0.0,0.0,0.0,0.0,0.0,-0.0,-0.0,-0.0,-0.0,0.0,0.0,0.0,-0.7831,-0.8006,-0.7982,-0.7972,-0.7959,-0.8045,-0.8038,-0.8038,-0.8038,-0.8038,-0.8038,-0.8038,-0.8038,-0.8038,-0.8333,-0.9114,-1.0974,-1.2237,-1.3011,-1.4956,-1.5832,-1.5838,-1.6052,-1.6152,-1.6139,-1.5919,-1.5952,-1.6132,-1.5912,-1.5879,-1.5952,-1.5952,-1.5999,-1.6059,-1.6354,-1.6415,-1.6592,-1.78,-1.8302,-1.891,-2.1325,-2.2822,-2.3613,-2.3613,-2.3389,-2.3135,-2.3135,0.0,0.0,0.0,0.0,0.0,-2.3291,-2.332,-2.3437,-2.3877,-2.3965,-2.4053,-2.4365,-2.4414,-2.4355,-2.417,-2.4394,-2.4551,-2.4434,-2.4117,-2.3913,-2.3857,-2.3466,-2.3222,-2.3067,-2.3135,-2.3135,0.0,-2.3135,-2.3135,-2.3135,-2.3135,-2.3135,-2.3135,-2.3135,-2.3135,-2.3135,-2.3135,-2.3135,-2.3135,-2.3135,-2.3135,-2.3135,-2.3135,-2.3135,-2.3135,-2.3135,-2.3135,-2.3135,-2.3135,-2.3135,-2.3213,-2.3955,-2.431,-2.449,-2.5215,-2.5635,-2.5742,0.0,0.0,0.0,0.0,0.0,-0.0,-0.0,-0.0,-0.0,0.0,0.0,0.0,-0.8016,-0.8042,-0.8133,-0.7965,-0.8048,-0.8038,-0.8038,-0.8038,-0.8038,-0.8038,-0.8038,-0.8038,-0.8038,-0.8038,-0.8528,-0.9604,-1.1165,-1.2431,-1.3596,-1.5051,-1.5892,-1.6019,-1.6066,-1.6293,-1.66,-1.6059,-1.6072,-1.644,-1.6266,-1.6192,-1.6192,-1.6192,-1.6192,-1.6179,-1.6059,-1.6092,-1.6249,-1.6753,-1.7436,-1.8487,-2.0762,-2.2213,-2.3265,-2.3657,-2.373,-2.3633,-2.3457,-2.3535,-2.3623,-2.3457,0.0,0.0,-2.3184,-2.3135,-2.3213,-2.3467,-2.3516,-2.3594,-2.3838,-2.3887,-2.3799,-2.3555,-2.3721,-2.3887,-2.3887,-2.3672,-2.3516,-2.3516,-2.3291,-2.3135,-2.3135,-2.3135,-2.3135,-2.3135,-2.3135,-2.3135,-2.3135,-2.3135,-2.3135,-2.3135,-2.3135,-2.3135,-2.3135,-2.3135,-2.3135,-2.3135,-2.3135,-2.3135,-2.3135,-2.3135,-2.3135,-2.3135,-2.3135,-2.3135,-2.3135,-2.3135,-2.3135,-2.3203,-2.4058,-2.4384,-2.4549,-2.5371,-2.5742,-2.5742,0.0,0.0,-0.0,-0.0,-0.0,-0.0,-0.0,-0.0,-0.0,0.0,-0.4869,-0.8244,-0.8099,-0.8194,-0.8201,-0.8052,-0.8038,-0.8038,-0.8038,-0.8038,-0.8038,-0.8038,-0.8038,-0.8038,-0.8038,-0.8137,-0.941,-1.1658,-1.1945,-1.3318,-1.5681,-1.5783,-1.6039,-1.6306,-1.6046,-1.638,-1.7101,-1.6313,-1.6279,-1.6747,-1.6647,-1.6627,-1.6653,-1.662,-1.6607,-1.6573,-1.6313,-1.6393,-1.6533,-1.6046,-1.6901,-1.8369,-1.9557,-2.0985,-2.2393,-2.3448,-2.3939,-2.4084,-2.3945,-2.4131,-2.4326,-2.3955,-2.3857,0.0,-2.331,-2.3252,-2.3262,-2.3223,-2.3252,-2.3281,-2.3281,-2.3281,-2.3281,-2.3281,-2.3242,-2.3193,-2.3144,-2.3135,-2.3135,-2.3135,-2.3135,-2.3135,-2.3135,-2.3135,-2.3135,-2.3135,-2.3135,-2.3135,-2.3135,-2.3135,-2.3135,-2.3135,-2.3135,-2.3135,-2.3135,-2.3135,-2.3135,-2.3135,-2.3135,-2.3135,-2.3135,-2.3135,-2.3135,-2.3135,-2.3135,-2.3135,-2.3135,-2.3135,-2.3135,-2.3164,-2.4082,-2.4436,-2.4516,-2.5381,-2.5742,-2.5742,0.0,-0.0,-0.0,-0.0,-0.0,-0.0,-0.0,-0.0,-0.0,-0.0,-0.2847,-0.5847,-0.8196,-0.8192,-0.8075,-0.8041,-0.8038,-0.8038,-0.8038,-0.8038,-0.8038,-0.8038,-0.8038,-0.8038,-0.8038,-0.9019,-0.9899,-1.0386,-1.2522,-1.3881,-1.4582,-1.568,-1.6346,-1.662,-1.656,-1.676,-1.7141,-1.6967,-1.6961,-1.7001,-1.6286,-1.6146,-1.6333,-1.6092,-1.5999,-1.5992,-1.5939,-1.5952,-1.6019,-1.6146,-1.7077,-1.8356,-1.9178,-1.9878,-2.0891,-2.2595,-2.2859,-2.275,-2.3944,-2.4355,-2.4394,-2.4316,-2.4297,0.0,-2.376,-2.3926,-2.4072,-2.373,-2.3935,-2.417,-2.417,-2.417,-2.417,-2.417,-2.3877,-2.3545,-2.3184,-2.3135,-2.3135,-2.3135,-2.3135,-2.3135,-2.3135,-2.3135,-2.3135,-2.3135,-2.3135,-2.3135,-2.3135,-2.3135,-2.3135,-2.3135,-2.3135,-2.3135,-2.3135,-2.3135,-2.3135,-2.3135,-2.3135,-2.3135,-2.3135,-2.3135,-2.3135,-2.3135,-2.3135,-2.3135,-2.3135,-2.3135,-2.3135,-2.3164,-2.4082,-2.4429,-2.4545,-2.5415,-2.5742,-2.5742,-0.0,-0.0,-0.0,-0.0,-0.0,-0.0,-0.0,-0.0,-0.0931,-0.3597,-0.3985,-0.5095,-0.8086,-0.8337,-0.8262,-0.8262,-0.8194,-0.8153,-0.8153,-0.8082,-0.8038,-0.8038,-0.8038,-0.8075,-0.8153,-0.8851,-0.9742,-1.1118,-1.2397,-1.3837,-1.5262,-1.5973,-1.6426,-1.67,-1.6553,-1.6734,-1.7134,-1.6834,-1.6967,-1.7315,-1.672,-1.64,-1.6259,-1.6106,-1.5959,-1.5832,-1.5832,-1.5832,-1.5872,-1.6172,-1.6849,-1.7674,-1.8505,-1.9131,-1.9933,-2.1374,-2.1682,-2.1865,-2.3324,-2.3918,-2.4126,-2.4598,-2.4746,0.0,0.0,-2.4268,-2.4355,-2.4141,-2.4102,-2.4102,-2.4102,-2.4102,-2.4102,-2.4102,-2.3926,-2.375,-2.3732,-2.335,-2.3135,-2.3135,-2.3135,-2.3135,-2.3135,-2.3135,-2.3135,-2.3135,-2.3135,-2.3135,-2.3135,-2.3135,-2.3135,-2.3135,-2.3135,-2.3135,-2.3135,-2.3135,-2.3135,-2.3135,-2.3135,-2.3135,-2.3135,-2.3135,-2.3135,-2.3135,-2.3135,-2.3135,-2.3135,-2.3135,-2.3135,-2.3154,-2.3857,-2.4177,-2.4438,-2.5169,-2.5499,-2.5742,-0.0,-0.0,-0.0,-0.0,-0.0,-0.0,-0.0,-0.0926,-0.3099,-0.7449,-0.6159,-0.5681,-0.8077,-0.8381,-0.8465,-0.852,-0.8343,-0.8262,-0.835,-0.8184,-0.8082,-0.8082,-0.8109,-0.817,-0.8269,-0.8801,-1.0124,-1.2329,-1.2788,-1.419,-1.6359,-1.6299,-1.646,-1.6774,-1.6426,-1.666,-1.7281,-1.6633,-1.68,-1.7475,-1.7181,-1.6814,-1.6433,-1.6319,-1.6126,-1.5905,-1.5852,-1.5832,-1.5872,-1.6172,-1.6426,-1.6792,-1.7826,-1.8339,-1.884,-2.0027,-2.059,-2.1032,-2.2362,-2.3036,-2.3502,-2.4275,-2.4488,-2.4278,0.0,0.0,0.0,-2.3776,-2.3568,-2.3398,-2.3398,-2.3515,-2.3659,-2.3659,-2.3592,-2.3683,-2.4323,-2.3364,-2.2675,-2.2833,-2.3028,-2.3028,-2.2795,-2.2823,-2.2959,-2.3057,-2.294,-2.2959,-2.3057,-2.3135,-2.3135,-2.3135,-2.3135,-2.3135,-2.3135,-2.3135,-2.3135,-2.3135,-2.3135,-2.3135,-2.3135,-2.3135,-2.3135,-2.3135,-2.3135,-2.3135,-2.3135,-2.3135,-2.3135,-2.3154,-2.3622,-2.4023,-2.4421,-2.4976,-2.5363,-2.5742,-0.0,-0.0,-0.0,-0.0,-0.0,-0.0,-0.0,-0.4055,-0.727,-0.7945,-0.7909,-0.7971,-0.8286,-0.8292,-0.8397,-0.8662,-0.8306,-0.8235,-0.8635,-0.8397,-0.8245,-0.8245,-0.8367,-0.8381,-0.8272,-1.0839,-1.225,-1.2557,-1.4781,-1.6104,-1.6653,-1.6393,-1.6567,-1.7074,-1.652,-1.6894,-1.7889,-1.7021,-1.6867,-1.7174,-1.6874,-1.6874,-1.6994,-1.6473,-1.6253,-1.6186,-1.5925,-1.5832,-1.5872,-1.6172,-1.6293,-1.6505,-1.7096,-1.7034,-1.7,-1.9073,-1.9328,-1.9413,-2.1311,-2.1921,-2.1946,-2.2105,-2.2088,-2.1996,-2.1517,0.0,-2.1936,-2.15,0.0,-2.197,-2.197,0.0,0.0,-2.3057,-2.2767,-2.3019,-2.419,-2.2289,-2.1016,-2.1998,-2.2688,-2.2688,-2.1646,-2.1797,-2.227,-2.3076,-2.2395,-2.2261,-2.3076,-2.3135,-2.3135,-2.3135,-2.3135,-2.3135,-2.3135,-2.3135,-2.3135,-2.3135,-2.3135,-2.3135,-2.3135,-2.3135,-2.3135,-2.3135,-2.3135,-2.3135,-2.3135,-2.3135,-2.3135,-2.3154,-2.3622,-2.4085,-2.4476,-2.4927,-2.5363,-2.5742,-0.0,-0.0,-0.0,-0.0,-0.0,-0.0,-0.0,-0.4863,-0.8442,-0.8265,-0.8269,-0.835,-0.8516,-0.8448,-0.8516,-0.8815,-0.8506,-0.8414,-0.8693,-0.8435,-0.8347,-0.852,-0.8499,-0.8537,-0.8655,-0.9784,-1.1125,-1.2685,-1.3735,-1.5179,-1.6961,-1.684,-1.6914,-1.7134,-1.6714,-1.68,-1.7255,-1.7048,-1.7034,-1.7154,-1.7194,-1.7188,-1.7068,-1.6306,-1.6012,-1.5999,-1.5872,-1.5832,-1.5845,-1.5972,-1.6239,-1.6506,-1.6413,-1.6567,-1.7022,-1.7712,-1.7915,-1.8246,-2.0005,-2.0436,-2.0641,-2.155,-2.1752,-2.161,-2.1453,-2.1535,-2.1601,-2.1453,0.0,0.0,0.0,0.0,0.0,0.0,-2.1667,-2.1776,-2.2408,-2.1139,-2.06,-2.1857,0.0,0.0,-2.1264,-2.0963,-2.1094,-2.1971,-2.1216,-2.1086,-2.205,-2.2031,-2.2403,-2.3047,-2.3135,-2.3135,-2.3135,-2.3135,-2.3135,-2.3135,-2.3135,-2.3135,-2.3135,-2.3135,-2.3135,-2.3135,-2.3135,-2.3135,-2.3135,-2.3135,-2.3135,-2.3144,-2.3281,-2.3847,-2.4442,-2.4974,-2.5363,-2.5742,-0.0,-0.0,-0.0,-0.0,-0.0,-0.0533,-0.224,-0.5443,-0.7877,-0.8498,-0.8498,-0.8496,-0.8747,-0.871,-0.8788,-0.9096,-0.8842,-0.8713,-0.8825,-0.8594,-0.8492,-0.8584,-0.8638,-0.8713,-0.8811,-0.9577,-1.0953,-1.2916,-1.3698,-1.5139,-1.7148,-1.7068,-1.7074,-1.7141,-1.6927,-1.6921,-1.7081,-1.7215,-1.7268,-1.7275,-1.7321,-1.7121,-1.6727,-1.6166,-1.5899,-1.5832,-1.5832,-1.5832,-1.5838,-1.5925,-1.6233,0.0,-1.6179,-1.6453,-1.6881,-1.6747,-1.68,-1.7293,-1.8576,-1.8993,-1.9236,-2.0426,-2.0609,-2.0554,-2.0656,-2.0601,-2.0562,-2.0664,-2.0374,0.0,0.0,0.0,-2.0556,-2.0556,0.0,-2.0627,-2.1081,-2.0039,-1.962,-2.0823,-2.0063,0.0,0.0,-2.011,-1.9931,-2.0849,-1.9969,-1.9775,-2.0773,-2.0845,-2.1212,-2.205,-2.2403,-2.2589,-2.2589,-2.295,-2.3135,-2.3135,-2.3135,-2.3135,-2.3135,-2.3135,-2.3135,-2.3135,-2.3135,-2.3135,-2.3135,-2.3135,-2.3135,-2.3144,-2.3261,-2.374,-2.4442,-2.4745,-2.5237,-2.5742,-0.0,-0.0,-0.0,-0.0,-0.0,-0.192,-0.7718,-0.6396,-0.5627,-0.8295,-0.8621,-0.8757,-0.8913,-0.9052,-0.9256,-0.9561,-0.9306,-0.9133,-0.914,-0.9001,-0.8726,-0.8303,-0.8828,-0.8933,-0.8506,-1.1742,-1.3367,-1.3254,-1.5799,-1.7148,-1.7141,-1.6854,-1.6874,-1.7148,-1.7141,-1.7455,-1.7983,-1.7695,-1.7569,-1.7522,-1.6961,-1.6386,-1.5899,-1.6159,-1.6079,-1.5832,-1.5832,0.0,0.0,-1.6159,-1.6273,0.0,0.0,0.0,-1.6353,-1.6627,-1.6513,-1.6426,-1.7103,0.0,-1.7405,-1.799,-1.7909,-1.7761,-1.807,-1.7902,-1.7768,-1.807,-1.8131,-1.8211,-1.85,-1.9014,-1.9413,-1.9413,-1.9256,0.0,0.0,-1.8822,-1.7575,-1.8359,-1.828,-1.8775,0.0,-1.9303,-1.8977,-1.9845,-1.8814,-1.8581,-1.9513,-1.9579,-1.9579,-1.9588,-2.0755,-2.1382,-2.1382,-2.2492,-2.3135,-2.3135,-2.3135,-2.3135,-2.3135,-2.3135,-2.3135,-2.3135,-2.3135,-2.3135,-2.3135,-2.3135,-2.3135,-2.3154,-2.3612,-2.3994,-2.4432,-2.4469,-2.4975,-2.5742,-0.0,-0.0,-0.0,-0.0,-0.3248,-0.6547,-0.8629,-0.801,-0.7847,-0.9061,-0.9099,-0.9137,-0.9483,-0.9483,-0.9534,-0.9734,-0.9476,-0.9347,-0.9449,-0.9222,-0.9059,-0.9008,-0.9198,-0.9232,-0.9079,-1.0239,-1.1138,-1.1939,-1.3842,-1.5331,-1.6304,-1.6997,-1.7555,-1.8016,-1.7615,-1.7442,-1.7462,-1.7549,-1.7248,-1.67,-1.65,-1.6413,-1.638,-1.6092,-1.5919,-1.5832,-1.5832,-1.5832,0.0,-1.5945,-1.6112,-1.6253,-1.6159,-1.6326,-1.658,-1.6673,-1.6774,0.0,0.0,0.0,-1.7482,-1.7689,0.0,0.0,-1.7716,-1.7655,-1.7662,-1.7963,-1.8036,-1.8136,-1.8437,-1.8476,-1.8517,-1.8517,-1.8254,-1.8177,0.0,-1.7415,-1.6746,-1.6993,-1.6984,-1.7506,-1.9018,0.0,-1.7745,-1.8655,-1.7594,-1.7273,-1.8249,-1.8326,-1.868,-1.9488,-1.9943,-2.0124,-2.0124,-2.1302,-2.1933,-2.1943,-2.2677,-2.3135,-2.3135,-2.3135,-2.3135,-2.3135,-2.3135,-2.3135,-2.3135,-2.3135,-2.3135,-2.3144,-2.3271,-2.375,-2.4442,-2.4735,-2.5227,-2.5742,-0.0,-0.0,-0.0,-0.0,-0.4964,-0.8906,-0.8889,-0.9025,-0.9164,-0.9481,-0.9452,-0.952,-0.9866,-0.9869,-0.9886,-0.9978,-0.9812,-0.9676,-0.9612,-0.9425,-0.9262,-0.9147,-0.9296,-0.9279,-0.9066,-0.9835,-1.052,-1.1274,-1.2748,-1.4383,-1.5946,-1.6767,-1.7501,-1.8323,-1.8143,-1.7722,-1.7174,-1.7569,-1.7228,-1.642,-1.6319,-1.6319,-1.6353,-1.5972,-1.5959,-1.6112,0.0,-1.5832,-1.5832,-1.5832,-1.6025,-1.6219,-1.5925,-1.6233,-1.6687,-1.6587,-1.676,-1.7054,-1.7348,-1.7428,0.0,-1.7695,-1.7662,0.0,-1.7856,0.0,-1.7829,-1.8123,-1.825,-1.8317,-1.833,-1.8313,-1.8253,-1.7949,-1.7809,-1.7569,0.0,-1.6718,-1.6393,-1.6266,-1.642,-1.6857,-1.7768,-1.7193,-1.6871,-1.7437,-1.6649,-1.6409,-1.6958,0.0,-1.7404,-1.8126,-1.8588,-1.8864,-1.8864,-2.0034,-2.0845,-2.1293,-2.212,-2.2677,-2.3135,-2.3135,-2.3135,-2.3135,-2.3135,-2.3135,-2.3135,-2.3135,-2.3135,-2.3135,-2.3135,-2.3622,-2.4442,-2.4735,-2.5227,-2.5742,-0.0,-0.0,-0.0112,-0.0441,-0.5006,-0.868,-0.8897,-0.9239,-0.9528,-0.9405,-0.9659,-0.9907,-1.0066,-1.0215,-1.03,-1.03,-1.0293,-1.0107,-0.9673,-0.9635,-0.9371,-0.8781,-0.9164,-0.912,-0.854,-1.0416,-1.1268,-1.1025,-1.2721,-1.4395,-1.5879,-1.6092,-1.6753,-1.8001,-1.8559,-1.8263,-1.7188,-1.7749,-1.7475,-1.6633,-1.6359,-1.6099,-1.5872,-1.5838,-1.6192,-1.6627,-1.6039,-1.5832,-1.5832,-1.5832,-1.6019,-1.6206,-1.5939,-1.6233,-1.664,-1.6386,-1.6513,-1.6794,-1.7088,-1.7174,-1.7308,-1.7883,0.0,0.0,0.0,0.0,-1.811,-1.841,-1.8722,-1.8715,-1.8183,-1.8493,-1.8538,-1.7809,-1.7856,-1.7716,-1.6827,-1.67,-1.6587,-1.6306,-1.656,-1.6671,-1.674,-1.6714,-1.6587,-1.6319,-1.6005,-1.5832,-1.5832,0.0,-1.5832,-1.5832,-1.6943,-1.7598,-1.7598,-1.8772,-1.9943,-2.1114,-2.1203,-2.1933,-2.3047,-2.3047,-2.3135,-2.3135,-2.3135,-2.3135,-2.3135,-2.3135,-2.3135,-2.3135,-2.3135,-2.3662,-2.4434,-2.4497,-2.4985,-2.5742,-0.0,-0.0,-0.151,-0.6383,-0.6374,-0.6391,-0.8552,-0.9225,-0.9469,-0.968,-0.9975,-1.0259,-1.0517,-1.0582,-1.0609,-1.0609,-1.0504,-1.0344,-1.0124,-1.0002,-0.9768,-0.9395,-0.949,-0.9425,-0.9154,-0.9754,-1.0033,-0.9831,-1.1525,-1.2557,-1.3128,-1.5145,-1.6375,-1.6964,-1.8272,-1.8263,-1.7174,-1.7542,-1.7061,-1.6046,-1.5972,-1.6159,-1.6433,0.0,-1.6192,-1.6627,-1.6039,-1.5832,-1.5832,-1.5832,-1.5879,-1.5972,-1.6112,-1.6266,-1.6453,-1.682,-1.6981,-1.7101,-1.7388,-1.7468,-1.7508,-1.7662,-1.7642,-1.7622,0.0,0.0,0.0,0.0,0.0,0.0,0.0,-1.8242,-1.8008,-1.8183,-1.7921,-1.7468,-1.68,-1.6693,-1.6552,-1.6293,-1.638,-1.6607,-1.7001,-1.6834,-1.6673,-1.66,-1.6119,-1.5832,-1.5832,0.0,0.0,-1.5832,-1.6109,-1.6292,-1.6292,-1.7498,-1.8319,-1.8688,-2.0486,-2.148,-2.1756,-2.2677,-2.3135,-2.3135,-2.3135,-2.3135,-2.3135,-2.3135,-2.3135,-2.3135,-2.3135,-2.3596,-2.4497,-2.5083,-2.5499,-2.5742,-0.0,-0.0,-0.2108,-0.8607,-0.8194,-0.7364,-0.8938,-0.9118,-0.932,-0.9781,-1.0202,-1.0449,-1.0605,-1.068,-1.0721,-1.0721,-1.0524,-1.0365,-1.0287,-1.0073,-0.9846,-0.9618,-0.9608,-0.9476,-0.9195,-0.9334,-0.9401,-0.9381,-1.0273,-1.1244,-1.2175,-1.3742,-1.5106,-1.6421,-1.7588,-1.7766,-1.7335,-1.7241,-1.682,-1.6192,-1.5932,-1.6025,0.0,-1.5952,-1.6032,-1.6279,-1.5952,-1.5832,-1.5832,-1.5832,-1.5912,-1.6052,-1.6219,-1.6446,-1.672,-1.7054,-1.7241,-1.7375,-1.7542,-1.7582,-1.7582,-1.7582,-1.7582,-1.7615,-1.7756,-1.7816,-1.7802,0.0,-1.7908,-1.7825,0.0,0.0,-1.7896,-1.8255,-1.7875,-1.7375,-1.6787,-1.672,-1.6585,-1.6293,-1.6386,-1.6593,-1.6927,-1.6687,-1.646,-1.6333,-1.6012,-1.5832,0.0,0.0,0.0,-1.5832,-1.5952,-1.5965,-1.5832,-1.6612,-1.7269,-1.7692,-1.9579,-2.0755,-2.1382,-2.258,-2.3135,-2.3135,-2.3135,-2.3135,-2.3135,-2.3135,-2.3135,-2.3144,-2.3505,-2.3968,-2.4482,-2.5363,-2.5742,-2.5742,-0.0,-0.0,-0.1757,-0.7509,-0.9178,-0.9744,-0.9503,-0.8754,-0.8605,-0.9331,-1.0108,-1.0682,-1.0524,-1.0639,-1.0721,-1.0721,-1.0466,-1.03,-1.0283,-1.0008,-0.9788,-0.9642,-0.9618,-0.9418,-0.9005,-0.91,-0.9228,-0.9381,-0.9381,-1.0292,-1.2057,-1.2134,-1.3391,-1.5536,-1.6466,-1.7047,-1.7331,-1.6852,-1.656,-1.6341,-1.5936,-1.5832,-1.5832,-1.5832,-1.5832,-1.5832,-1.5832,-1.5832,-1.5832,-1.5832,-1.5999,-1.6219,-1.6259,-1.6647,-1.7094,-1.7141,-1.7355,-1.7582,-1.7582,-1.7582,-1.7582,-1.7582,-1.7582,-1.7655,-1.7923,-1.7935,-1.7988,-1.7988,-1.7901,-1.7725,0.0,0.0,-1.7868,-1.7886,-1.7762,-1.7361,-1.6734,-1.666,-1.6587,-1.6359,-1.652,0.0,-1.676,-1.65,-1.6206,-1.5912,-1.5852,0.0,0.0,0.0,0.0,-1.5832,-1.6079,-1.6112,-1.5885,0.0,-1.6677,-1.7564,-1.888,-2.0034,-2.1114,-2.2492,-2.3135,-2.3135,-2.3135,-2.3135,-2.3135,-2.3135,-2.3164,-2.325,-2.4185,-2.4447,-2.4598,-2.5373,-2.5742,-2.5742,-0.0,-0.0,-0.0366,-0.1471,-0.6215,-0.9738,-0.9722,-0.7153,-0.5737,-0.7026,-0.9059,-1.0568,-1.0683,-1.0704,-1.0721,-1.0721,-1.0558,-1.0405,-1.0287,-1.011,-0.9941,-0.9791,-0.9673,-0.9513,-0.931,-0.9205,-0.9228,-0.9381,-0.9381,-0.96,-1.0158,-1.1414,-1.2095,-1.2456,-1.5462,-1.641,-1.5937,-1.654,-1.5815,-1.4491,-1.5382,-1.5832,-1.5832,-1.5832,-1.5832,-1.5832,-1.5832,-1.5832,-1.5832,-1.5832,-1.5865,-1.5952,-1.6192,-1.6506,-1.6834,-1.7081,-1.7355,-1.7582,-1.7582,-1.7582,-1.7582,-1.7582,-1.7582,-1.7595,-1.7649,-1.7675,-1.7689,-1.7689,-1.7443,-1.7384,-1.744,0.0,0.0,-1.7647,-1.7432,-1.7061,-1.646,-1.6531,-1.6724,-1.662,-1.6466,-1.654,-1.7021,-1.68,-1.6506,-1.6219,-1.5972,0.0,0.0,0.0,0.0,0.0,-1.5879,0.0,0.0,0.0,-1.6101,-1.6573,-1.8536,-1.9579,-1.9852,-2.2129,-2.3135,-2.3135,-2.3135,-2.3135,-2.3135,-2.3135,-2.3295,-2.3727,-2.4614,-2.4967,-2.4994,-2.5499,-2.5742,-2.5742,-0.0,-0.0,-0.0,-0.0,-0.264,-0.587,-0.929,-0.5513,-0.3145,-0.5586,-0.8696,-1.0514,-1.0605,-1.0673,-1.0721,-1.0721,-1.0514,-1.0351,-1.0287,-1.0059,-0.9897,-0.9825,-0.9754,-0.9612,-0.9388,-0.9157,-0.9191,-0.95,-0.9266,-0.9347,-0.9717,-1.0461,-1.0977,-1.1507,-1.3958,-1.4955,-1.4717,0.0,0.0,-1.3457,-1.4377,-1.4848,-1.4854,-1.554,-1.5832,-1.5832,-1.5832,-1.5832,-1.5832,-1.5832,-1.5832,-1.5879,-1.6179,-1.6373,-1.6573,-1.7021,-1.7248,-1.7388,-1.7542,-1.7582,-1.7582,-1.7582,-1.7582,-1.7582,-1.7582,-1.7582,-1.7582,-1.7582,-1.7345,-1.7221,-1.7145,-1.7178,0.0,0.0,0.0,-1.7014,-1.6354,-1.6401,-1.6538,-1.6473,-1.6359,-1.6446,-1.6874,-1.6787,-1.6587,-1.6293,-1.5999,0.0,0.0,0.0,0.0,0.0,0.0,0.0,0.0,0.0,0.0,-1.6039,-1.8381,-1.9131,-1.8688,-2.1033,-2.2208,-2.2227,-2.2377,-2.2895,-2.3504,-2.3687,-2.3923,-2.4136,-2.4834,-2.5065,-2.5197,-2.5518,-2.5742,-2.5742,-0.0,-0.0,-0.0,-0.0,-0.0,-0.1799,-0.6992,-0.3338,-0.1339,-0.4887,-0.8448,-1.0571,-1.0544,-1.0619,-1.067,-1.067,-1.0432,-1.0266,-1.0236,-0.9975,-0.9822,-0.9822,-0.9822,-0.9683,-0.9388,-0.9089,-0.9113,-0.9466,-0.9113,-0.9178,-0.9632,-0.9585,-1.0196,-1.1308,-1.2512,0.0,0.0,0.0,-1.2552,-1.2233,-1.316,-1.3488,-1.359,-1.4561,-1.4956,-1.5051,-1.5248,-1.5439,-1.5439,-1.573,-1.5872,-1.5965,-1.6199,-1.6319,-1.6453,-1.6921,-1.7054,-1.7121,-1.7415,-1.7488,-1.7508,-1.7569,-1.7582,-1.7582,-1.7582,-1.7582,-1.7582,-1.7582,-1.7345,-1.7178,-1.7036,-1.7049,0.0,0.0,0.0,-1.6912,-1.6386,-1.6401,-1.6341,-1.6316,-1.6451,-1.6526,-1.6693,-1.676,-1.668,-1.6386,-1.6092,0.0,-1.5925,0.0,0.0,0.0,0.0,-1.6092,-1.5925,0.0,-1.6092,-1.5919,-1.814,-1.8698,-1.7882,-2.0054,-2.1274,-2.1563,-2.1889,-2.2777,-2.3987,-2.4359,-2.459,-2.4573,-2.5068,-2.5202,-2.5251,-2.5586,-2.5742,-2.5742,-0.0,-0.0,-0.0,-0.0,-0.0,-0.0263,-0.079,-0.04,-0.1343,-0.4953,-0.8233,-1.0474,-1.069,-1.0588,-1.0514,-1.0514,-1.0371,-1.0219,-1.008,-0.9914,-0.9822,-0.9822,-0.9822,-0.9683,-0.9388,-0.9089,-0.896,-0.9001,-0.896,-0.8967,-0.9028,-0.9283,-1.014,-1.1345,0.0,0.0,0.0,-1.2324,-1.1769,-1.034,-1.157,-1.2042,-1.2139,-1.2237,-1.2237,-1.2431,-1.368,-1.407,-1.4268,-1.5439,-1.6005,-1.6239,-1.6266,-1.6453,-1.6673,-1.6734,-1.6747,-1.6814,-1.7108,-1.7188,-1.7255,-1.7515,-1.7582,-1.7582,-1.7582,-1.7582,-1.7582,-1.7582,-1.7345,-1.7312,-1.7796,-1.7296,-1.6888,0.0,0.0,0.0,-1.6368,-1.652,-1.6567,-1.6293,-1.6799,-1.6974,-1.6727,-1.6947,-1.6981,-1.6687,-1.6393,0.0,0.0,0.0,0.0,-1.5832,0.0,-1.5985,-1.6226,-1.5992,-1.5992,-1.6233,-1.7558,-1.8221,-1.8133,-1.9758,-2.1147,-2.2308,-2.2326,-2.3139,-2.4426,-2.4847,-2.5034,-2.5043,-2.5528,-2.5664,-2.5664,-2.5723,-2.5742,-2.5742,-0.0,-0.0,0.0,0.0,0.0,0.0,0.0,-0.0,-0.0536,-0.1988,-0.6867,-1.032,-1.0343,-1.0333,-1.0365,-1.0365,-1.0229,-1.0114,-1.0053,-0.9907,-0.9822,-0.9822,-0.9822,-0.9683,-0.9388,-0.9089,-0.894,-0.894,-0.894,-0.8984,-0.9069,-0.9188,0.0,0.0,0.0,-0.9459,-0.937,-0.9766,-0.9438,-0.892,-1.0194,-1.0779,-1.0877,-1.1658,-1.1945,-1.1945,-1.2528,-1.2716,-1.2818,-1.3307,-1.4635,-1.6039,-1.6219,-1.6233,-1.6246,-1.66,-1.6707,-1.6774,-1.7068,-1.7275,-1.7442,-1.7555,-1.7582,-1.7582,-1.7582,-1.7582,-1.7582,-1.7582,-1.7463,-1.7463,-1.7463,-1.7318,-1.715,0.0,0.0,0.0,-1.6041,-1.6099,-1.6155,-1.5978,-1.6175,-1.638,-1.644,-1.6714,-1.6834,-1.6714,-1.6433,0.0,0.0,0.0,0.0,-1.6346,0.0,-1.5972,-1.6273,-1.6152,-1.6152,-1.6273,-1.7699,-1.7981,-1.7309,-1.8686,-2.0111,-2.1679,-2.2469,-2.3638,-2.516,-2.5343,-2.546,-2.5489,-2.5625,-2.5226,-2.451,-2.4467,-2.3941,-2.3329,-0.0,0.0,-0.0,0.0,-0.0,-0.0,-0.0,-0.0,-0.0,-0.0,-0.418,-0.7979,-0.9945,-1.0193,-1.0219,-1.0212,-1.0114,-1.0029,-0.9985,-0.988,-0.9822,-0.9822,-0.9781,-0.9639,-0.9388,-0.9089,-0.8896,-0.8804,-0.8849,-0.8879,-0.8893,0.0,0.0,0.0,-0.8316,-0.8245,-0.8197,-0.8085,-0.8038,-0.8038,-0.9019,-0.941,-0.9509,-1.0386,-1.0774,-1.0774,-1.1165,-1.1365,-1.137,-1.1825,-1.3169,-1.4725,-1.5078,-1.4998,-1.4874,-1.5332,-1.5413,-1.5413,-1.5788,-1.6062,-1.6181,-1.6262,-1.6374,-1.6343,-1.6299,-1.6392,-1.6392,-1.6392,-1.6634,-1.6871,-1.6746,-1.7219,-1.7345,-1.6634,0.0,0.0,0.0,-1.594,-1.5939,-1.5985,-1.6095,-1.6269,-1.6256,-1.6666,-1.6767,-1.6593,0.0,0.0,0.0,0.0,0.0,0.0,0.0,0.0,0.0,-1.6226,-1.6273,-1.6279,-1.7527,-1.7624,-1.6935,-1.8203,-1.9552,-2.0764,-2.2064,-2.3323,-2.451,-2.451,-2.451,-2.451,-2.451,-2.3998,-2.3085,-2.3138,-2.2503,-2.1658,-0.0,-0.0,-0.0,-0.0,-0.0,-0.0,-0.0,-0.0,-0.0,-0.0,-0.0129,-0.2696,-0.9401,-0.9923,-0.9824,-1.0053,-1.0049,-0.9985,-0.9832,-0.9822,-0.9822,-0.9822,-0.9686,-0.954,-0.9384,-0.9089,-0.8791,-0.8486,-0.8638,0.0,-0.8286,0.0,-0.8414,-0.8272,-0.8272,-0.8184,-0.8041,-0.8038,-0.8038,-0.8038,-0.8041,-0.8038,-0.8038,-0.8038,-0.8038,-0.8233,-0.9509,-0.9998,-1.022,-1.1696,-1.2122,-1.2021,-1.2456,-1.2547,-1.252,-1.2633,-1.244,-1.2319,-1.2537,-1.2764,-1.2991,-1.3321,-1.3327,-1.3347,-1.3319,-1.3393,-1.3393,-1.3393,-1.4423,-1.5458,-1.5458,-1.6628,-1.7463,-1.7226,0.0,0.0,0.0,-1.6265,-1.6265,-1.6272,-1.6851,-1.6914,-1.6348,-1.6853,-1.6907,0.0,0.0,0.0,0.0,0.0,0.0,-1.5838,-1.5832,0.0,-1.5832,-1.6126,-1.6273,-1.6279,-1.6962,-1.7244,-1.7257,-1.8861,-1.962,-1.9723,-2.1143,-2.1744,-2.1752,-2.1752,-2.1752,-2.1752,-2.1752,-2.1752,-2.1752,-2.1752,-2.1744,-2.1744,-0.0,-0.0,-0.0,-0.0,-0.0,-0.0,-0.0,-0.0,-0.0,-0.0,-0.0,-0.0758,-0.2995,-0.7202,-0.9801,0.0,-0.9903,-0.9873,0.0,-0.9822,-0.9822,-0.9822,-0.9686,-0.9537,-0.9384,-0.9089,-0.8791,-0.8482,0.0,0.0,0.0,-0.8509,-0.835,-0.8113,-0.8113,-0.8085,-0.8038,-0.8038,-0.8038,-0.8038,-0.8038,-0.8038,-0.8038,-0.8038,-0.8038,-0.8038,-0.8531,-0.87,-0.8888,-0.9218,-0.9338,-0.9516,-0.9623,-1.0822,-1.2344,-1.2615,-1.267,-1.263,-1.27,-1.2881,-1.3179,-1.3249,-1.3249,-1.3332,-1.3286,-1.3275,-1.3267,-1.3267,-1.3619,-1.3967,-1.3967,-1.5114,-1.5927,-1.5458,-1.6143,0.0,-1.6048,-1.594,-1.594,-1.594,-1.6085,-1.6164,-1.5973,-1.635,0.0,0.0,0.0,0.0,0.0,0.0,0.0,0.0,-1.6039,0.0,-1.6126,-1.6426,-1.6567,-1.6573,-1.7161,-1.7442,-1.7448,-1.8053,-1.8708,-1.9627,-2.0033,-2.0837,-2.1752,-2.1752,-2.1752,-2.1752,-2.1752,-2.1143,-2.0231,-2.0279,-1.9678,-1.8909,-0.0,-0.0,-0.0,-0.0,-0.0,-0.0,-0.0,-0.0,-0.0,-0.0,-0.0,-0.0,-0.0,-0.3687,0.0,-0.9625,-0.9849,-0.9836,-0.9836,-0.9825,-0.9798,-0.9744,-0.9602,-0.9452,-0.93,-0.9062,0.0,-0.8567,-0.8648,-0.8611,-0.8455,-0.836,-0.8218,-0.8038,-0.8038,-0.8038,-0.8038,-0.8038,-0.8038,-0.8038,-0.8038,-0.8038,-0.8038,-0.8038,-0.8038,-0.8038,-0.8038,-0.8102,-0.8177,-0.814,-0.8191,-0.8289,-0.8401,-0.9561,-1.0918,-1.1085,-1.119,-1.1248,-1.1248,-1.1496,-1.1647,-1.1647,-1.1647,-1.1647,-1.1647,-1.1625,-1.17,-1.17,-1.2059,-1.2519,-1.2519,-1.3598,-1.4366,-1.3865,-1.4961,-1.5622,-1.5184,-1.5507,-1.5832,-1.5947,-1.6025,0.0,0.0,-1.6216,-1.6278,0.0,0.0,0.0,0.0,0.0,0.0,-1.6366,-1.6132,0.0,-1.6273,-1.6673,-1.6874,-1.6881,-1.7355,-1.7582,-1.7582,-1.7582,-1.8094,-1.8812,-1.8812,-1.9317,-2.0128,-2.0128,-2.0128,-2.0128,-2.0128,-1.962,-1.8805,-1.8866,-1.8366,-1.7582,-0.0,-0.0,-0.0,0.0,-0.0,0.0,-0.0,-0.0,-0.0,-0.0,-0.0,-0.0,-0.0,-0.0,-0.246,-0.8532,0.0,0.0,0.0,-0.9829,-0.9751,-0.9618,-0.9452,-0.93,-0.9157,-0.9011,-0.8869,-0.8726,-0.8421,-0.8201,-0.8069,-0.8048,-0.8038,-0.8038,-0.8038,-0.8038,-0.8038,-0.8038,-0.8038,-0.8038,-0.8038,-0.8038,-0.8038,-0.8038,-0.8038,-0.8038,-0.8038,-0.8052,-0.8092,-0.8225,-0.8286,-0.8347,-0.8611,-0.8703,-0.8682,-0.8554,-0.8615,-0.8726,-0.8726,-0.8828,-0.894,-0.894,-0.894,-0.894,-0.894,-0.894,-0.894,-0.894,-0.9972,-1.0896,-1.0896,-1.2027,-1.2753,-1.2481,-1.3467,-1.4064,-1.382,-1.4766,-1.5717,0.0,0.0,0.0,0.0,-1.6269,-1.6115,0.0,0.0,0.0,0.0,0.0,-1.6179,-1.5872,-1.6126,-1.6286,-1.6299,-1.6867,-1.7161,-1.7181,-1.7455,-1.7582,-1.7582,-1.7582,-1.7582,-1.7582,-1.7582,-1.7582,-1.7582,-1.7582,-1.7582,-1.7582,-1.7582,-1.7582,-1.7582,-1.7582,-1.7582,-1.7582,0.0,0.0,-0.0,-0.0,-0.0,-0.0,-0.0,-0.0,-0.0,-0.0,-0.0,-0.0,-0.0,-0.0,-0.0617,-0.222,-0.4553,-0.7141,-0.9645,-0.964,-0.955,-0.9516,-0.9361,-0.9191,-0.9154,-0.9011,-0.892,-0.8882,-0.8472,-0.8306,-0.8374,-0.8147,-0.8038,-0.8038,-0.8038,-0.8038,-0.8038,-0.8038,-0.8038,-0.8038,-0.8038,-0.8038,-0.8038,-0.8038,-0.8038,-0.8038,-0.8038,-0.8184,-0.8367,-0.8296,-0.8421,-0.8598,-0.855,-0.8615,-0.8726,-0.8808,-0.8855,-0.8882,-0.8882,-0.891,-0.894,-0.894,-0.894,-0.894,-0.894,-0.894,-0.894,-0.894,-0.9168,-0.9396,-0.9396,-1.0542,-1.1283,-1.0944,-1.2013,-1.2721,-1.2416,-1.2674,-1.3199,0.0,-1.445,-1.4867,-1.5832,-1.5919,-1.6034,0.0,0.0,0.0,0.0,-1.6407,-1.6507,-1.6179,-1.6239,-1.638,-1.66,-1.6967,-1.7261,-1.7482,-1.7549,-1.7582,-1.7582,-1.7582,-1.7582,-1.7582,-1.7582,-1.7582,-1.7582,-1.7582,-1.7582,-1.7582,-1.7582,-1.7582,-1.7582,-1.7582,-1.7582,-1.7575,-0.0,-0.0,-0.0,-0.0,-0.0,-0.0,-0.0,-0.0,-0.0,-0.0,-0.0,-0.0,-0.0,-0.0,-0.0,-0.0,-0.16,-0.3433,-0.5242,-0.6647,-0.8014,-0.9339,-0.9269,-0.9137,-0.9072,-0.8984,-0.8869,-0.873,-0.8486,-0.8336,-0.8275,-0.8116,-0.8038,-0.8038,-0.8038,-0.8038,-0.8038,-0.8038,-0.8038,-0.8038,-0.8038,-0.8038,-0.8038,-0.8038,-0.8038,-0.8038,-0.8038,-0.8143,-0.8269,-0.8191,-0.8319,-0.8506,-0.8486,-0.8587,-0.874,-0.8893,-0.894,-0.894,-0.894,-0.894,-0.894,-0.894,-0.894,-0.894,-0.894,-0.894,-0.894,-0.894,-0.894,-0.894,-0.894,-0.9359,-0.9766,-0.9596,-1.0522,-1.1199,-1.1011,-1.1502,-1.2124,-1.2856,-1.3003,-1.3507,-1.4772,-1.4975,-1.5292,-1.6042,-1.6048,0.0,-1.6256,-1.6458,-1.6406,-1.6279,-1.6533,-1.6747,-1.6907,-1.7201,-1.7428,-1.7582,-1.7582,-1.7582,-1.7582,-1.7582,-1.7582,-1.7582,-1.7582,-1.7582,-1.7582,-1.7582,-1.7582,-1.7582,-1.7582,-1.7582,-1.7582,-1.7582,-1.7582,-1.7582,-0.0,-0.0,-0.0,-0.0,-0.0,-0.0,-0.0,-0.0,-0.0,-0.0,-0.0,-0.0,-0.0,-0.0,-0.0,-0.0,-0.0,-0.0,-0.0,-0.263,-0.5544,-0.8533,-0.86,-0.8639,-0.887,-0.8846,-0.8804,-0.8516,-0.8492,-0.8343,-0.8072,-0.8052,-0.8038,-0.8038,-0.8038,-0.8038,-0.8038,-0.8038,-0.8038,-0.8038,-0.8038,-0.8038,-0.8038,-0.8038,-0.8038,-0.8038,-0.8038,-0.8055,-0.8075,-0.8075,-0.8191,-0.836,-0.8479,-0.8621,-0.8771,-0.8899,-0.894,-0.894,-0.894,-0.894,-0.894,-0.894,-0.894,-0.894,-0.894,-0.894,-0.894,-0.894,-0.894,-0.894,-0.894,-0.8703,-0.8506,-0.8506,-0.9191,-0.9693,-0.9693,0.0,-1.1392,-1.1668,-1.1663,-1.2257,-1.3814,-1.3957,-1.445,-1.5825,-1.5838,-1.6042,-1.6367,-1.643,-1.64,-1.6444,-1.6935,-1.7237,-1.7215,-1.7462,-1.7582,-1.7582,-1.7582,-1.7582,-1.7582,-1.7582,-1.7582,-1.7582,-1.7582,-1.7582,-1.7582,-1.7582,-1.7582,-1.7582,-1.7582,-1.7582,-1.7582,-1.7582,-1.7582,-1.7582,-0.0,-0.0,-0.0,-0.0,-0.0,-0.0,-0.0,-0.0,-0.0,-0.0,-0.0,-0.0,-0.0,-0.0,-0.0,-0.0,-0.0,-0.0,-0.0,-0.0469,-0.2073,-0.5169,-0.5205,-0.64,-0.889,-0.887,-0.8872,-0.8676,-0.8547,-0.8397,-0.8231,-0.8099,-0.8038,-0.8038,-0.8038,-0.8038,-0.8038,-0.8038,-0.8038,-0.8038,-0.8038,-0.8038,-0.8038,-0.8038,-0.8038,-0.8038,-0.8038,-0.8123,-0.8235,-0.8235,-0.8418,-0.8645,-0.8669,-0.8781,-0.8906,-0.893,-0.894,-0.894,-0.894,-0.894,-0.894,-0.894,-0.894,-0.894,-0.894,-0.894,-0.894,-0.894,-0.894,-0.894,-0.894,-0.8652,-0.8508,-0.8618,-0.8504,-0.835,-0.8553,0.0,-0.9071,-1.0323,-1.047,-1.1392,-1.3842,-1.4045,-1.4659,-1.615,-1.6259,-1.6367,-1.6592,-1.6888,-1.7101,-1.71,-1.7182,-1.7354,-1.7508,-1.7562,-1.7582,-1.7582,-1.7582,-1.7582,-1.7582,-1.7582,-1.7582,-1.7582,-1.7582,-1.7582,-1.7582,-1.7582,-1.7582,-1.7582,-1.7582,-1.7582,-1.7582,-1.7582,-1.7582,-1.7575,-0.0,-0.0,-0.0,-0.0,-0.0,-0.0,-0.0,-0.0,-0.0,-0.0,-0.0,-0.0,-0.0,-0.0,-0.0,-0.0,-0.0,-0.0,-0.0,-0.0,-0.0577,-0.2041,-0.202,-0.3463,-0.65,-0.8125,-0.8784,-0.8608,-0.8452,-0.8299,-0.8143,-0.8072,-0.8038,-0.8038,-0.8038,-0.8038,-0.8038,-0.8038,-0.8038,-0.8038,-0.8038,-0.8038,-0.8038,-0.8038,-0.8038,-0.8038,-0.8038,-0.8085,-0.8147,-0.8147,-0.8235,-0.8364,-0.8448,-0.8523,-0.8611,-0.8767,-0.8872,-0.894,-0.894,-0.894,-0.894,-0.894,-0.894,-0.894,-0.894,-0.894,-0.894,-0.894,-0.894,-0.894,-0.894,-0.8639,-0.854,-0.8659,-0.8287,0.0,0.0,-0.8268,-0.8435,-0.9135,-0.9134,-0.9989,-1.1915,-1.2045,-1.2974,-1.5114,-1.537,-1.5865,-1.6894,-1.7164,-1.7226,-1.7421,-1.7407,-1.7432,-1.7582,-1.7582,-1.7582,-1.7582,-1.7582,-1.7582,-1.7582,-1.7582,-1.7582,-1.7582,-1.7582,-1.7582,-1.7582,-1.7582,-1.7582,-1.7582,-1.7582,-1.7582,-1.7582,-1.7582,-1.7463,-1.7345,-0.0,-0.0,-0.0,-0.0,-0.0,-0.0,-0.0,-0.0,-0.0,-0.0,-0.0,-0.0,-0.0,-0.0,-0.0,-0.0,-0.0,-0.0,-0.0,-0.0,-0.0,-0.0,-0.0,-0.1115,-0.3444,-0.5628,-0.7058,-0.7611,-0.8069,-0.8245,-0.8048,-0.8048,-0.8045,-0.8038,-0.8038,-0.8038,-0.8038,-0.8038,-0.8038,-0.8038,-0.8038,-0.8038,-0.8038,-0.8038,-0.8038,-0.8038,-0.8038,-0.8038,-0.8038,-0.8038,-0.8062,-0.8119,-0.8272,-0.8343,-0.8425,-0.8686,-0.8849,-0.894,-0.894,-0.894,-0.894,-0.894,-0.894,-0.894,-0.894,-0.894,-0.894,-0.894,-0.894,-0.894,-0.894,-0.8656,-0.8537,-0.8649,0.0,0.0,0.0,-0.8299,-0.8319,-0.8414,-0.8351,-0.8913,-1.0319,-1.0686,-1.1822,-1.4412,-1.4931,-1.581,-1.7219,-1.7338,-1.7345,-1.7582,-1.7582,-1.7582,-1.7582,-1.7582,-1.7582,-1.7582,-1.7582,-1.7582,-1.7582,-1.7582,-1.7582,-1.7582,-1.7582,-1.7582,-1.7582,-1.7582,-1.7582,-1.7582,-1.7582,-1.7582,-1.7582,-1.7582,-1.7463,-1.7305,-0.0,-0.0,-0.0,-0.0,-0.0,-0.0,-0.0,-0.0,-0.0,-0.0,-0.0,-0.0,-0.0,-0.0,-0.0,-0.0,-0.0,-0.0,-0.0,-0.0,-0.0,-0.0,-0.0,-0.0111,-0.0328,-0.0554,-0.2067,-0.4761,-0.7285,-0.827,-0.7972,-0.7972,-0.7959,-0.8038,-0.8038,-0.8038,-0.8038,-0.8038,-0.8038,-0.8038,-0.8038,-0.8038,-0.8038,-0.8038,-0.8038,-0.8038,-0.8038,-0.8038,-0.8038,-0.8038,-0.8136,-0.8279,-0.8421,-0.8564,-0.871,-0.8872,-0.893,-0.894,-0.894,-0.894,-0.894,-0.894,-0.894,-0.894,-0.894,-0.894,-0.894,-0.894,-0.894,-0.894,-0.894,-0.8817,-0.8636,-0.8654,0.0,0.0,-0.8455,-0.8391,-0.8421,-0.8655,-0.8696,-0.9173,-1.0572,-1.1827,-1.3214,-1.4821,-1.6274,-1.7219,-1.7575,-1.7575,-1.7582,-1.7582,-1.7582,-1.7582,-1.7582,-1.7582,-1.7582,-1.7582,-1.7582,-1.7582,-1.7582,-1.7582,-1.7582,-1.7582,-1.7582,-1.7582,-1.7582,-1.7582,-1.7582,-1.7582,-1.7582,-1.7582,-1.7582,-1.7582,-1.7582,-1.7546,-0.0,-0.0,-0.0,-0.0,-0.0,-0.0,-0.0,-0.0,-0.0,-0.0,-0.0,-0.0,-0.0,-0.0,-0.0,-0.0,-0.0,-0.0,-0.0,-0.0,-0.0,-0.0,-0.0,-0.0,-0.0,-0.3265,-0.4704,-0.4233,-0.691,-0.8083,-0.7952,-0.7952,-0.8048,-0.8038,-0.8038,-0.8038,-0.8038,-0.8038,-0.8038,-0.8038,-0.8038,-0.8038,-0.8038,-0.8038,-0.8038,-0.8038,-0.8038,-0.8038,-0.8038,-0.8038,-0.8079,-0.8136,-0.8191,-0.8313,-0.8486,-0.8726,-0.8866,-0.894,-0.894,-0.894,-0.894,-0.894,-0.894,-0.894,-0.894,-0.894,-0.894,-0.894,-0.894,-0.894,-0.894,-0.8842,-0.8726,-0.8835,0.0,-0.8442,-0.8584,-0.8615,-0.856,-0.8655,-0.8743,-0.892,-0.9501,-0.9996,-1.0874,-1.2432,-1.3987,-1.5223,-1.6169,-1.7101,-1.7582,-1.7582,-1.7582,-1.7582,-1.7582,-1.7582,-1.7582,-1.7582,-1.7582,-1.7582,-1.7582,-1.7582,-1.7582,-1.7582,-1.7582,-1.7582,-1.7582,-1.7582,-1.7582,-1.7582,-1.7457,-1.7457,-1.7575,-1.7219,-1.7219,-1.739,-0.0,-0.0,-0.0,-0.0,-0.0,-0.0,-0.0,-0.0,-0.0,-0.0,-0.0,-0.0,-0.0,-0.0,-0.0,-0.0,-0.0,-0.0,-0.0,-0.0,-0.0,-0.0,-0.0,-0.0,-0.0,-0.3571,-0.5426,-0.5287,-0.7079,-0.8029,-0.7955,-0.7955,-0.8048,-0.8038,-0.8038,-0.8038,-0.8038,-0.8038,-0.8038,-0.8038,-0.8038,-0.8038,-0.8038,-0.8038,-0.8038,-0.8038,-0.8038,-0.8038,-0.8038,-0.8038,-0.8038,-0.8055,-0.815,-0.8316,-0.852,-0.8723,-0.8855,-0.894,-0.894,-0.894,-0.894,-0.894,-0.894,-0.894,-0.894,-0.894,-0.894,-0.894,-0.894,-0.894,-0.894,-0.8826,-0.8803,-0.8855,-0.8669,-0.8639,-0.8642,-0.8704,-0.8665,-0.8726,-0.8764,-0.8821,-0.8927,-0.9184,-0.9934,-1.1025,-1.2488,-1.3933,-1.53,-1.6343,-1.7147,-1.7582,-1.7582,-1.7582,-1.7582,-1.7582,-1.7582,-1.7582,-1.7582,-1.7582,-1.7582,-1.7582,-1.7582,-1.7582,-1.7582,-1.7582,-1.7582,-1.7582,-1.7582,-1.7582,-1.7351,-1.7466,-1.7545,-1.7095,-1.7114,-1.7319,-0.0,-0.0,-0.0,-0.0,-0.0,-0.0,-0.0,-0.0,-0.0,-0.0,-0.0,-0.0,-0.0,-0.0,-0.0,-0.0,-0.0,-0.0,-0.0,-0.0,-0.0,-0.0,-0.0,-0.0,-0.0,-0.0,-0.2585,-0.7962,-0.7962,-0.7971,-0.7989,-0.7989,-0.7972,-0.8038,-0.8038,-0.8038,-0.8038,-0.8038,-0.8038,-0.8038,-0.8038,-0.8038,-0.8038,-0.8038,-0.8038,-0.8038,-0.8038,-0.8038,-0.8038,-0.8038,-0.8038,-0.8092,-0.8387,-0.8693,-0.8933,-0.894,-0.894,-0.894,-0.894,-0.894,-0.894,-0.894,-0.894,-0.894,-0.894,-0.894,-0.894,-0.894,-0.894,-0.894,-0.894,-0.894,-0.8872,-0.8676,-0.8752,-0.8752,-0.8752,-0.8752,-0.8716,-0.8916,-0.894,-0.894,-0.894,-1.02,-1.1121,-1.1121,-1.2455,-1.3911,-1.531,-1.5417,-1.6062,-1.7477,-1.7582,-1.7582,-1.7582,-1.7582,-1.7582,-1.7582,-1.7582,-1.7582,-1.7582,-1.7582,-1.7582,-1.7582,-1.7582,-1.7582,-1.7582,-1.7582,-1.7582,-1.7582,-1.7582,-1.7562,-1.7632,-1.7613,-1.7542,-1.7558,-0.0,-0.0,-0.0,-0.0,-0.0,-0.0,-0.0,-0.0,-0.0,-0.0,-0.0,-0.0,-0.0,-0.0,-0.0,-0.0,-0.0,-0.0,-0.0,-0.0,-0.0,-0.0,-0.0,-0.0,-0.0,-0.0,-0.0832,-0.2337,-0.4268,-0.5166,-0.5229,-0.7166,-0.7979,-0.7962,-0.7962,-0.7955,-0.8038,-0.8038,-0.8038,-0.8038,-0.8038,-0.8038,-0.8038,-0.8038,-0.8038,-0.8038,-0.8038,-0.8038,-0.8038,-0.8038,-0.8038,-0.8092,-0.8387,-0.8547,-0.8662,-0.8876,-0.894,-0.894,-0.894,-0.894,-0.894,-0.894,-0.894,-0.894,-0.894,-0.894,-0.894,-0.894,-0.894,-0.8967,-0.9069,-0.9008,-0.892,-0.9085,-0.8961,-0.8849,-0.8849,-0.8849,-0.8872,-0.893,-0.894,-0.894,-0.894,-0.9282,-0.9514,-0.9514,-1.0903,-1.2403,-1.3804,-1.3911,-1.4126,-1.4561,-1.4556,-1.4556,-1.4556,-1.6605,-1.7582,-1.7582,-1.7582,-1.7582,-1.7582,-1.7582,-1.7582,-1.7582,-1.7582,-1.7582,-1.7582,-1.7582,-1.7582,-1.7582,-1.7345,-1.7479,-1.7565,-1.7101,-1.712,-1.734,-0.0,-0.0,-0.0,-0.0,-0.0,-0.0,-0.0,-0.0,-0.0,-0.0,-0.0,-0.0,-0.0,-0.0,-0.0,-0.0,-0.0,-0.0,-0.0,-0.0,-0.0,-0.0,-0.0,-0.0,-0.0,-0.0,-0.0,-0.0,-0.1615,-0.2412,-0.241,-0.4123,-0.5436,-0.6442,-0.7566,-0.7972,-0.7959,-0.7955,-0.7952,-0.7952,-0.8041,-0.8038,-0.8038,-0.8038,-0.8038,-0.8038,-0.8038,-0.8038,-0.8038,-0.8038,-0.8116,-0.8258,-0.8496,-0.8615,-0.8699,-0.8882,-0.894,-0.894,-0.894,-0.894,-0.894,-0.894,-0.894,-0.894,-0.894,-0.894,-0.8954,-0.9011,-0.9022,-0.9069,-0.9215,-0.9123,-0.9025,-0.914,-0.8977,-0.894,-0.894,-0.894,-0.894,-0.894,-0.894,-0.894,-0.894,-0.894,-0.894,-0.894,-0.9699,-1.0891,-1.2403,-1.2403,-1.2724,-1.327,-1.3264,-1.3264,-1.3264,-1.499,-1.6174,-1.6717,-1.7364,-1.7582,-1.7582,-1.7582,-1.7582,-1.7582,-1.7582,-1.7582,-1.7575,-1.7462,-1.7468,-1.7457,-1.7108,-1.7101,-1.7219,-1.6864,-1.6864,-1.6924,-0.0,-0.0,-0.0,-0.0,-0.0,-0.0,-0.0,-0.0,-0.0,-0.0,-0.0,-0.0,-0.0,-0.0,-0.0,-0.0,-0.0,-0.0,-0.0,-0.0,-0.0,-0.0,-0.0,-0.0,-0.0,-0.0,-0.0,-0.0,-0.0,-0.0,-0.0,-0.0,-0.1307,-0.3715,-0.6147,-0.7375,-0.7679,-0.7669,-0.7769,-0.7972,-0.7952,-0.8041,-0.8041,-0.8041,-0.8041,-0.8038,-0.8038,-0.8048,-0.8062,-0.8075,-0.8258,-0.8509,-0.8662,-0.8804,-0.892,-0.8933,-0.894,-0.894,-0.894,-0.894,-0.894,-0.894,-0.894,-0.8944,-0.8954,-0.8947,-0.8981,-0.9123,-0.9144,-0.9181,-0.9334,-0.9239,-0.9137,-0.915,-0.9032,-0.894,-0.894,-0.894,-0.894,-0.894,-0.894,-0.894,-0.894,-0.894,-0.894,-0.894,-0.894,-0.9482,-1.0781,-1.0891,-1.1542,-1.2832,-1.2945,-1.2945,-1.2945,-1.3048,-1.3804,-1.5204,-1.6605,-1.7259,-1.7259,-1.7259,-1.7259,-1.7259,-1.7259,-1.7259,-1.7233,-1.6977,-1.686,-1.6787,-1.6441,-1.6403,-1.6365,-1.6365,-1.6365,-1.6336,-0.0,-0.0,-0.0,-0.0,-0.0,-0.0,-0.0,-0.0,-0.0,-0.0,-0.0,-0.0,-0.0,-0.0,-0.0,-0.0,-0.0,-0.0,-0.0,-0.0,-0.0,-0.0,-0.0,-0.0,-0.0,-0.0,-0.0,-0.0,-0.0,-0.0,-0.0,-0.0,-0.0302,-0.0905,-0.1508,-0.2914,-0.4824,-0.4822,-0.6042,-0.7985,-0.7982,-0.7972,-0.7965,-0.7965,-0.7955,-0.8038,-0.8038,-0.8116,-0.8238,-0.835,-0.8428,-0.8509,-0.8662,-0.8733,-0.8784,-0.8903,-0.894,-0.894,-0.894,-0.894,-0.894,-0.894,-0.894,-0.8967,-0.9083,-0.9018,-0.8981,-0.9123,-0.9062,-0.9028,-0.9174,-0.9083,-0.9022,-0.9133,-0.9032,-0.894,-0.894,-0.894,-0.894,-0.894,-0.894,-0.894,-0.894,-0.894,-0.894,-0.894,-0.894,-0.9047,-0.9372,-0.9372,-0.9482,-0.9805,-0.9805,-0.9805,-0.9805,-1.1,-1.2295,-1.3804,-1.4126,-1.4234,-1.4234,-1.4234,-1.4234,-1.4234,-1.4234,-1.4234,-1.4234,-1.418,-1.4085,-1.3948,-1.3853,-1.374,-1.3619,-1.3619,-1.3511,-1.3272,-0.0,-0.0,-0.0,-0.0,-0.0,-0.0,-0.0,-0.0,-0.0,-0.0,-0.0,-0.0,-0.0,-0.0,-0.0,-0.0,-0.0,-0.0,-0.0,-0.0,-0.0,-0.0,-0.0,-0.0,-0.0,-0.0,-0.0,-0.0,-0.0,-0.0,-0.0,-0.0,-0.0,-0.0,-0.0,-0.0806,-0.2113,-0.211,-0.2914,-0.4327,-0.5539,-0.6142,-0.6239,-0.7469,-0.7972,-0.7962,-0.7959,-0.8102,-0.8184,-0.8333,-0.8381,-0.8421,-0.8638,-0.871,-0.874,-0.8893,-0.894,-0.894,-0.894,-0.894,-0.894,-0.894,-0.894,-0.8957,-0.9032,-0.8991,-0.9001,-0.9218,-0.9201,-0.9195,-0.9344,-0.9249,-0.915,-0.9154,-0.9032,-0.894,-0.894,-0.894,-0.894,-0.894,-0.894,-0.894,-0.894,-0.894,-0.894,-0.894,-0.894,-0.894,-0.894,-0.894,-0.894,-0.894,-0.894,-0.894,-0.894,-0.9699,-1.0457,-1.1214,-1.262,-1.3264,-1.3264,-1.3264,-1.3264,-1.3264,-1.3264,-1.3264,-1.3249,-1.3037,-1.2865,-1.2812,-1.2509,-1.2464,-1.2344,-1.2344,-1.2242,-1.2134,-0.0,-0.0,-0.0,-0.0,-0.0,-0.0,-0.0,-0.0,-0.0,-0.0,-0.0,-0.0,-0.0,-0.0,-0.0,-0.0,-0.0,-0.0,-0.0,-0.0,-0.0,-0.0,-0.0,-0.0,-0.0,-0.0,-0.0,-0.0,-0.0,-0.0,-0.0,-0.0,-0.0,-0.0,-0.0,-0.0,-0.0,-0.0,-0.0,-0.0201,-0.2411,-0.3314,-0.3615,-0.6253,-0.7275,-0.7269,-0.7363,-0.7569,-0.8006,-0.8286,-0.8347,-0.8394,-0.8665,-0.875,-0.8774,-0.8903,-0.894,-0.894,-0.894,-0.894,-0.894,-0.894,-0.894,-0.894,-0.894,-0.894,-0.9025,-0.932,-0.934,-0.9354,-0.9503,-0.9408,-0.9266,-0.9137,-0.9018,-0.894,-0.894,-0.894,-0.894,-0.894,-0.894,-0.894,-0.894,-0.894,-0.894,-0.894,-0.894,-0.894,-0.894,-0.894,-0.894,-0.894,-0.894,-0.894,-0.894,-0.894,-0.894,-0.8937,-1.1428,-1.2512,-1.2512,-1.2512,-1.2512,-1.2512,-1.2512,-1.2488,-1.2431,-1.2073,-1.1873,-1.1824,-1.1391,-1.1288,-1.126,-1.126,-1.126,-1.126,-0.0,-0.0,-0.0,-0.0,-0.0,-0.0,-0.0,-0.0,-0.0,-0.0,-0.0,-0.0,-0.0,-0.0,-0.0,-0.0,-0.0,-0.0,-0.0,-0.0,-0.0,-0.0,-0.0,-0.0,-0.0,-0.0,-0.0,-0.0,-0.0,-0.0,-0.0,-0.0,-0.0,-0.0,-0.0,-0.0,-0.0,-0.0,-0.0,-0.0,-0.0404,-0.0504,-0.0804,-0.3525,-0.4531,-0.4522,-0.452,-0.5992,-0.8084,-0.8454,-0.8652,-0.8679,-0.8855,-0.8906,-0.8913,-0.8933,-0.894,-0.894,-0.894,-0.894,-0.894,-0.894,-0.894,-0.894,-0.894,-0.894,-0.9025,-0.932,-0.9178,-0.9042,-0.9188,-0.9096,-0.8991,-0.8971,-0.895,-0.894,-0.894,-0.894,-0.894,-0.894,-0.894,-0.894,-0.894,-0.894,-0.894,-0.894,-0.894,-0.894,-0.894,-0.894,-0.894,-0.894,-0.894,-0.894,-0.894,-0.894,-0.894,-0.894,-0.9265,-0.9482,-0.9482,-0.9482,-0.9482,-0.9482,-0.9482,-0.9403,-0.9269,-0.9226,-0.9071,-0.8859,-0.8819,-0.87,-0.8553,-0.8553,-0.8553,-0.8553,-0.0,-0.0,-0.0,-0.0,-0.0,-0.0,-0.0,-0.0,-0.0,-0.0,-0.0,-0.0,-0.0,-0.0,-0.0,-0.0,-0.0,-0.0,-0.0,-0.0,-0.0,-0.0,-0.0,-0.0,-0.0,-0.0,-0.0,-0.0,-0.0,-0.0,-0.0,-0.0,-0.0,-0.0,-0.0,-0.0,-0.0,-0.0,-0.0,-0.0,-0.0,-0.0,-0.0101,-0.1311,-0.1814,-0.1814,-0.1729,-0.4413,-0.802,-0.8319,-0.8601,-0.8628,-0.8767,-0.8811,-0.8828,-0.8913,-0.894,-0.894,-0.894,-0.894,-0.894,-0.894,-0.894,-0.894,-0.894,-0.894,-0.8998,-0.9211,-0.9218,-0.9181,-0.9157,-0.91,-0.9032,-0.895,-0.894,-0.894,-0.894,-0.894,-0.894,-0.894,-0.894,-0.894,-0.894,-0.894,-0.894,-0.894,-0.894,-0.894,-0.894,-0.894,-0.894,-0.894,-0.894,-0.894,-0.894,-0.894,-0.894,-0.894,-0.894,-0.894,-0.894,-0.894,-0.8826,-0.8826,-0.8826,-0.8676,-0.86,-0.8541,-0.8388,-0.8282,-0.819,-0.8116,-0.8038,-0.8038,-0.8038,-0.8038]},{"header":{"parameterUnit":"m.s-1","parameterCategory":1,"la1":30.6,"la2":28.766,"lo1":-90.7593,"lo2":-88.6598,"dy":0.0162,"dx":0.0183,"nx":116,"ny":114,"refTime":"2023-06-05T18:00:00:Z","depth":0,"parameterNumber":3,"parameterNumberName":"V-component_of_WINDS"},"data":[0.0,0.0,0.0,0.0,0.0,0.0,0.0,0.0,0.0,0.0,0.0,0.0,0.0,0.0,0.0,0.0,0.0,0.0,0.0,0.0,0.0,0.0,0.0,0.0,0.0,0.0,0.0,0.0,0.0,0.0,0.0,0.0,0.0,0.0,0.0,0.0,0.0,0.0,0.0,0.0,0.0,0.0,0.0,0.0,0.0,0.0,0.0,0.0,0.0,0.0,0.0,0.0,0.0,0.0,0.0,0.0,0.0,0.0,0.0,0.0,0.0,0.0,0.0,0.0,0.0,0.0,0.0,0.0,0.0,0.0,0.0,0.0,0.0,0.0,0.0,0.0,0.0,0.0,0.0,0.0,0.0,0.0,0.0,0.0,0.0,0.0,0.0,0.0,0.0,0.0,0.0,0.0,0.0,0.0,0.0,0.0,0.0,0.0,0.0,0.0,0.0,0.0,0.0,0.0,0.0,0.0,0.0,0.0,0.0,0.0,0.0,0.0,0.0,0.0,0.0,0.0,0.0,0.0,0.0,0.0,0.0,0.0,0.0,0.0,0.0,0.0,0.0,0.0,0.0,0.0,0.0,0.0,0.0,0.0,0.0,0.0,0.0,0.0,0.0,0.0,0.0,0.0,0.0,0.0,0.0,0.0,0.0,0.0,0.0,0.0,0.0,0.0,0.0,0.0,0.0,0.0,0.0,0.0,0.0,0.0,0.0,0.0,0.0,0.0,0.0,0.0,0.0,0.0,0.0,0.0,0.0,0.0,0.0,0.0,0.0,0.0,0.0,0.0,0.0,0.0,0.0,0.0,0.0,0.0,0.0,0.0,0.0,0.0,0.0,0.0,0.0,0.0,0.0,0.0,0.0,0.0,0.0,0.0,0.0,0.0,0.0,0.0,0.0,0.0,0.0,0.0,0.0,0.0,0.0,0.0,0.0,0.0,0.0,0.0,0.0,0.0,0.0,0.0,0.0,0.0,0.0,0.0,0.0,0.0,0.0,0.0,0.0,0.0,0.0,0.0,0.0,0.0,0.0,0.0,0.0,0.0,0.0,0.0,0.0,0.0,0.0,0.0,0.0,0.0,0.0,0.0,0.0,0.0,0.0,0.0,0.0,0.0,0.0,0.0,0.0,0.0,0.0,0.0,0.0,0.0,0.0,0.0,0.0,0.0,0.0,0.0,0.0,0.0,0.0,0.0,0.0,0.0,0.0,0.0,0.0,0.0,0.0,0.0,0.0,0.0,0.0,0.0,0.0,0.0,0.0,0.0,0.0,0.0,0.0,0.0,0.0,0.0,0.0,0.0,0.0,0.0,0.0,0.0,0.0,0.0,0.0,0.0,0.0,0.0,0.0,0.0,0.0,0.0,0.0,0.0,0.0,0.0,0.0,0.0,0.0,0.0,0.0,0.0,0.0,0.0,0.0,0.0,0.0,0.0,0.0,0.0,0.0,0.0,0.0,0.0,0.0,0.0,0.0,0.0,0.0,0.0,0.0,0.0,0.0,0.0,0.0,0.0,0.0,0.0,0.0,0.0,0.0,0.0,0.0,0.0,0.0,0.0,0.0,0.0,0.0,0.0,0.0,0.0,0.0,0.0,0.0,0.0,0.0,0.0,0.0,0.0,0.0,0.0,0.0,0.0,0.0,0.0,0.0,0.0,0.0,0.0,0.0,0.0,0.0,0.0,0.0,0.0,0.0,0.0,0.0,0.0,0.0,0.0,0.0,0.0,0.0,0.0,0.0,0.0,0.0,0.0,0.0,0.0,0.0,0.0,0.0,0.0,0.0,0.0,0.0,0.0,0.0,0.0,0.0,0.0,0.0,0.0,0.0,0.0,0.0,0.0,0.0,0.0,0.0,0.0,0.0,0.0,0.0,0.0,0.0,0.0,0.0,0.0,0.0,0.0,0.0,0.0,0.0,0.0,0.0,0.0,0.0,0.0,0.0,0.0,0.0,0.0,0.0,0.0,0.0,0.0,0.0,0.0,0.0,0.0,0.0,0.0,0.0,0.0,0.0,0.0,0.0,0.0,0.0,0.0,0.0,0.0,0.0,0.0,0.0,0.0,0.0,0.0,0.0,0.0,0.0,0.0,0.0,0.0,0.0,0.0,0.0,0.0,0.0,0.0,0.0,0.0,0.0,0.0,0.0,0.0,0.0,0.0,0.0,0.0,0.0,0.0,0.0,0.0,0.0,0.0,0.0,0.0,0.0,0.0,0.0,0.0,0.0,0.0,0.0,0.0,0.0,0.0,0.0,0.0,0.0,0.0,0.0,0.0,0.0,0.0,0.0,0.0,0.0,0.0,0.0,0.0,0.0,0.0,0.0,0.0,0.0,0.0,0.0,0.0,0.0,0.0,0.0,0.0,0.0,0.0,0.0,0.0,0.0,0.0,0.0,0.0,0.0,0.0,0.0,0.0,0.0,0.0,0.0,0.0,0.0,0.0,0.0,0.0,0.0,0.0,0.0,0.0,0.0,0.0,0.0,0.0,0.0,0.0,0.0,0.0,0.0,0.0,0.0,0.0,0.0,0.0,0.0,0.0,0.0,0.0,0.0,0.0,0.0,0.0,0.0,0.0,0.0,0.0,0.0,0.0,0.0,0.0,0.0,0.0,0.0,0.0,0.0,0.0,0.0,0.0,0.0,0.0,0.0,0.0,0.0,0.0,0.0,0.0,0.0,0.0,0.0,0.0,0.0,0.0,0.0,0.0,0.0,0.0,0.0,0.0,0.0,0.0,0.0,0.0,0.0,0.0,0.0,0.0,0.0,0.0,0.0,0.0,0.0,0.0,0.0,0.0,0.0,0.0,0.0,0.0,0.0,0.0,0.0,0.0,0.0,0.0,0.0,0.0,0.0,0.0,0.0,0.0,0.0,0.0,0.0,0.0,0.0,0.0,0.0,0.0,0.0,0.0,0.0,0.0,0.0,0.0,0.0,0.0,0.0,0.0,0.0,0.0,0.0,0.0,0.0,0.0,0.0,0.0,0.0,0.0,0.0,0.0,0.0,0.0,0.0,0.0,0.0,0.0,0.0,0.0,0.0,0.0,0.0,0.0,0.0,0.0,0.0,0.0,0.0,0.0,0.0,0.0,0.0,0.0,0.0,0.0,0.0,0.0,0.0,0.0,0.0,0.0,0.0,0.0,0.0,0.0,0.0,0.0,0.0,0.0,0.0,0.0,0.0,0.0,0.0,0.0,0.0,0.0,0.0,0.0,0.0,0.0,0.0,0.0,0.0,0.0,0.0,0.0,0.0,0.0,0.0,0.0,0.0,0.0,0.0,0.0,0.0,0.0,0.0,0.0,0.0,0.0,0.0,0.0,0.0,0.0,0.0,0.0,0.0,0.0,0.0,0.0,0.0,0.0,0.0,0.0,0.0,0.0,0.0,0.0,0.0,0.0,0.0,0.0,0.0,0.0,0.0,0.0,0.0,0.0,0.0,0.0,0.0,0.0,0.0,0.0,0.0,0.0,0.0,0.0,0.0,0.0,0.0,0.0,0.0,0.0,0.0,0.0,0.0,0.0,0.0,0.0,0.0,0.0,0.0,0.0,0.0,0.0,0.0,0.0,0.0,0.0,0.0,0.0,0.0,0.0,0.0,0.0,0.0,0.0,0.0,0.0,0.0,0.0,0.0,0.0,0.0,0.0,0.0,0.0,0.0,0.0,0.0,0.0,0.0,0.0,0.0,0.0,0.0,0.0,0.0,0.0,0.0,0.0,0.0,0.0,0.0,0.0,0.0,0.0,0.0,0.0,0.0,0.0,0.0,0.0,0.0,0.0,0.0,0.0,0.0,0.0,0.0,0.0,0.0,0.0,0.0,0.0,0.0,0.0,0.0,0.0,0.0,0.0,0.0,0.0,0.0,0.0,0.0,0.0,0.0,0.0,0.0,0.0,0.0,0.0,0.0,0.0,0.0,0.0,0.0,0.0,0.0,0.0,0.0,0.0,0.0,0.0,0.0,0.0,0.0,0.0,0.0,0.0,0.0,0.0,0.0,0.0,0.0,0.0,0.0,0.0,0.0,0.0,0.0,0.0,0.0,0.0,0.0,0.0,0.0,0.0,0.0,0.0,0.0,0.0,0.0,0.0,0.0,0.0,0.0,0.0,0.0,0.0,0.0,0.0,0.0,0.0,0.0,0.0,0.0,0.0,0.0,0.0,0.0,0.0,0.0,0.0,0.0,0.0,0.0,0.0,0.0,0.0,0.0,0.0,0.0,0.0,0.0,0.0,0.0,0.0,0.0,0.0,0.0,0.0,0.0,0.0,0.0,0.0,0.0,0.0,0.0,0.0,0.0,0.0,0.0,0.0,0.0,0.0,0.0,0.0,0.0,0.0,0.0,0.0,0.0,0.0,0.0,0.0,0.0,0.0,0.0,0.0,0.0,0.0,0.0,0.0,0.0,0.0,0.0,0.0,0.0,0.0,0.0,0.0,0.0,0.0,0.0,0.0,0.0,0.0,0.0,0.0,0.0,0.0,0.0,0.0,0.0,0.0,0.0,0.0,0.0,0.0,0.0,0.0,0.0,0.0,0.0,0.0,0.0,0.0,0.0,0.0,0.0,0.0,0.0,0.0,0.0,0.0,0.0,0.0,0.0,0.0,0.0,0.0,0.0,0.0,0.0,0.0,0.0,0.0,0.0,0.0,0.0,0.0,0.0,0.0,0.0,0.0,0.0,0.0,0.0,0.0,0.0,0.0,0.0,0.0,0.0,0.0,0.0,0.0,0.0,0.0,0.0,0.0,0.0,0.0,0.0,0.0,0.0,0.0,0.0,0.0,0.0,0.0,0.0,0.0,0.0,0.0,0.0,0.0,0.0,0.0,0.0,0.0,0.0,0.0,0.0,0.0,0.0,0.0,0.0,0.0,0.0,0.0,0.0,0.0,0.0,0.0,0.0,0.0,0.0,0.0,0.0,0.0,0.0,0.0,0.0,0.0,0.0,0.0,0.0,0.0,0.0,0.0,0.0,0.0,0.0,0.0,0.0,0.0,0.0,0.0,0.0,0.0,0.0,0.0,0.0,0.0,0.0,0.0,0.0,0.0,0.0,0.0,0.0,0.0,0.0,0.0,0.0,0.0,0.0,0.0,0.0,0.0,0.0,0.0,0.0,0.0,0.0,0.0,0.0,0.0,0.0,0.0,0.0,0.0,0.0,0.0,0.0,0.0,0.0,0.0,0.0,0.0,0.0,0.0,0.0,0.0,0.0,0.0,0.0,0.0,0.0,0.0,0.0,0.0,0.0,0.0,0.0,0.0,0.0,0.0,0.0,0.0,0.0,0.0,0.0,0.0,0.0,0.0,0.0,0.0,0.0,0.0,0.0,0.0,0.0,0.0,0.0,0.0,0.0,0.0,0.0,0.0,0.0,0.0,0.0,0.0,0.0,0.0,0.0,0.0,0.0,0.0,0.0,0.0,0.0,0.0,0.0,0.0,0.0,0.0,0.0,0.0,0.0,0.0,0.0,0.0,0.0,0.0,0.0,0.0,0.0,0.0,0.0,0.0,0.0,0.0,0.0,0.0,0.0,0.0,0.0,0.0,0.0,0.0,0.0,0.0,0.0,0.0,0.0,0.0,0.0,0.0,0.0,0.0,0.0,0.0,0.0,0.0,0.0,0.0,0.0,0.0,0.0,0.0,0.0,0.0,0.0,0.0,0.0,0.0,0.0,0.0,0.0,0.0,0.0,0.0,0.0,0.0,0.0,0.0,0.0,0.0,0.0,0.0,0.0,0.0,0.0,0.0,0.0,0.0,0.0,0.0,0.0,0.0,0.0,0.0,0.0,0.0,0.0,0.0,0.0,0.0,0.0,0.0,0.0,0.0,0.0,0.0,0.0,0.0,0.0,0.0,0.0,0.0,0.0,0.0,0.0,0.0,0.0,0.0,0.0,0.0,0.0,0.0,0.0,0.0,0.0,0.0,0.0,0.0,0.0,0.0,0.0,0.0,0.0,0.0,0.0,0.0,0.0,0.0,0.0,0.0,0.0,0.0,0.0,0.0,0.0,0.0,0.0,0.0,0.0,0.0,0.0,0.0,0.0,0.0,0.0,0.0,0.0,0.0,0.0,0.0,0.0,0.0,0.0,0.0,0.0,0.0,0.0,0.0,-4.0138,-4.007,0.0,0.0,0.0,0.0,0.0,0.0,0.0,0.0,0.0,0.0,0.0,0.0,0.0,0.0,0.0,0.0,0.0,0.0,0.0,0.0,0.0,0.0,0.0,0.0,0.0,0.0,0.0,0.0,0.0,0.0,0.0,0.0,0.0,0.0,0.0,0.0,0.0,0.0,-2.9074,-2.9746,-3.0234,-3.0684,-3.0898,-3.0898,0.0,0.0,0.0,0.0,0.0,0.0,0.0,0.0,0.0,0.0,0.0,0.0,0.0,0.0,0.0,0.0,0.0,0.0,0.0,0.0,0.0,0.0,0.0,0.0,0.0,0.0,0.0,0.0,0.0,0.0,0.0,0.0,0.0,0.0,0.0,0.0,0.0,0.0,0.0,0.0,0.0,0.0,0.0,0.0,0.0,0.0,0.0,0.0,0.0,0.0,0.0,0.0,0.0,0.0,0.0,0.0,0.0,0.0,0.0,0.0,0.0,0.0,0.0,0.0,0.0,0.0,0.0,0.0,0.0,0.0,0.0,-4.1136,0.0,0.0,0.0,0.0,0.0,0.0,0.0,0.0,0.0,0.0,0.0,0.0,0.0,0.0,0.0,0.0,0.0,0.0,0.0,0.0,0.0,0.0,0.0,0.0,-3.0164,-3.0228,-3.0425,-3.0508,0.0,0.0,0.0,0.0,0.0,0.0,0.0,-2.9115,-2.8867,-2.8405,-2.9592,-3.0723,-3.1797,-3.1934,-3.2109,-3.2207,-3.1309,0.0,0.0,0.0,0.0,0.0,0.0,0.0,0.0,0.0,0.0,0.0,0.0,0.0,0.0,0.0,0.0,0.0,0.0,0.0,0.0,0.0,0.0,0.0,0.0,0.0,0.0,0.0,0.0,0.0,0.0,0.0,0.0,0.0,0.0,0.0,0.0,0.0,0.0,0.0,0.0,0.0,0.0,0.0,0.0,0.0,0.0,0.0,0.0,0.0,0.0,0.0,0.0,0.0,0.0,0.0,0.0,0.0,0.0,0.0,0.0,0.0,0.0,0.0,-4.4087,-4.579,-4.6989,-4.7107,-4.731,-4.7411,-4.4654,-4.3166,-4.2675,-4.254,0.0,0.0,0.0,0.0,0.0,0.0,0.0,0.0,0.0,0.0,0.0,0.0,0.0,0.0,0.0,0.0,0.0,0.0,0.0,0.0,0.0,-3.0788,-3.0894,-3.1112,-3.1177,-3.0958,0.0,0.0,0.0,0.0,0.0,0.0,-2.9132,-2.8489,-2.8519,-2.9252,-3.1698,-3.3711,-3.5332,-3.6094,-3.6855,-3.7383,-3.2891,-3.1719,-3.2988,0.0,0.0,0.0,0.0,0.0,0.0,0.0,0.0,0.0,0.0,0.0,0.0,0.0,0.0,0.0,0.0,0.0,0.0,0.0,0.0,0.0,0.0,0.0,0.0,0.0,0.0,0.0,0.0,0.0,0.0,0.0,0.0,0.0,0.0,0.0,0.0,0.0,0.0,0.0,0.0,0.0,-3.097,-3.1173,0.0,0.0,0.0,0.0,0.0,0.0,0.0,0.0,0.0,0.0,0.0,0.0,0.0,-3.8129,-4.0631,-4.2374,-4.3701,-4.4713,-4.7182,-4.8152,-4.78,-4.8426,-4.9407,-5.0541,-4.8849,0.0,-4.4215,-4.3538,0.0,0.0,0.0,0.0,0.0,0.0,0.0,0.0,0.0,0.0,0.0,0.0,0.0,0.0,0.0,0.0,0.0,0.0,0.0,0.0,0.0,-3.1374,-3.1747,-3.2019,-3.2579,-3.2415,-3.1205,-3.1545,0.0,0.0,0.0,-2.9833,-2.9833,-2.9544,-3.0367,-3.232,-3.4039,-3.5742,-3.7461,-3.7851,-3.8223,-3.8496,-3.623,-3.4824,-3.4043,-3.2812,0.0,0.0,0.0,0.0,0.0,0.0,0.0,0.0,0.0,0.0,0.0,0.0,0.0,0.0,0.0,0.0,0.0,0.0,0.0,0.0,0.0,0.0,0.0,0.0,0.0,0.0,0.0,0.0,0.0,0.0,0.0,0.0,0.0,0.0,0.0,0.0,0.0,0.0,0.0,-3.097,-3.2138,-3.1292,-3.1935,-3.2104,0.0,0.0,0.0,0.0,0.0,0.0,0.0,0.0,0.0,-3.8959,-4.0039,-4.1106,-4.2341,-4.4754,-4.6378,-4.7059,-4.9953,-5.1665,-5.2317,-5.2638,-5.3129,-5.3704,-5.3061,-5.1319,-4.8765,-4.6769,-4.5077,-4.3656,0.0,0.0,0.0,0.0,-4.3453,-4.3809,0.0,0.0,0.0,0.0,0.0,0.0,0.0,0.0,0.0,0.0,0.0,0.0,-3.1826,-3.2637,-3.3279,-3.3522,-3.4098,-3.3742,-3.2122,-3.2179,0.0,0.0,-3.0398,-3.0398,-3.0398,-3.0912,-3.2426,-3.4969,-3.6323,-3.7871,-3.957,-4.0039,-4.0351,-4.0566,-4.0332,-3.8789,-3.6269,-3.4726,-3.3476,-3.2461,0.0,0.0,0.0,0.0,0.0,0.0,0.0,0.0,0.0,0.0,0.0,0.0,0.0,0.0,0.0,0.0,0.0,0.0,0.0,0.0,0.0,0.0,0.0,0.0,0.0,0.0,0.0,0.0,0.0,0.0,0.0,0.0,0.0,0.0,0.0,0.0,0.0,-3.1698,-3.3068,-3.1393,-3.3017,-3.3609,0.0,0.0,0.0,0.0,0.0,0.0,-3.8075,-3.8998,-4.0282,-4.1922,-4.3059,-4.3834,-4.4491,-4.7187,-4.9006,-4.9936,-5.2768,-5.4711,-5.5733,-5.5919,-5.5987,-5.5987,-5.5801,-5.4854,-5.3213,-5.0067,-4.7784,-4.6194,-4.5449,-4.5145,-4.5213,-4.5771,-4.6109,-4.6363,0.0,0.0,0.0,0.0,0.0,0.0,0.0,0.0,0.0,0.0,0.0,-3.1542,-3.3877,-3.5139,-3.5874,-3.6115,-3.5465,-3.4419,-3.2936,-3.1391,-3.0494,-3.0398,-3.0398,-3.0398,-3.0398,-3.2147,-3.4003,-3.5937,-3.8457,-4.0566,-4.2246,-4.3906,-4.5117,-4.5879,-4.5058,-4.3262,-4.0644,-3.7285,-3.6309,-3.6699,-3.3437,0.0,0.0,0.0,0.0,0.0,0.0,0.0,0.0,0.0,0.0,0.0,0.0,0.0,0.0,0.0,0.0,0.0,0.0,0.0,0.0,0.0,0.0,0.0,0.0,0.0,0.0,0.0,0.0,0.0,0.0,0.0,0.0,0.0,0.0,0.0,0.0,0.0,0.0,-3.1461,-3.4404,0.0,0.0,0.0,0.0,-3.8324,-3.9601,-4.1031,-4.2604,-4.2342,-4.2967,-4.4682,-4.5054,-4.628,-4.8693,-5.0454,-5.211,-5.3865,-5.5722,-5.6271,-5.5733,-5.6444,-5.6748,-5.6714,-5.6021,-5.6038,-5.6292,-5.2587,-4.9763,-4.7733,-4.6972,-4.6684,-4.6684,-4.6718,-4.7192,-4.7504,0.0,0.0,0.0,0.0,0.0,0.0,0.0,0.0,-2.9978,-3.0155,-3.1339,-3.297,-3.5176,-3.6367,-3.7563,-3.8898,-3.8281,-3.6876,-3.4705,-3.3487,-3.2102,-3.0456,-3.0398,-3.0979,-3.2189,-3.345,-3.5814,-3.9355,-4.0801,-4.2676,-4.4922,-4.5547,-4.5996,-4.6289,-4.5976,-4.5644,-4.5058,-4.1055,-3.8555,-3.7109,-3.4746,-3.3281,0.0,0.0,0.0,0.0,0.0,0.0,0.0,0.0,0.0,0.0,0.0,0.0,0.0,0.0,0.0,0.0,0.0,0.0,0.0,0.0,0.0,0.0,0.0,0.0,0.0,0.0,0.0,0.0,0.0,0.0,0.0,0.0,0.0,0.0,0.0,0.0,0.0,-3.6248,-3.865,0.0,-3.8548,-3.9428,-4.0034,-3.9967,-4.1973,-4.3368,-4.3791,-4.5095,-4.6858,-4.9059,-5.0151,-5.1199,-5.2288,-5.4474,-5.538,-5.488,-5.7137,-5.7831,-5.7137,-5.7881,-5.7966,-5.7492,-5.7222,-5.6917,-5.6423,-5.5126,-5.3365,-5.1437,-5.0642,-4.9852,-4.9249,-4.9902,-5.0075,-5.0045,0.0,0.0,0.0,0.0,0.0,0.0,0.0,0.0,-3.0037,-3.0669,-3.2151,-3.4137,-3.669,-3.7926,-3.9227,-4.0816,-3.9662,-3.7892,-3.5661,-3.416,-3.2468,-3.0494,-3.0999,-3.2189,-3.4067,-3.5589,-3.8085,-4.1601,-4.2734,-4.416,-4.5879,-4.6152,-4.6308,-4.6308,-4.6308,-4.6621,-4.6992,-4.4433,-4.1855,-3.9277,-3.7266,-3.5937,-3.4844,0.0,0.0,0.0,0.0,0.0,0.0,0.0,0.0,0.0,0.0,0.0,0.0,0.0,0.0,0.0,0.0,0.0,0.0,0.0,0.0,0.0,0.0,0.0,0.0,0.0,0.0,0.0,0.0,0.0,0.0,0.0,0.0,0.0,0.0,-3.6332,-3.9106,-3.9343,-4.1999,-4.342,-4.2439,-4.3266,-4.3783,-4.3364,-4.5279,-4.6491,-4.6693,-4.8291,-5.0144,-5.2109,-5.3342,-5.4341,-5.5259,-5.6938,-5.7373,-5.6587,-5.821,-5.8609,-5.7898,-5.8406,-5.8355,-5.7881,-5.7881,-5.7509,-5.6884,-5.6908,-5.5839,-5.4127,-5.3095,-5.22,-5.1577,-5.2267,-5.2252,-5.2151,0.0,0.0,0.0,0.0,0.0,0.0,0.0,-2.9049,-2.9701,-3.1592,-3.2822,-3.4926,-3.8536,-3.9857,-4.0854,-4.1758,-3.9488,-3.7296,-3.5608,-3.3109,-3.1333,-3.0525,-3.2201,-3.406,-3.5987,-3.852,-4.0711,-4.248,-4.418,-4.5019,-4.5058,-4.5898,-4.6308,-4.6308,-4.6308,-4.6328,-4.6406,-4.7266,-4.6172,-4.3633,-4.1055,-3.9492,-3.834,0.0,0.0,0.0,0.0,0.0,0.0,0.0,0.0,0.0,0.0,0.0,0.0,0.0,0.0,0.0,0.0,0.0,0.0,0.0,0.0,0.0,0.0,0.0,0.0,0.0,0.0,0.0,0.0,0.0,0.0,0.0,0.0,0.0,-3.3609,-3.8058,-4.1085,-4.0476,-4.4265,-4.638,-4.4959,-4.7428,-4.8979,-4.8676,-4.9644,-5.0607,-5.1358,-5.1795,-5.2464,-5.3678,-5.4434,-5.5718,-5.7532,-5.7645,-5.8053,-5.9015,-5.9049,-5.866,-5.7881,-5.7932,-5.7915,-5.7881,-5.7881,-5.7925,-5.7916,-5.7899,-5.6998,-5.5519,-5.411,-5.3534,-5.3501,-5.3501,-5.3501,-5.3467,0.0,0.0,0.0,0.0,0.0,0.0,0.0,-3.0246,-3.0549,-3.2426,-3.3667,-3.5742,-3.9376,-4.0202,-4.1104,-4.2604,-3.9835,-3.7213,-3.5331,-3.3018,-3.1903,-3.2343,-3.3498,-3.5551,-3.8655,-4.0097,-4.1941,-4.4297,-4.4766,-4.5312,-4.5957,-4.6191,-4.6308,-4.6308,-4.6308,-4.6641,-4.7305,-4.8164,-4.8125,-4.7187,-4.3945,-4.2129,-4.0976,0.0,0.0,0.0,0.0,0.0,0.0,0.0,0.0,0.0,0.0,0.0,0.0,0.0,0.0,0.0,0.0,0.0,0.0,0.0,0.0,0.0,0.0,0.0,0.0,0.0,0.0,0.0,0.0,0.0,0.0,0.0,-3.5064,-3.7652,-3.8193,-4.1356,-4.4333,-4.6329,-4.8595,-5.005,-5.0168,-5.0913,-5.1044,-5.0278,-5.1665,-5.2481,-5.2204,-5.2939,-5.4352,-5.6284,-5.7102,-5.8078,-5.9379,-5.9951,-5.9852,-5.9015,-5.9919,-5.9495,-5.7915,-5.9027,-5.8925,-5.7881,-5.7891,-5.7895,-5.7899,-5.7909,-5.6387,-5.4193,-5.4856,-5.4466,-5.3501,-5.3501,-5.3501,-5.3467,0.0,0.0,0.0,0.0,0.0,0.0,0.0,-3.0999,-3.1297,-3.2957,-3.4067,-3.595,-3.9204,-3.9476,-3.9957,-4.1182,-3.8517,-3.6044,-3.4289,-3.2935,-3.2788,-3.4084,-3.5752,-3.7962,-4.0799,-4.2114,-4.3691,-4.5547,-4.5547,-4.5801,-4.6308,-4.6308,-4.6308,-4.6328,-4.668,-4.7129,-4.7676,-4.8926,-4.9648,-4.9746,-4.7363,-4.5683,-4.4199,-4.0742,-3.8809,-3.7676,-3.5723,-3.4551,-3.3711,-3.2207,0.0,0.0,0.0,0.0,0.0,0.0,0.0,0.0,0.0,0.0,0.0,0.0,0.0,0.0,0.0,0.0,0.0,0.0,0.0,0.0,0.0,0.0,0.0,0.0,-3.7821,-4.073,-4.3064,-4.4857,-4.6802,-4.9171,-5.076,-5.1961,-5.2739,-5.2807,-5.2573,-5.1994,-5.2556,-5.3041,-5.3139,-5.3834,-5.5355,-5.7752,-5.8711,-5.9778,-6.102,-6.1494,-6.1282,-6.0472,-6.0557,-5.965,-5.7942,-5.8783,-5.8681,-5.7878,-5.7919,-5.7236,-5.6074,-5.6063,-5.5025,0.0,0.0,0.0,0.0,0.0,-5.3517,-5.3516,0.0,0.0,0.0,0.0,0.0,0.0,0.0,-3.1586,-3.2038,-3.3372,-3.428,-3.5777,-3.8385,-3.8139,-3.8035,-3.8613,-3.6304,-3.4209,-3.2814,-3.2904,-3.3878,-3.5815,-3.8452,-4.0725,-4.2539,-4.4277,-4.5527,-4.6308,-4.6308,-4.6308,-4.6308,-4.6308,-4.6308,-4.6328,-4.7109,-4.7441,-4.7558,-4.9219,-5.0371,-5.1055,-5.0332,-4.9199,-4.7519,-4.4121,-4.2715,-4.2109,-3.8789,-3.666,-3.5351,-3.4902,0.0,0.0,0.0,0.0,0.0,0.0,0.0,0.0,0.0,0.0,0.0,0.0,0.0,0.0,0.0,0.0,0.0,0.0,0.0,0.0,0.0,0.0,0.0,0.0,-4.051,-4.3098,-4.7428,-4.8189,-4.8798,-5.0168,-5.1572,-5.2723,-5.3433,-5.3501,-5.3534,-5.3619,-5.2983,-5.3107,-5.4237,-5.4677,0.0,0.0,0.0,-6.0766,-6.2387,-6.2268,-6.2165,-6.2124,-6.0921,-5.9494,-5.7899,-5.7545,-5.7428,-5.7428,-5.7394,-5.596,-5.3498,-5.3465,-5.35,-5.3501,-5.3501,-5.3501,-5.3501,-5.3501,-5.3533,-5.343,0.0,0.0,0.0,0.0,0.0,0.0,0.0,-3.2779,-3.2884,-3.4275,-3.4977,-3.5982,-3.7661,-3.7103,-3.695,-3.7754,-3.4912,-3.2672,-3.1656,-3.2875,-3.4845,-3.7589,-4.021,-4.246,-4.4277,-4.5449,-4.6133,-4.6308,-4.6308,-4.6308,-4.6308,-4.6308,-4.6308,-4.6308,-4.6484,-4.6543,-4.6621,-4.7656,-4.8594,-4.9375,-4.9219,-4.9375,-4.9394,-4.6601,-4.4668,-4.3086,-4.0371,-3.9629,-3.9512,-3.668,-3.5254,-3.4431,-3.3108,-3.11,0.0,0.0,0.0,0.0,0.0,0.0,0.0,0.0,0.0,0.0,0.0,0.0,0.0,0.0,0.0,0.0,0.0,0.0,0.0,-3.946,-4.2151,-4.506,-4.8342,-4.983,-5.0896,-5.1775,-5.2706,-5.3331,-5.3484,-5.3501,-5.3754,-5.4329,-5.4236,-5.4766,-5.6191,-5.6365,-5.7271,-5.9161,-5.9455,-6.0476,-6.2412,-6.1204,-6.0551,-6.0557,0.0,0.0,-5.7848,-5.5457,-5.4354,-5.4354,-5.4325,-5.4057,-5.3481,-5.3483,-5.3467,-5.3501,-5.3501,-5.3501,-5.3501,-5.3501,-5.3484,-5.3162,0.0,0.0,0.0,0.0,0.0,0.0,0.0,-3.3458,-3.3493,-3.4342,-3.4689,-3.5273,-3.643,-3.5533,-3.4984,-3.5262,-3.2836,-3.1603,-3.2359,-3.4194,-3.6669,-3.9858,-4.2133,-4.3943,-4.5323,-4.5913,-4.623,-4.6308,-4.6308,-4.6308,-4.6308,-4.6758,-4.6953,-4.6992,-4.7851,-4.8242,-4.8281,-4.8711,-4.9141,-4.9512,-4.9082,-4.916,-4.9355,-4.7617,-4.6133,-4.4726,-4.2578,-4.1543,-4.0801,-3.8184,-3.6684,-3.5725,-3.4754,-3.3219,-3.1628,0.0,0.0,0.0,0.0,0.0,0.0,0.0,0.0,0.0,0.0,0.0,0.0,0.0,0.0,-3.4146,-3.5057,0.0,-3.9671,-4.2458,-4.4468,-4.6718,-4.9695,-5.0422,-5.1065,-5.2164,-5.301,-5.3501,-5.3501,-5.3501,-5.3805,-5.4532,-5.4435,-5.5051,-5.6731,-5.6633,-5.7364,-5.9343,-5.9394,-6.033,-6.2387,-6.1599,-5.9735,-5.6824,-5.9054,-5.8612,-5.5649,-5.4157,-5.3515,-5.3515,-5.3483,-5.35,-5.3483,-5.3467,-5.3501,-5.3501,-5.3501,-5.3501,-5.3501,-5.3501,-5.35,-5.3263,0.0,0.0,0.0,0.0,0.0,0.0,0.0,-3.3807,-3.3902,-3.4152,-3.4152,-3.4407,-3.5187,-3.3958,-3.2874,-3.2352,-3.105,-3.1175,-3.3355,-3.5659,-3.8411,-4.1662,-4.3717,-4.5128,-4.588,-4.6066,-4.6191,-4.6308,-4.6308,-4.6387,-4.6562,-4.7266,-4.7695,-4.791,-4.9316,-4.9941,-4.9941,-4.9941,-4.9941,-4.9863,-4.9004,-4.8652,-4.8535,-4.748,-4.6758,-4.6035,-4.3965,-4.2129,-4.043,-3.8672,-3.7001,-3.5662,-3.5697,-3.5052,-3.3999,-3.2398,-3.1059,0.0,0.0,0.0,0.0,0.0,0.0,0.0,0.0,-3.0797,-3.1799,-3.4147,-3.5521,-3.6951,-3.9001,-4.0522,-4.2381,-4.5235,-4.6447,-4.7936,-5.0625,-5.0473,-5.0574,-5.1928,-5.279,-5.3331,-5.3484,-5.3501,-5.3873,-5.4752,-5.4534,-5.5088,-5.6896,-5.6721,-5.7296,-5.9072,-5.9089,-5.9876,-6.1538,-6.0977,-5.8545,-5.4387,-5.6145,-5.5824,-5.3481,-5.3518,-5.3501,-5.3501,-5.3501,-5.3501,-5.3501,-5.3501,-5.3501,-5.3501,-5.3501,-5.3501,-5.3501,-5.3501,-5.3466,-5.3481,0.0,0.0,0.0,0.0,0.0,0.0,0.0,0.0,-3.3902,-3.4152,-3.3986,-3.3972,-3.4325,-3.2937,-3.139,-2.9913,-3.0631,-3.1819,-3.3393,-3.623,-3.9046,-4.1681,-4.4333,-4.5794,-4.5902,-4.6156,-4.6289,-4.6308,-4.6308,-4.6699,-4.7461,-4.7558,-4.8008,-4.8769,-4.8965,-4.9043,-4.9043,-4.9043,-4.9043,-4.8965,-4.8105,-4.7754,-4.7578,-4.5918,-4.5703,-4.5879,-4.2637,-4.0351,-3.8613,-3.6875,-3.5606,-3.487,-3.5512,-3.5064,-3.4103,-3.3064,-3.0976,-2.8706,-2.7483,-2.6391,-2.6107,-2.8209,-2.8792,-3.0044,0.0,-3.4963,-3.5034,-3.7098,-3.8811,-3.9905,-3.9782,-4.2158,-4.4473,-4.5534,-4.6887,-4.8359,-4.9982,-5.0135,-5.0388,-5.1251,-5.1995,-5.2706,-5.3433,-5.3501,-5.4093,-5.548,-5.5508,-5.6149,-5.7695,-5.7758,-5.7842,-5.8034,-5.8044,-5.8188,-5.8396,-5.5767,-5.5499,-5.7411,-5.5059,-5.3805,-5.3481,-5.3518,-5.3501,-5.3501,-5.3501,-5.3501,-5.3501,-5.3501,-5.3501,-5.3501,-5.3501,-5.3501,-5.3501,-5.3501,-5.3484,-5.3467,0.0,0.0,0.0,0.0,0.0,0.0,0.0,0.0,0.0,0.0,-3.385,-3.3842,-3.3961,-3.2521,-3.1168,-3.0193,-3.0263,-3.1528,-3.4257,-3.6274,-3.8926,-4.2447,-4.4278,-4.5451,-4.6007,-4.6125,-4.6222,-4.6308,-4.6816,-4.7246,-4.7617,-4.8633,-4.9316,-4.9687,-5.0156,-5.0644,-5.1055,-5.0078,-4.9668,-4.9531,-4.8164,-4.6992,-4.5898,-4.4141,-4.2793,-4.1621,-4.0195,-3.8242,0.0,-3.4355,-3.3476,-3.3122,-3.3404,-3.3192,-3.2628,-3.1577,-3.0423,-2.9364,-2.8703,-2.8363,-2.8668,-3.0613,-3.2192,-3.3917,-3.6413,-3.7074,-3.7656,-3.9451,-4.0536,-4.1427,-4.2103,-4.3512,-4.4959,-4.6143,-4.7225,-4.8426,-4.9881,-4.9357,-4.9255,-5.0422,-5.0456,-5.1014,-5.2638,-5.2807,-5.3433,-5.4955,-5.548,-5.6122,-5.6964,-5.7565,-5.7874,-5.7874,-5.7936,-5.7083,-5.5325,-5.4155,-5.414,-5.5315,-5.4058,-5.35,-5.3483,-5.3467,-5.3501,-5.3501,-5.3501,-5.3501,-5.3501,-5.3501,-5.3501,-5.3501,-5.3501,-5.3501,-5.3501,-5.3501,-5.3501,-5.3484,0.0,0.0,0.0,0.0,0.0,0.0,0.0,0.0,0.0,0.0,-3.3807,-3.3715,-3.3495,-3.2286,-3.1251,-3.0637,-3.0114,-3.1113,-3.423,-3.5978,-3.8483,-4.2019,-4.3808,-4.5049,-4.5738,-4.5998,-4.6199,-4.6308,-4.7168,-4.7715,-4.7988,-4.9492,-5.0449,-5.0898,-5.125,-5.1875,-5.2598,-5.1152,-5.0254,-4.9726,-4.8476,-4.6621,-4.4433,-4.2461,-3.9961,-3.748,-3.7246,-3.5484,-3.3044,-3.1597,-3.1008,-3.0919,-3.11,-3.1263,-3.1181,-3.006,-2.9303,-2.8834,-2.8929,-2.9562,-3.0687,-3.2761,-3.5128,-3.7221,-3.8248,-3.9111,-4.0084,-4.1479,-4.1911,-4.2361,-4.3491,-4.4198,-4.501,-4.6278,-4.7293,-4.8359,-4.961,-4.8714,-4.8308,-4.9373,-4.8849,-4.9187,-5.12,-5.1944,-5.2942,-5.4465,-5.5091,-5.5666,-5.6187,-5.7301,-5.7695,-5.7335,-5.6913,-5.567,-5.3515,-5.353,-5.3498,-5.3501,-5.35,-5.3483,-5.3501,-5.3501,-5.3501,-5.3501,-5.3501,-5.3501,-5.3501,-5.3501,-5.3501,-5.3501,-5.3501,-5.3365,-5.3179,-5.3179,-5.3011,-5.2859,0.0,0.0,0.0,0.0,0.0,0.0,0.0,0.0,0.0,0.0,0.0,0.0,0.0,-3.213,-3.1477,-3.0658,-3.0237,-3.0769,-3.2642,-3.5369,-3.7699,-3.9524,-4.2927,-4.4818,-4.4837,-4.5787,-4.6308,-4.6308,-4.7168,-4.8027,-4.8887,-4.9785,-5.1074,-5.2598,-5.1777,-5.1875,-5.2637,-5.1738,-5.043,-4.8926,-4.8887,-4.6797,-4.3457,-4.0937,-3.7832,-3.4707,-3.3867,-3.1878,-2.9525,-2.8618,-2.8241,-2.8255,-2.9036,-2.9813,-3.022,-2.9142,-2.7411,-2.6133,-2.749,-2.8998,-3.0962,-3.4128,-3.6798,-3.9038,-4.0634,-4.1625,-4.2433,-4.3259,-4.312,-4.2864,-4.2917,-4.3853,-4.484,-4.5618,-4.6972,-4.8189,-4.8934,-4.8392,-4.7936,-4.797,-4.7327,-4.7462,-4.8951,-5.1048,-5.2942,-5.4465,-5.4617,-5.4955,-5.57,-5.7136,-5.7238,-5.5801,-5.4395,-5.3566,-5.3498,-5.3467,-5.3518,-5.3501,-5.3518,-5.3518,-5.3501,-5.3501,-5.3501,-5.3501,-5.3501,-5.3501,-5.3501,-5.3501,-5.3501,-5.3501,-5.3501,-5.3027,-5.2334,-5.2334,-5.1864,-5.1277,0.0,0.0,0.0,0.0,0.0,0.0,0.0,0.0,0.0,0.0,0.0,0.0,0.0,0.0,0.0,0.0,-3.1575,-3.1675,-3.3576,-3.4717,-3.6323,-3.8599,-4.1078,-4.2922,-4.4058,-4.4972,-4.5723,-4.6308,-4.7168,-4.8047,-4.8926,-4.9785,-5.0781,-5.1816,-5.1523,-5.1562,-5.1777,-5.0957,-4.9941,-4.875,-4.7012,-4.4609,-4.1621,-3.7871,-3.4647,-3.1851,0.0,-2.852,-2.7624,-2.6718,-2.6381,-2.6379,-2.6621,-2.6765,-2.6982,-2.7396,-2.7326,-2.7659,-3.027,-3.2577,-3.489,-3.7588,-3.968,-4.1368,-4.2451,-4.2892,-4.302,-4.2763,-4.1434,-4.0381,-4.0595,-4.0572,-4.1306,-4.3796,-4.5466,-4.7056,-4.8765,-4.8376,-4.7733,-4.7225,-4.6955,-4.7192,-4.8189,-4.939,-5.093,-5.2926,-5.3568,-5.3974,-5.419,-5.5295,-5.5432,-5.4241,-5.3753,-5.3518,-5.3518,-5.3467,-5.3501,-5.3501,-5.3501,-5.3501,-5.3501,-5.3501,-5.3501,-5.3501,-5.3501,-5.3501,-5.3501,-5.3501,-5.3196,-5.2706,-5.2706,-5.2249,-5.1589,-5.1589,-5.1085,-5.0511,0.0,0.0,0.0,0.0,0.0,0.0,0.0,0.0,0.0,0.0,0.0,0.0,0.0,0.0,0.0,0.0,0.0,-3.242,-3.368,-3.4487,-3.5527,-3.6918,-3.9053,-4.0586,-4.1406,-4.2266,-4.2988,-4.3555,-4.5019,-4.6035,-4.6621,-4.8437,-4.9707,-5.0508,-5.0508,-5.0683,-5.0898,-4.9746,-4.8418,-4.6875,-4.4863,-4.1992,-3.8516,-3.5098,-3.2171,0.0,-2.7248,-2.6381,-2.6275,-2.5659,-2.5447,-2.5428,-2.539,-2.5382,-2.5679,-2.6952,-2.7962,-2.942,-3.2963,-3.5514,-3.7734,-4.0139,-4.1754,-4.2855,-4.3369,-4.3497,-4.3185,-4.2103,-4.0236,-3.8776,-3.8702,-3.7965,-3.8457,-4.1713,-4.3284,-4.506,-4.7834,-4.7581,-4.7141,-4.7192,-4.7192,-4.7394,-4.7868,-4.8578,-4.9813,-5.1775,-5.2638,-5.3061,-5.3095,-5.394,-5.4143,-5.3551,-5.3501,-5.3501,-5.3501,-5.3501,-5.3501,-5.3501,-5.3501,-5.3501,-5.3501,-5.3501,-5.3534,-5.3466,-5.3467,-5.3281,-5.2992,-5.3331,-5.2875,-5.1944,-5.2198,-5.1691,-5.0811,-5.0811,-5.0338,-4.9763,0.0,0.0,0.0,0.0,0.0,0.0,0.0,0.0,0.0,0.0,0.0,0.0,0.0,0.0,0.0,0.0,0.0,0.0,-3.3057,-3.461,-3.5251,-3.4606,-3.6992,-3.8008,-3.7305,-3.8144,-3.8594,-3.8594,-4.1016,-4.2226,-4.2344,-4.5664,-4.7676,-4.8516,-4.8516,-4.8945,-4.9551,-4.791,-4.5742,-4.3359,-4.2441,-3.9082,-3.4453,-3.2753,-3.0462,-2.7894,-2.6179,-2.5486,-2.539,-2.539,-2.5409,-2.5437,-2.5398,-2.5755,-2.6465,-2.7923,-2.9326,-3.1329,-3.5385,-3.7661,-3.9441,-4.1772,-4.2928,-4.3479,-4.3442,-4.3406,-4.291,-4.128,-3.9535,-3.8013,-3.7137,-3.6212,-3.6552,-3.958,-4.0798,-4.2658,-4.6329,-4.6295,-4.638,-4.775,-4.7919,-4.7919,-4.7919,-4.8545,-4.956,-5.1048,-5.1843,-5.2266,-5.23,-5.3061,-5.3484,-5.345,-5.3484,-5.3501,-5.3501,-5.3501,-5.3501,-5.3501,-5.3501,-5.3501,-5.3501,-5.3501,-5.3533,-5.3479,-5.3348,-5.2806,-5.2055,-5.2992,-5.2486,-5.1217,-5.1911,-5.1302,-5.0033,-5.0033,-4.9593,-4.9103,0.0,0.0,0.0,0.0,0.0,0.0,0.0,0.0,0.0,0.0,0.0,0.0,0.0,0.0,0.0,0.0,0.0,0.0,-3.3885,-3.436,-3.4569,-3.4371,-3.6391,-3.7422,-3.7226,-3.8125,-3.8594,-3.8594,-3.9258,-3.9902,-4.0566,-4.1445,-4.2324,-4.3164,-4.3164,-4.293,-4.25,-4.2051,-4.1094,-3.9766,-3.8242,-3.6074,-3.3534,-3.1754,-2.9443,-2.7084,-2.6573,-2.5937,-2.5322,-2.5322,-2.6178,-2.7174,-2.6825,-2.7648,-2.9118,-3.0923,-3.2573,-3.4559,-3.8028,-4.0157,-4.1662,-4.2892,-4.3332,-4.3332,-4.2745,-4.2139,-4.1141,-3.9195,-3.7006,-3.5182,-3.4318,-3.4725,-3.6139,-3.8834,-4.1779,-4.4637,-4.7259,-4.7936,-4.8105,-4.7936,-4.7919,-4.7919,-4.7919,-4.8088,-4.8798,-5.027,-5.1065,-5.1725,-5.2266,-5.3061,-5.323,-5.2621,-5.3196,-5.3501,-5.3501,-5.3501,-5.3501,-5.3501,-5.3501,-5.3501,-5.3501,-5.3501,-5.3533,-5.3377,-5.1144,-5.0608,-5.1369,-5.1338,-5.0933,-5.0388,-5.0574,-5.0101,-4.9272,-4.9272,-4.9171,-4.9035,0.0,0.0,0.0,0.0,0.0,0.0,0.0,0.0,0.0,0.0,0.0,0.0,0.0,0.0,0.0,0.0,0.0,0.0,0.0,-3.4834,-3.4737,-3.4397,-3.5463,-3.5888,-3.5547,-3.6055,-3.6328,-3.6328,-3.707,-3.7715,-3.8203,-3.8965,-3.959,-4.0059,-4.0059,-3.9785,-3.9297,-3.8926,-3.8047,0.0,0.0,-3.358,-3.1571,-3.0549,-2.8743,-2.6749,-2.6699,-2.6341,-2.5986,-2.6717,-2.7621,-2.8468,-2.8736,-3.0225,-3.2162,-3.3769,-3.5624,-3.7716,-4.0267,-4.1864,-4.2928,-4.3387,-4.3497,-4.3185,-4.2047,-4.1254,-4.0081,-3.7486,-3.5301,-3.3597,-3.2699,-3.324,-3.4669,-3.7123,-4.0392,-4.3521,-4.6092,-4.7648,-4.8494,-4.8409,-4.8968,-4.9103,-4.846,-4.8984,-4.9712,-5.0524,-5.098,-5.1403,-5.1809,-5.2892,-5.2993,-5.186,-5.2909,-5.3501,-5.3501,-5.3501,-5.3501,-5.3501,-5.3501,-5.3501,-5.3501,-5.3501,-5.3533,-5.3343,0.0,-4.9456,-5.0227,-4.9934,-4.9776,-4.9644,-4.9965,-4.9644,-4.9001,-4.9001,-4.9001,-4.9001,0.0,0.0,0.0,0.0,0.0,0.0,0.0,0.0,0.0,0.0,0.0,0.0,0.0,0.0,0.0,0.0,0.0,0.0,0.0,0.0,-3.5328,-3.47,-3.4737,-3.4381,-3.358,-3.3573,-3.3516,-3.3398,-3.4902,-3.5644,-3.5684,-3.7207,-3.7851,-3.7754,-3.7754,-3.7695,-3.7539,-3.6777,-3.5586,-3.4121,-3.3375,-3.1629,-2.9509,0.0,-2.8483,-2.685,-2.6726,-2.6572,-2.6717,-2.8621,-2.941,-2.9812,-3.1025,-3.3014,-3.5165,-3.6408,-3.8248,-4.0267,-4.1992,-4.3039,-4.3626,-4.3516,-4.3497,-4.3039,-4.1247,-4.0375,-3.9046,-3.5933,-3.4075,-3.2784,-3.2012,-3.2269,-3.3305,-3.5554,-3.8362,-4.1305,-4.4316,-4.6481,-4.8071,-4.89,-5.0135,-5.0422,-4.912,-5.0168,-5.0963,-5.1065,-5.1065,-5.1034,-5.0989,-5.2403,-5.2638,-5.1403,-5.2655,-5.3399,-5.3501,-5.3501,-5.3501,-5.3501,-5.3501,-5.3501,-5.3501,-5.3501,-5.3533,-5.336,-5.0708,-4.9371,-4.9022,-4.8999,-4.8992,-4.9069,-4.9695,-4.956,-4.9001,-4.9001,-4.9001,-4.9001,0.0,0.0,0.0,0.0,0.0,0.0,0.0,0.0,0.0,0.0,-3.6325,-3.5493,0.0,0.0,0.0,0.0,0.0,0.0,0.0,0.0,0.0,-3.5507,-3.562,-3.5258,-3.4411,-3.4445,-3.4121,-3.3398,-3.3691,-3.3848,-3.3867,-3.416,-3.3945,-3.3301,-3.3301,-3.291,-3.2226,-3.207,-3.1836,-3.1542,-3.1397,-3.0595,-2.9567,-3.0186,0.0,0.0,-2.6899,-2.6159,-2.5995,-2.9121,-3.1102,-3.2442,-3.3601,-3.5202,-3.7013,-3.8752,-3.957,-4.0396,-4.2671,-4.3883,-4.4342,-4.3663,-4.3497,-4.2805,-4.0159,-3.8445,-3.6676,-3.4058,-3.2753,-3.2078,-3.2207,-3.327,-3.4861,-3.7144,-3.9478,-4.2066,-4.5077,-4.6363,-4.7479,-4.8849,-4.9238,-4.9289,-4.9018,-4.9238,-4.9627,-5.0236,-5.0287,-5.0186,-5.0073,-5.1027,-5.1775,-5.2097,-5.2367,-5.2841,-5.3501,-5.3501,-5.3501,-5.3501,-5.3501,-5.3501,-5.3501,-5.3501,-5.3533,-5.3445,-5.2966,0.0,-4.9005,-4.9029,-4.9007,-4.9018,-4.9137,-4.912,-4.9001,-4.9001,-4.9001,-4.9001,0.0,0.0,0.0,0.0,0.0,0.0,0.0,-3.7142,-3.7637,-3.806,-3.743,-3.6776,-3.6281,-3.6257,-3.6271,0.0,0.0,0.0,0.0,0.0,0.0,0.0,0.0,0.0,-3.6009,-3.5591,-3.5176,-3.4746,0.0,-3.4746,-3.4746,-3.4297,-3.3867,-3.3476,-3.3027,-3.2363,-3.1582,-3.1582,-3.1309,-3.0892,-3.0819,-3.0518,-3.0113,0.0,0.0,0.0,-2.7082,-2.6559,-2.6876,-2.9353,-3.0958,-3.2305,-3.4584,-3.6299,-3.7835,-3.9441,-4.0194,-4.0965,-4.2947,-4.4085,-4.4525,-4.3699,-4.3497,-4.2658,-3.9329,-3.7482,-3.5686,-3.2998,-3.1935,-3.1632,-3.2218,-3.3491,-3.4979,-3.6468,-3.8599,-4.0967,-4.3572,-4.5263,-4.6769,-4.8257,-4.8694,-4.8723,-4.8322,-4.864,-4.9024,-4.9358,-4.9391,-4.9327,-4.9238,-4.9626,-5.0642,-5.2266,-5.1944,-5.23,-5.3501,-5.3466,-5.3111,-5.2319,-5.3095,-5.3517,-5.3482,-5.3482,-5.3498,-5.3528,-5.3488,-5.1796,-4.9005,-4.8984,-4.9024,-4.9001,-4.9001,-4.9001,-4.9001,-4.9001,-4.9001,-4.9001,0.0,0.0,0.0,0.0,0.0,0.0,0.0,-3.7983,-3.8806,-3.8999,-3.8926,-3.8584,-3.7873,-3.7488,-3.7269,0.0,0.0,0.0,0.0,0.0,0.0,0.0,0.0,0.0,-3.7578,0.0,0.0,-3.6289,-3.6094,0.0,0.0,0.0,0.0,0.0,-3.3984,-3.3223,-3.2441,-3.2274,-3.1793,0.0,0.0,-3.0636,-3.0571,0.0,0.0,0.0,0.0,-2.7285,-2.7796,-2.9208,-2.9981,-3.0865,-3.3634,-3.5829,-3.7612,-3.8792,-3.9937,-4.1203,-4.28,-4.3956,-4.4525,-4.3699,-4.3263,-4.2172,-3.8685,-3.6756,-3.4939,-3.2239,-3.1411,-3.1461,-3.2357,-3.3474,-3.4607,-3.569,-3.7364,-3.9394,-4.1931,-4.3978,-4.5889,-4.7699,-4.8227,-4.8298,-4.7934,-4.8033,-4.8242,-4.8445,-4.8106,-4.7952,-4.8158,-4.8158,-4.9174,-5.1429,-5.1138,-5.164,-5.2993,-5.2991,-5.2433,-5.136,-5.2403,-5.306,-5.3477,-5.3477,-5.3156,-5.255,-5.2558,-5.1592,0.0,-4.9236,-4.9012,-4.9001,-4.9001,-4.9001,-4.9001,-4.9001,-4.9001,-4.9001,0.0,0.0,0.0,0.0,0.0,0.0,0.0,-3.9345,-4.0761,-4.1555,-4.1135,-4.0716,-4.062,-3.9148,-3.8186,0.0,0.0,0.0,0.0,0.0,0.0,0.0,0.0,0.0,0.0,0.0,0.0,-3.7187,-3.6387,0.0,0.0,0.0,0.0,0.0,0.0,-3.4101,-3.3241,-3.2509,0.0,0.0,0.0,0.0,0.0,0.0,0.0,0.0,0.0,-2.8126,-2.7627,-2.8373,-2.8518,-2.8556,-2.9642,-3.263,-3.5833,-3.6435,-3.823,-4.0359,-4.1974,-4.3534,-4.4525,-4.3699,-4.2576,-4.0944,-3.8114,-3.5854,-3.3761,-3.1691,-3.123,-3.163,-3.3034,-3.3406,-3.4201,-3.6332,-3.6857,-3.8227,-4.1796,-4.3064,-4.4705,-4.7581,-4.7778,-4.8016,-4.8798,-4.7372,-4.6775,-4.7621,-4.6088,-4.5526,-4.634,-4.641,-4.72,-4.8993,-4.9802,-5.0591,-5.142,-5.1403,-5.1586,-5.1905,-5.1153,-5.1722,-5.3502,-5.3502,-5.1973,-4.9387,-4.9443,-5.0832,0.0,-5.0136,-4.9018,-4.9001,-4.9001,-4.9001,-4.9001,-4.9001,-4.9001,-4.9001,0.0,0.0,0.0,0.0,0.0,0.0,-3.8642,-3.9908,-4.107,-4.195,-4.1917,-4.2036,-4.2572,-4.1502,-4.0352,-3.9357,0.0,0.0,0.0,0.0,0.0,0.0,0.0,0.0,0.0,0.0,-3.8086,-3.8086,-3.7207,0.0,0.0,0.0,0.0,0.0,0.0,-3.4973,-3.4096,-3.3778,0.0,0.0,0.0,0.0,0.0,0.0,0.0,0.0,0.0,0.0,-2.7913,-2.8165,-2.8126,-2.7996,-2.8331,-3.022,-3.2724,-3.4881,-3.6578,-3.8395,-4.146,-4.3479,-4.4525,-4.3699,-4.2175,-4.0221,-3.7862,-3.5377,-3.3222,-3.2072,-3.185,-3.2307,-3.3778,-3.4066,-3.4506,-3.5859,-3.5707,-3.6552,-3.9851,-4.0561,-4.1971,-4.533,-4.5522,-4.5672,-4.6405,-4.5778,-4.5488,-4.585,-4.5227,-4.4946,-4.5358,-4.6303,-4.7454,-4.8676,-4.9603,-5.0456,-5.1217,-5.076,-5.0625,-5.0841,-5.0598,-5.0582,-5.079,-5.079,-5.0109,-4.9013,-4.8992,-4.9649,0.0,-4.9526,-4.8979,-4.9001,-4.9001,-4.9001,-4.9001,-4.9001,-4.9001,-4.9001,0.0,0.0,0.0,0.0,0.0,-3.8296,-3.9161,-4.0369,-4.1498,-4.238,-4.2442,-4.2837,-4.3954,-4.2865,-4.168,-4.0723,-4.0742,0.0,0.0,0.0,0.0,0.0,0.0,0.0,0.0,0.0,-3.8984,-3.8984,-3.8105,-3.7559,0.0,0.0,-3.625,-3.5996,0.0,0.0,0.0,0.0,0.0,0.0,0.0,0.0,0.0,0.0,0.0,0.0,0.0,0.0,0.0,0.0,0.0,-2.775,-2.7382,-2.8054,-2.9576,-3.268,-3.4871,-3.7019,-4.0341,-4.2459,-4.3652,-4.3341,-4.1397,-3.9131,-3.7476,-3.4868,-3.2754,-3.2394,-3.2313,-3.273,-3.4218,-3.4489,-3.4742,-3.5504,-3.5368,-3.6062,-3.8633,-3.9211,-4.0408,-4.3383,-4.3299,-4.3485,-4.4548,-4.4713,-4.4662,-4.4373,-4.4373,-4.4373,-4.4373,-4.6019,-4.7421,-4.8363,-4.9284,-5.0016,-5.0557,-5.0033,-4.9763,-4.9779,-5.0004,-4.9721,-4.9001,-4.9001,-4.9001,-4.9001,-4.9001,-4.8996,0.0,-4.9012,-4.8996,-4.9001,-4.9001,-4.9001,-4.9001,-4.9001,-4.9001,-4.9001,0.0,0.0,0.0,0.0,0.0,0.0,-3.9161,-4.0885,-4.2394,-4.3264,-4.2802,-4.3066,-4.4804,-4.2734,-4.1523,-4.2305,-4.0879,0.0,0.0,0.0,0.0,0.0,0.0,0.0,0.0,0.0,-3.9883,-3.9883,-3.9004,-3.8144,-3.7305,-3.7285,-3.6836,-3.5996,0.0,0.0,0.0,0.0,0.0,0.0,0.0,0.0,0.0,0.0,0.0,0.0,0.0,0.0,0.0,0.0,0.0,0.0,0.0,-2.6027,-2.6585,-2.9417,-3.3109,-3.6652,-3.8303,-4.0065,-4.1647,-4.2495,-4.0157,-3.7419,-3.6678,-3.4329,-3.233,-3.2313,-3.2313,-3.273,-3.4218,-3.4489,-3.4742,-3.5504,-3.6265,-3.728,-3.8785,-3.9621,-4.0611,-4.2154,-4.1422,-4.1747,-4.3965,-4.4557,-4.4373,-4.3409,-4.3329,-4.3329,-4.3329,-4.5196,-4.6609,-4.7605,-4.8513,-4.9018,-4.9018,-4.9018,-4.9018,-4.9018,-4.9018,-4.9018,-4.9001,-4.9001,-4.9001,-4.9001,-4.9001,-4.9001,0.0,-4.9001,-4.9001,-4.9001,-4.9001,-4.9001,-4.9001,-4.9001,-4.9001,-4.9001,0.0,0.0,0.0,0.0,0.0,0.0,0.0,-4.0735,-4.1517,-4.2399,-4.2454,-4.2832,-4.3984,-4.2851,-4.2129,-4.2383,-4.1406,0.0,0.0,0.0,0.0,0.0,0.0,0.0,0.0,0.0,-4.0781,-4.0781,-3.9922,-3.9043,-3.8164,-3.7521,-3.6764,-3.5931,-3.5814,-3.5734,0.0,0.0,0.0,0.0,0.0,0.0,-3.0911,0.0,0.0,0.0,0.0,0.0,0.0,0.0,0.0,0.0,0.0,0.0,0.0,-2.8971,-3.0722,-3.2775,-3.545,-3.7003,-3.8043,-3.8811,-3.7164,-3.527,-3.5027,-3.3608,-3.2425,-3.2949,-3.344,-3.41,-3.5081,-3.4901,-3.4981,-3.6236,-3.6226,-3.6571,-3.8,-3.8801,-3.9707,-4.0991,-4.194,-4.2804,-4.3502,-4.3669,-4.3811,-4.3973,-4.3584,-4.3811,-4.4909,-4.5104,-4.5358,-4.5649,-4.7239,-4.8015,-4.8015,-4.8015,-4.837,-4.9001,-4.9001,-4.9001,-4.9001,-4.9001,-4.9001,-4.9001,-4.9001,-4.9001,0.0,-4.9001,-4.9001,-4.9001,-4.9001,-4.9001,-4.9001,-4.9001,-4.9001,-4.9001,0.0,0.0,0.0,0.0,0.0,0.0,0.0,-4.0677,-4.1112,-4.1982,-4.2006,-4.2383,-4.3574,-4.2656,-4.207,-4.2363,-4.166,0.0,0.0,0.0,0.0,0.0,0.0,0.0,0.0,-4.1191,-4.1191,-4.1191,-4.0606,-3.9869,-3.9006,-3.8394,-3.7462,-3.6304,-3.6198,-3.5944,0.0,0.0,0.0,0.0,0.0,0.0,-3.1056,0.0,0.0,0.0,0.0,0.0,0.0,0.0,0.0,0.0,0.0,0.0,0.0,0.0,-2.9129,-3.0515,-3.3649,-3.5155,-3.6053,-3.6829,-3.5475,-3.4037,-3.4329,-3.3287,-3.2519,-3.3275,-3.3977,-3.4577,-3.4825,-3.4936,-3.5217,-3.5843,-3.604,-3.6385,-3.728,-3.8149,-3.9073,-4.0063,-4.1565,-4.2596,-4.2596,-4.3045,-4.3599,-4.4272,-4.3703,-4.3837,-4.5074,-4.4941,-4.4662,-4.422,-4.6119,-4.7239,-4.7589,-4.7589,-4.808,-4.9001,-4.9001,-4.9001,-4.9001,-4.9001,-4.9001,-4.9001,-4.9001,-4.9001,0.0,-4.9001,-4.9001,-4.9001,-4.9001,-4.9001,-4.9001,-4.9001,-4.9001,-4.9001,0.0,0.0,0.0,0.0,0.0,0.0,0.0,-4.0677,-4.1098,-4.1907,-4.153,-4.1797,-4.3359,-4.2187,-4.1582,-4.2324,0.0,0.0,0.0,0.0,0.0,0.0,0.0,0.0,-4.1191,-4.1191,-4.1191,-4.1191,-4.1071,-4.0562,-3.9685,-3.9624,-3.8655,-3.6978,-3.6911,-3.6397,0.0,0.0,0.0,0.0,0.0,0.0,0.0,0.0,0.0,0.0,0.0,0.0,0.0,0.0,0.0,0.0,0.0,0.0,0.0,0.0,0.0,0.0,0.0,-3.4209,-3.5134,-3.5919,-3.4717,-3.3508,-3.4124,-3.3296,0.0,-3.3288,-3.3956,-3.4297,-3.3788,-3.467,-3.531,-3.4819,-3.5776,-3.6653,-3.6701,-3.7856,-3.8877,-3.9406,-4.0681,-4.1489,-4.1384,-4.2566,-4.3599,-4.4272,-4.3703,-4.3614,-4.4272,-4.4587,-4.4297,-4.3329,-4.5106,-4.6523,-4.7523,-4.7523,-4.8015,-4.9001,-4.9001,-4.9001,-4.9001,-4.9001,-4.9001,0.0,-4.9001,0.0,0.0,-4.9001,-4.9001,-4.9001,-4.9001,-4.9001,-4.9001,-4.9001,-4.9001,-4.9001,0.0,0.0,0.0,0.0,0.0,0.0,0.0,0.0,0.0,0.0,-4.1226,-4.1348,-4.1738,-4.1992,-4.2187,0.0,0.0,0.0,0.0,0.0,0.0,0.0,0.0,0.0,-4.1191,-4.1191,-4.1191,-4.1191,-4.1071,-4.0562,-3.9704,-3.9532,-3.8549,-3.693,-3.6815,-3.6281,0.0,0.0,0.0,0.0,0.0,0.0,0.0,0.0,0.0,0.0,-3.016,-3.0104,0.0,0.0,0.0,0.0,0.0,0.0,0.0,0.0,-2.9702,-3.0149,-3.1414,0.0,-3.1487,-3.2258,-3.2496,-3.2454,0.0,-3.2663,-3.3126,-3.2789,-3.3323,-3.3905,-3.4306,-3.4137,-3.4486,-3.5967,-3.6017,-3.606,-3.6531,-3.8121,-3.9459,-4.0068,-4.1773,-4.2476,-4.1474,-4.2566,-4.3599,-4.4272,-4.3703,-4.3614,-4.4272,-4.3912,-4.3551,-4.3329,-4.4495,-4.5561,-4.6523,-4.6523,-4.7373,-4.9001,-4.9001,-4.9001,-4.9001,-4.9001,-4.9001,-4.9001,-4.9001,0.0,-4.9001,-4.9001,-4.9001,-4.9001,-4.9001,-4.9001,-4.9001,-4.9001,-4.9001,-4.9001,0.0,0.0,0.0,0.0,0.0,0.0,0.0,0.0,0.0,0.0,0.0,-4.2344,-4.2344,-4.2734,0.0,0.0,0.0,0.0,0.0,0.0,0.0,0.0,0.0,-4.1191,-4.1191,-4.1191,-4.1177,-4.1103,-4.0974,-4.0642,-4.0162,-3.9985,-3.9234,-3.7969,-3.7103,-3.6181,0.0,0.0,0.0,0.0,-3.3264,0.0,0.0,0.0,0.0,0.0,-3.0636,-3.0459,0.0,-3.0654,-3.0164,-2.9523,0.0,0.0,0.0,0.0,-3.0345,-3.0683,-3.1089,-3.1157,-3.1207,-3.1596,-3.2256,-3.2698,-3.2392,-3.2915,-3.3337,-3.2685,-3.3137,-3.3598,-3.3606,-3.381,-3.4368,-3.5497,-3.56,-3.5904,-3.6801,-3.7828,-3.908,-4.0666,-4.1788,-4.2402,-4.2282,-4.2925,-4.3599,-4.4272,-4.3703,-4.3614,-4.4272,-4.3688,-4.3472,-4.3989,-4.4526,-4.5211,-4.6173,-4.6609,-4.7589,-4.9001,-4.9001,-4.9001,-4.9001,-4.9001,-4.9001,-4.9001,-4.9001,0.0,-4.9001,-4.9001,-4.9001,-4.9001,-4.9001,-4.9001,-4.9001,-4.9001,-4.9001,-4.9001,0.0,0.0,0.0,0.0,0.0,0.0,0.0,0.0,0.0,0.0,0.0,0.0,0.0,0.0,0.0,0.0,0.0,0.0,0.0,0.0,0.0,0.0,0.0,-4.1269,-4.1387,-4.1244,-4.1117,-4.0985,-4.0854,-4.0765,-4.0696,-4.0562,-4.0065,-3.9219,-3.744,-3.6144,0.0,0.0,-3.4445,-3.4195,-3.3902,0.0,0.0,0.0,0.0,0.0,0.0,0.0,0.0,-3.0699,-3.0335,-2.9798,-3.0153,0.0,0.0,0.0,0.0,0.0,-3.119,-3.1884,-3.256,-3.2381,-3.2933,-3.354,-3.339,-3.3416,-3.3324,-3.2571,-3.2879,-3.3137,-3.2613,-3.3528,-3.4406,-3.4478,-3.522,-3.6282,-3.7674,-3.7958,-3.8856,-4.1115,-4.1549,-4.2043,-4.294,-4.3225,-4.3569,-4.4122,-4.3643,-4.3584,-4.4137,-4.3643,-4.3708,-4.451,-4.4871,-4.5431,-4.6173,-4.7155,-4.803,-4.8832,-4.8832,-4.8798,-4.8748,-4.89,-4.9029,-4.9029,0.0,0.0,-4.9001,-4.9001,-4.9001,-4.9001,-4.9001,-4.9001,-4.9001,-4.9001,-4.9001,-4.9001,0.0,0.0,0.0,0.0,0.0,0.0,0.0,0.0,0.0,0.0,0.0,0.0,0.0,0.0,0.0,0.0,0.0,0.0,0.0,0.0,0.0,-4.3359,-4.1953,-4.1523,-4.2207,-4.1429,-4.1007,-4.0985,-4.0815,-4.0718,-4.0696,-4.0562,-4.0065,-3.9219,-3.7242,-3.6264,-3.6041,-3.4795,-3.4265,-3.4195,-3.3902,0.0,0.0,0.0,0.0,0.0,0.0,0.0,0.0,-3.16,-3.1308,-3.093,-3.1026,0.0,0.0,0.0,0.0,0.0,-3.119,-3.2645,-3.3846,-3.2594,-3.3305,-3.4013,-3.2919,-3.3157,-3.3196,-3.1921,-3.1739,-3.1935,-3.2451,-3.3156,-3.3817,-3.443,-3.5968,-3.7778,-3.9679,-4.0427,-4.092,-4.1324,-4.2357,-4.2671,-4.1773,-4.2686,-4.3374,-4.3479,-4.3389,-4.3374,-4.3479,-4.3389,-4.3409,-4.3551,-4.5122,-4.6032,-4.6173,-4.7155,-4.778,-4.8088,-4.8088,-4.7962,-4.7776,-4.8591,-4.9025,-4.8982,0.0,-4.9001,-4.9001,-4.9001,-4.9001,-4.9001,-4.9001,-4.9001,-4.9001,-4.9001,-4.9001,-4.9001,0.0,0.0,0.0,0.0,0.0,0.0,0.0,0.0,0.0,0.0,0.0,0.0,0.0,0.0,0.0,0.0,0.0,0.0,0.0,0.0,0.0,-4.5098,-4.3457,-4.2715,-4.3086,-4.2643,-4.2374,-4.2294,-4.2124,-4.1797,-4.1277,-4.0739,-3.9964,-3.9004,-3.8058,-3.7223,-3.6478,-3.5824,-3.5194,-3.46,0.0,0.0,0.0,0.0,0.0,0.0,0.0,0.0,0.0,0.0,-3.1351,-3.119,-3.119,0.0,0.0,0.0,0.0,0.0,-3.1782,-3.3119,-3.4421,-3.415,-3.5216,-3.5763,-3.355,-3.3673,-3.3789,-3.2324,-3.2063,-3.2273,-3.2916,-3.3888,-3.5026,-3.6372,-3.7345,-3.8392,-3.9694,-4.0127,-4.0591,-4.1294,-4.1908,-4.2312,-4.2432,-4.2985,-4.3329,-4.3329,-4.3329,-4.3329,-4.3329,-4.3329,-4.3551,-4.4066,-4.5473,-4.6277,-4.6399,-4.7305,-4.7838,-4.7919,-4.7513,-4.7369,-4.7505,-4.77,-4.8252,-4.8991,0.0,-4.8978,-4.9001,-4.9001,-4.9001,-4.9001,-4.9001,-4.9001,-4.9001,-4.9001,-4.9001,-4.9001,0.0,0.0,0.0,0.0,0.0,0.0,0.0,0.0,0.0,0.0,0.0,0.0,0.0,0.0,0.0,0.0,0.0,0.0,0.0,0.0,-4.5605,-4.6269,-4.5019,-4.4195,-4.3966,-4.3687,-4.3477,-4.3355,-4.3239,-4.2684,-4.1777,-4.1037,-4.0112,-3.909,-3.8744,-3.7992,-3.6968,-3.6723,-3.6039,-3.5104,0.0,0.0,0.0,0.0,0.0,0.0,0.0,0.0,0.0,0.0,0.0,0.0,0.0,0.0,0.0,-3.119,-3.1596,-3.207,-3.2263,-3.3372,-3.458,-3.502,-3.6118,-3.6604,-3.4494,-3.4211,-3.414,-3.3185,-3.2841,-3.2946,-3.3604,-3.4696,-3.6148,-3.8078,-3.8646,-3.9155,-3.9993,-4.0232,-4.0711,-4.1713,-4.1833,-4.2237,-4.324,-4.3329,-4.3329,-4.3329,-4.3329,-4.3329,-4.3329,-4.3551,-4.3928,-4.4505,-4.5667,-4.6232,-4.6223,-4.7005,-4.7394,-4.7394,-4.6853,-4.6675,-4.6784,-4.6447,-4.6887,-4.7988,-4.8685,-4.8991,-4.9006,-4.8978,-4.9012,-4.9012,-4.8984,-4.9001,-4.9001,-4.9001,-4.9001,-4.9001,0.0,0.0,0.0,0.0,0.0,0.0,0.0,0.0,0.0,0.0,0.0,0.0,0.0,0.0,0.0,0.0,0.0,0.0,0.0,0.0,-4.623,-4.6308,-4.6172,-4.5685,-4.4742,-4.385,-4.3354,-4.3203,-4.3143,-4.2662,-4.178,-4.1436,-4.0788,-3.9948,-3.8573,-3.7902,-3.7757,-3.6759,-3.5987,-3.5457,-3.5425,0.0,0.0,0.0,0.0,0.0,0.0,0.0,0.0,0.0,0.0,0.0,0.0,0.0,-3.119,-3.119,-3.1241,-3.141,-3.2087,-3.3372,-3.4358,-3.3789,-3.4228,-3.4972,-3.5433,-3.4502,-3.3748,-3.4254,-3.3844,-3.3619,-3.4277,-3.5011,-3.6148,-3.8078,-3.9439,-4.0696,-4.1968,-4.2671,-4.309,-4.318,-4.3195,-4.3225,-4.3329,-4.3329,-4.3329,-4.3329,-4.3329,-4.3329,-4.3329,-4.422,-4.4443,-4.3809,-4.5504,-4.6126,-4.5466,-4.5731,-4.5872,-4.5872,-4.6015,-4.5625,-4.479,-4.4771,-4.4848,-4.505,-4.7792,-4.9017,-4.8992,-4.8984,-4.9008,-4.9025,-4.8995,-4.9001,-4.9001,-4.9001,-4.9001,-4.9001,0.0,0.0,0.0,0.0,0.0,0.0,0.0,0.0,0.0,0.0,0.0,0.0,0.0,0.0,0.0,0.0,0.0,0.0,0.0,-4.6308,-4.6308,-4.6308,-4.6308,-4.6084,-4.562,-4.5175,-4.492,-4.4816,-4.4162,-4.3412,-4.2585,-4.1925,-4.096,-3.9757,-3.9209,-3.873,-3.8364,-3.7959,-3.7197,-3.6204,-3.595,-3.5116,0.0,0.0,0.0,0.0,0.0,0.0,0.0,0.0,-3.3034,-3.2611,-3.2899,-3.2797,-3.2577,-3.2577,-3.2899,-3.3305,-3.3575,-3.4759,-3.5864,-3.5618,-3.5086,-3.4816,-3.543,-3.5194,-3.4876,-3.5097,-3.5235,-3.5549,-3.6193,-3.6507,-3.7345,-3.932,-4.0412,-4.1474,-4.2776,-4.318,-4.3329,-4.3329,-4.3329,-4.3329,-4.3329,-4.3329,-4.3329,-4.3329,-4.2955,-4.2934,-4.3518,-4.3938,-4.4315,-4.4551,-4.5844,-4.6189,-4.5384,-4.5596,-4.5466,-4.501,-4.5117,-4.4965,-4.4587,-4.4598,-4.4586,-4.4639,-4.5781,-4.6295,-4.6279,-4.6228,-4.7335,-4.9008,-4.8995,-4.9001,-4.9001,-4.9001,-4.9001,-4.9001,0.0,0.0,0.0,0.0,0.0,0.0,0.0,0.0,0.0,0.0,0.0,0.0,0.0,0.0,0.0,0.0,0.0,0.0,-4.6308,-4.6308,-4.6308,-4.6308,-4.6308,-4.624,-4.6102,-4.5966,-4.587,-4.5796,-4.5066,-4.4162,-4.3085,-4.2525,-4.145,-3.9972,-3.9777,-3.9463,-3.9056,-3.8817,-3.8072,-3.7032,-3.6577,-3.5759,0.0,0.0,0.0,0.0,0.0,0.0,0.0,0.0,-3.3795,-3.344,-3.3677,-3.3592,-3.3406,-3.3406,-3.3761,-3.4201,-3.4438,-3.5267,-3.618,-3.6654,-3.5909,-3.5331,-3.6574,-3.6022,-3.5461,-3.6265,-3.6776,-3.715,-3.736,-3.7404,-3.8063,-4.0068,-4.095,-4.1833,-4.315,-4.3329,-4.3329,-4.3329,-4.3329,-4.3329,-4.3329,-4.3329,-4.324,-4.3045,-4.2906,-4.2985,-4.3318,-4.3992,-4.4495,-4.4847,-4.5795,-4.5906,-4.5158,-4.5261,-4.5094,-4.4587,-4.4587,-4.4587,-4.4587,-4.4587,-4.4598,-4.4619,-4.4619,-4.4572,-4.4632,-4.4583,-4.5959,-4.809,-4.8267,-4.846,-4.8663,-4.8663,-4.8798,-4.9001,0.0,0.0,0.0,0.0,0.0,0.0,0.0,0.0,0.0,0.0,0.0,0.0,0.0,0.0,0.0,0.0,0.0,0.0,-4.6308,-4.6308,-4.6308,-4.6308,-4.6308,-4.624,-4.61,-4.598,-4.5863,-4.5796,-4.5661,-4.472,-4.3088,-4.3228,-4.241,-4.0791,-4.0193,-3.99,-3.9845,-3.9056,-3.8382,-3.7859,-3.7396,-3.69,-3.635,0.0,0.0,0.0,0.0,0.0,0.0,0.0,-3.4641,-3.3558,-3.4269,-3.4015,-3.3423,-3.3423,-3.3423,-3.3592,-3.4303,-3.4506,-3.4878,-3.64,-3.6233,-3.6454,-3.9265,-3.7097,-3.5299,-3.7853,-3.8392,-3.8197,-3.7554,-3.7434,-3.8078,-4.0083,-4.095,-4.1833,-4.315,-4.3329,-4.3329,-4.3329,-4.3329,-4.3329,-4.3329,-4.3314,-4.3045,-4.2479,-4.3196,-4.3391,-4.2726,-4.4427,-4.5039,-4.4348,-4.5244,-4.5348,-4.4604,-4.4587,-4.4587,-4.457,-4.4587,-4.4587,-4.4587,-4.4587,-4.4587,-4.4587,-4.4587,-4.4587,-4.4604,-4.4579,-4.5168,-4.6052,-4.6574,-4.7242,-4.7902,-4.7919,-4.8376,-4.8984,0.0,0.0,0.0,0.0,0.0,0.0,0.0,0.0,0.0,0.0,0.0,0.0,0.0,0.0,0.0,0.0,0.0,0.0,-4.6308,-4.6308,-4.6308,-4.6308,-4.6308,-4.628,-4.6247,-4.6021,-4.5522,-4.4739,-4.4701,-4.4143,-4.3104,-4.2849,-4.2379,-4.1706,-4.1269,-4.0658,-3.9863,-3.9643,-3.871,-3.745,-3.7813,-3.7463,-3.6695,0.0,0.0,0.0,0.0,0.0,0.0,0.0,0.0,0.0,-3.5216,-3.5131,-3.4962,-3.4962,-3.4962,-3.5013,-3.5216,-3.569,-3.6214,-3.6671,-3.7084,-3.7642,-3.8924,-3.7946,-3.7404,-3.9533,-3.9506,-3.92,-3.9469,-3.9125,-3.932,-4.0846,-4.125,-4.1833,-4.315,-4.3329,-4.3329,-4.3329,-4.294,-4.2656,-4.2656,-4.2788,-4.2781,-4.2582,-4.3005,-4.3381,-4.3783,-4.436,-4.4854,-4.5244,-4.5571,-4.5652,-4.5591,-4.4948,-4.4575,-4.4623,-4.4575,-4.4587,-4.4587,-4.4587,-4.4587,-4.4587,-4.4587,-4.4587,-4.4604,-4.4579,-4.5159,-4.6058,-4.6583,-4.6921,-4.7192,-4.7733,-4.8054,-4.8308,0.0,0.0,0.0,0.0,0.0,0.0,0.0,0.0,0.0,0.0,-4.6308,0.0,0.0,0.0,0.0,0.0,0.0,0.0,0.0,-4.6308,-4.6308,-4.6308,-4.6303,-4.6259,-4.6132,-4.5945,-4.5353,-4.4297,-4.4297,-4.4047,-4.3585,-4.3056,-4.273,-4.2574,-4.2098,-4.1317,-4.0359,-4.0029,-3.9261,-3.8294,-3.828,-3.8152,-3.7861,0.0,0.0,0.0,0.0,0.0,0.0,0.0,0.0,0.0,-3.5622,-3.5622,-3.5622,-3.5622,-3.5842,-3.6079,-3.6079,-3.6637,-3.7297,-3.7584,-3.827,-3.907,-4.0017,-4.0099,-4.0242,-4.1343,-4.0901,-4.0527,-4.1195,-4.0073,-3.9619,-4.1474,-4.1324,-4.1686,-4.3622,-4.3341,-4.3082,-4.344,-4.2891,-4.2406,-4.2485,-4.2667,-4.2714,-4.284,-4.3227,-4.3651,-4.3904,-4.4268,-4.4717,-4.5263,-4.5263,-4.5297,-4.5456,-4.4914,-4.4597,-4.4593,-4.3411,-4.3445,-4.4589,-4.4614,-4.4587,-4.4587,-4.4587,-4.4587,-4.4587,-4.4592,-4.4953,-4.549,-4.5771,-4.6109,-4.6413,-4.687,-4.7225,-4.753,0.0,0.0,0.0,0.0,0.0,0.0,0.0,0.0,0.0,0.0,-4.6308,-4.6308,0.0,0.0,0.0,0.0,0.0,0.0,0.0,0.0,-4.6308,-4.6303,-4.629,-4.6148,-4.5901,-4.5834,-4.5353,-4.4412,-4.4335,-4.428,-4.4243,-4.3601,-4.3302,-4.3326,-4.268,-4.1919,-4.1075,-4.0396,-4.0029,-3.9735,-3.892,-3.8978,-3.9453,-3.8523,0.0,0.0,0.0,0.0,0.0,0.0,0.0,0.0,-3.5825,-3.5774,-3.5723,-3.5723,-3.6231,-3.6772,-3.6772,-3.733,-3.8091,-3.8903,-3.9749,-4.0747,-4.2185,-4.2921,-4.3283,-4.3218,-4.2485,-4.2093,-4.2832,-4.0603,-3.9451,-4.2153,-4.143,-4.1531,-4.4347,-4.3366,-4.2758,-4.3592,-4.2924,-4.244,-4.2592,-4.2683,-4.283,-4.2909,-4.3777,-4.4042,-4.3376,-4.4162,-4.4553,-4.4468,-4.4575,-4.4592,-4.4575,-4.4575,-4.4601,-4.4579,-4.1569,-4.1523,-4.4194,-4.4487,-4.4575,-4.4575,-4.4609,-4.4609,-4.4609,-4.4626,-4.4587,-4.4587,-4.4587,-4.4993,-4.5618,-4.5686,-4.6126,-4.6701,0.0,0.0,0.0,0.0,0.0,0.0,0.0,0.0,0.0,0.0,0.0,0.0,0.0,0.0,0.0,0.0,0.0,0.0,0.0,0.0,-4.6308,-4.63,-4.6185,-4.6039,-4.5831,-4.5808,-4.5642,-4.5316,-4.4643,-4.4153,-4.3901,-4.3488,-4.349,-4.3826,-4.342,-4.2433,-4.1148,-4.1589,-4.0802,-3.9367,-4.0346,-4.0339,-3.9782,-4.0118,-3.9611,0.0,0.0,0.0,0.0,0.0,0.0,0.0,-3.7415,-3.7009,-3.6535,-3.6535,-3.6637,-3.6772,-3.6772,-3.733,-3.8227,-3.9512,-4.1288,-4.2946,-4.3876,-4.4663,-4.4897,-4.4174,-4.3234,-4.2949,-4.4313,-4.2032,-4.0788,-4.3247,-4.2412,-4.2085,-4.3933,-4.3276,-4.2694,-4.2896,-4.2304,-4.1848,-4.1906,-4.2666,-4.2948,-4.2414,-4.3714,-4.4226,-4.3396,-4.4176,-4.4299,-4.369,-4.4296,-4.4575,-4.4585,-4.4585,-4.4607,0.0,-4.157,-4.0447,-4.1133,-4.3503,-4.4585,-4.4585,-4.4593,-4.4606,-4.4606,-4.4575,-4.4587,-4.4587,-4.4587,-4.4671,-4.4891,-4.5483,-4.5805,-4.6024,0.0,0.0,0.0,0.0,0.0,0.0,0.0,0.0,0.0,0.0,0.0,0.0,0.0,0.0,0.0,0.0,0.0,0.0,0.0,0.0,-4.6266,-4.6215,-4.6046,-4.5911,-4.5796,-4.5738,-4.568,-4.5586,-4.5143,-4.4748,-4.4407,-4.3653,-4.3557,-4.3986,-4.3646,-4.2818,-4.1699,-4.2121,-4.1638,-4.065,-4.0917,-4.0896,-4.0726,-4.0565,-4.008,-3.9512,-3.9512,0.0,0.0,0.0,0.0,0.0,0.0,0.0,-3.733,-3.733,-3.7567,-3.7838,-3.7838,-3.8379,-3.9309,-4.0764,-4.2286,-4.3623,-4.4401,-4.4891,-4.5132,-4.4983,-4.4201,-4.3888,-4.5063,-4.3031,-4.1766,-4.3715,-4.2762,-4.2528,-4.4414,-4.3604,-4.3005,-4.3464,-4.281,-4.2327,-4.2475,-4.2626,-4.2791,-4.2772,-4.3216,-4.3318,-4.2912,-4.3267,-4.3301,-4.2895,-4.3532,-4.3776,-4.3522,-4.4228,-4.3869,-4.2449,-4.0826,-4.0117,-4.0137,-4.1745,-4.2458,-4.2458,-4.2469,-4.2861,-4.3549,-4.3758,-4.3961,-4.4062,-4.4434,-4.4587,-4.4621,-4.501,-4.5162,-4.5213,0.0,0.0,0.0,0.0,0.0,0.0,0.0,0.0,0.0,0.0,0.0,0.0,0.0,0.0,0.0,0.0,0.0,0.0,0.0,0.0,0.0,-4.6065,-4.5892,-4.5796,-4.5776,-4.5643,-4.5586,-4.5586,-4.5586,-4.54,-4.4988,-4.3988,-4.3661,-4.3893,-4.3612,-4.3039,-4.2304,-4.2451,-4.2433,-4.2237,-4.142,-4.1451,-4.1853,-4.0767,-4.0336,-4.0204,-4.0121,-3.9698,-3.9174,-3.9174,0.0,0.0,0.0,0.0,-3.8091,-3.8091,-3.8514,-3.8988,-3.8988,-3.9614,-4.0595,-4.1948,-4.2861,-4.3623,-4.4401,-4.4587,-4.4756,-4.5382,-4.4849,-4.4455,-4.5322,-4.3585,-4.2446,-4.3863,-4.3025,-4.2925,-4.4966,-4.396,-4.3331,-4.4118,-4.3522,-4.3056,-4.3131,-4.2683,-4.2582,-4.2993,-4.2574,-4.2236,-4.2117,-4.2219,-4.2236,-4.21,-4.2683,-4.2632,-4.1914,-4.3182,-4.2584,-4.0068,-4.0068,-4.0087,-4.0087,-4.01,-4.0077,-4.0077,-4.0127,-4.0872,-4.2202,-4.274,-4.3061,-4.3301,-4.4079,-4.4384,-4.4401,-4.4536,-4.4587,-4.4587,0.0,0.0,0.0,0.0,0.0,0.0,0.0,0.0,0.0,0.0,-4.6308,-4.6308,0.0,0.0,0.0,0.0,0.0,0.0,-4.6308,0.0,0.0,-4.593,-4.5853,-4.5757,-4.5624,-4.5605,-4.5586,-4.5586,-4.5586,-4.5283,-4.4657,-4.4492,-4.4129,-4.3563,-4.3513,-4.3039,-4.2359,-4.3039,-4.2928,-4.2359,-4.2882,-4.2905,-4.2519,-4.181,-4.1223,-4.0733,-4.0286,-4.002,-3.9935,-3.9935,-3.9868,0.0,0.0,0.0,-3.8853,-3.8853,-3.892,-3.8988,-3.8988,-4.0003,-4.1255,-4.2083,-4.2861,-4.3623,-4.4401,-4.4587,-4.4604,-4.4705,-4.4023,-4.3926,-4.5379,-4.3649,-4.2569,-4.4257,-4.3737,-4.3492,-4.4579,-4.3879,-4.3317,-4.3438,-4.3317,-4.3037,-4.2433,-4.2879,-4.277,-4.1593,-4.1982,-4.2016,-4.139,-4.1948,-4.1999,-4.1373,-4.2021,-4.1784,-4.0392,-4.0578,-4.0493,-4.0121,-4.0121,-4.0104,-4.007,-4.0071,-4.0104,-4.0121,-4.0085,-4.071,-4.1748,-4.2185,-4.2422,-4.2523,-4.3284,-4.3572,-4.3656,-4.4333,-4.4587,-4.4587,0.0,0.0,0.0,0.0,0.0,0.0,0.0,0.0,0.0,0.0,0.0,-4.6308,0.0,0.0,0.0,-4.6308,-4.6306,-4.627,-4.6192,-4.6023,-4.5911,-4.5853,-4.5738,-4.5643,-4.5586,-4.5586,-4.5586,-4.5586,-4.5419,-4.5055,-4.4599,-4.4392,-4.4004,-4.3497,-4.3497,-4.3296,-4.3002,-4.3332,-4.3296,-4.2968,-4.3032,-4.2902,-4.2616,-4.2021,-4.1446,-4.0856,-4.0607,-4.0385,-4.007,-4.007,-4.007,-4.007,-4.007,0.0,0.0,0.0,-3.9597,-3.9597,-3.9597,-4.0392,-4.1288,-4.1593,-4.2557,-4.3504,-4.3859,-4.4265,-4.4587,-4.4587,-4.4327,-4.4239,-4.4953,-4.4206,-4.3739,-4.4457,-4.4253,-4.4138,-4.457,-4.4253,-4.4006,-4.4006,-4.3621,-4.3237,-4.2902,-4.2425,-4.1914,-4.1255,-4.1119,-4.0916,-4.0595,-4.0882,-4.0899,-4.0578,-4.0917,-4.0765,-4.0087,-4.007,-4.007,-4.007,-4.007,-4.007,-4.007,-4.007,-4.007,-4.0087,-4.0121,-4.0341,-4.0815,-4.1407,-4.1677,-4.1796,-4.2963,-4.342,-4.3521,-4.4282,-4.4587,-4.4587,0.0,0.0,0.0,0.0,0.0,0.0,0.0,0.0,0.0,0.0,0.0,0.0,0.0,0.0,0.0,0.0,-4.6273,-4.618,-4.6065,-4.5892,-4.5796,-4.5796,-4.568,-4.5586,-4.5586,-4.5586,-4.5568,-4.5457,-4.5222,-4.4872,-4.4447,-4.4146,-4.3836,-4.3497,-4.3497,-4.3497,-4.3497,-4.3497,-4.3497,-4.3463,-4.305,-4.2902,-4.2846,-4.2244,-4.175,-4.1313,-4.0995,-4.0655,-4.0286,-4.0171,-4.007,-4.007,-4.007,-4.007,0.0,0.0,0.0,-4.007,-4.007,-4.0493,-4.0967,-4.1153,-4.2033,-4.2963,-4.3335,-4.3859,-4.4333,-4.4536,-4.4587,-4.4587,-4.4587,-4.4587,-4.4587,-4.4587,-4.4587,-4.4587,-4.4587,-4.4587,-4.4502,-4.4316,-4.3775,-4.3267,-4.2895,-4.1863,-4.1119,-4.0933,-4.0392,-4.007,-4.007,-4.007,-4.007,-4.007,-4.007,-4.007,-4.007,-4.007,-4.007,-4.007,-4.007,-4.007,-4.007,-4.007,-4.007,-4.007,-4.007,-4.007,-4.0121,-4.0679,-4.0916,-4.1052,-4.2354,-4.298,-4.3234,-4.3995,-4.4401,-4.4587,0.0,0.0,0.0,0.0,0.0,0.0,0.0,0.0,0.0,0.0,0.0,0.0,-4.6308,-4.6308,-4.6303,-4.631,-4.6177,-4.6046,-4.593,-4.5834,-4.5796,-4.5796,-4.568,0.0,-4.5586,-4.5586,-4.5438,-4.5137,-4.5096,-4.4738,-4.4028,-4.4016,-4.3836,-4.3497,-4.3497,-4.3497,-4.3497,-4.3497,-4.3497,-4.3497,-4.3479,-4.3444,-4.341,-4.2864,-4.2616,-4.244,-4.1313,-4.0856,-4.078,-4.0286,-4.007,-4.007,-4.007,-4.007,-4.007,0.0,0.0,0.0,-4.007,-4.0104,-4.0307,-4.1035,-4.1271,-4.1694,-4.3098,-4.3453,-4.369,-4.4418,-4.4587,-4.4587,-4.4587,-4.4587,-4.4587,-4.4587,-4.4587,-4.4587,-4.4587,-4.4587,-4.4316,-4.3572,-4.3453,-4.2861,-4.1457,-4.1255,-4.0916,-4.0189,-4.0104,-4.007,-4.007,-4.007,-4.007,-4.007,-4.007,-4.007,-4.007,-4.007,-4.007,-4.007,-4.007,-4.007,-4.007,-4.007,-4.007,-4.007,-4.007,-4.007,-4.007,-4.0121,-4.0138,-4.0206,-4.1018,-4.1745,-4.2439,-4.32,-4.3944,-4.4587,0.0,0.0,0.0,0.0,0.0,0.0,0.0,0.0,0.0,0.0,0.0,0.0,0.0,-4.6307,-4.6268,-4.6177,-4.6007,-4.5892,-4.5834,-4.5738,-4.568,-4.568,-4.5624,-4.5586,-4.5586,-4.5586,-4.5531,-4.5419,-4.4988,-4.4657,-4.4373,-4.3881,-4.3631,-4.3497,-4.3497,-4.3497,-4.3497,-4.3497,-4.3497,-4.3497,-4.3497,-4.3497,-4.3479,-4.3304,-4.3014,-4.2655,-4.2203,-4.181,-4.1402,-4.0797,-4.0607,-4.0528,-4.0204,-4.007,-4.007,-4.007,-4.007,-4.007,-4.007,-4.007,-4.0138,-4.0409,-4.0849,-4.1339,-4.188,-4.2354,-4.2912,-4.3673,-4.3826,-4.3995,-4.4485,-4.4587,-4.4587,-4.4587,-4.4587,-4.4587,-4.4587,-4.4147,-4.3724,-4.3453,-4.2574,-4.1796,-4.1255,-4.0764,-4.0358,-4.0104,-4.007,-4.007,-4.007,-4.007,-4.007,-4.007,-4.007,-4.007,-4.007,-4.007,-4.007,-4.007,-4.007,-4.007,-4.007,-4.007,-4.007,-4.007,-4.007,-4.007,-4.007,-4.007,-4.007,-4.0206,-4.1424,-4.2066,-4.2439,-4.3707,-4.4333,-4.4587,0.0,0.0,0.0,0.0,0.0,0.0,0.0,0.0,0.0,-4.6308,0.0,0.0,0.0,0.0,-4.6161,-4.6007,-4.5873,-4.5776,-4.5738,-4.5643,-4.5586,-4.5586,-4.5586,-4.5586,-4.5586,-4.5586,-4.5495,-4.5263,-4.4806,-4.4474,-4.4242,-4.3744,-4.3497,-4.3497,-4.3497,-4.3497,-4.3497,-4.3497,-4.3497,-4.3497,-4.3497,-4.3644,-4.3901,-4.3901,-4.387,-4.3701,-4.3276,-4.2875,-4.2376,-4.149,-4.1223,-4.1087,-4.0546,-4.0237,-4.007,-4.007,-4.007,-4.007,-4.007,-4.007,-4.007,-4.007,-4.046,-4.0899,-4.1136,-4.1576,-4.2134,-4.2878,-4.3047,-4.32,-4.3707,-4.3809,-4.3893,-4.4147,-4.4198,-4.4096,-4.3842,-4.3525,-4.3169,-4.2811,-4.1897,-4.1187,-4.0849,-4.0375,-4.007,-4.007,-4.007,0.0,-4.007,-4.007,-4.007,-4.007,-4.007,-4.007,-4.007,-4.007,-4.007,-4.007,-4.007,-4.007,-4.007,-4.007,-4.007,-4.007,-4.007,-4.007,-4.007,-4.007,-4.007,-4.0206,-4.1441,-4.2066,-4.2439,-4.3724,-4.435,-4.4587,0.0,0.0,0.0,0.0,0.0,0.0,0.0,0.0,-4.6308,-4.6308,0.0,0.0,0.0,0.0,0.0,-4.5815,-4.5796,-4.5738,-4.5605,-4.5586,-4.5586,-4.5586,-4.5586,-4.5586,-4.5586,-4.5586,-4.5283,-4.4631,-4.4606,-4.4223,-4.3513,-4.3513,-4.3497,-4.3497,-4.3516,-4.3534,-4.3516,-4.3497,-4.3497,-4.3516,-4.3497,-4.3975,-4.4672,-4.4672,-4.5149,-4.5645,-4.4372,-4.387,-4.3664,-4.227,-4.1853,-4.176,-4.1139,-4.0597,-4.0104,-4.0104,-4.0104,-4.007,0.0,0.0,0.0,-4.007,-4.007,-4.0273,-4.1001,-4.117,-4.1373,-4.2117,-4.2252,-4.2269,-4.2286,-4.2286,-4.2523,-4.3234,-4.3369,-4.3132,-4.2388,-4.2715,-4.2666,-4.1714,-4.1578,-4.1154,-4.0206,-4.007,-4.007,-4.007,-4.007,-4.007,-4.007,-4.007,-4.007,-4.007,-4.007,-4.007,-4.007,-4.007,-4.007,-4.007,-4.007,-4.007,-4.007,-4.007,-4.007,-4.007,-4.007,-4.007,-4.007,-4.007,-4.007,-4.0155,-4.0933,-4.166,-4.2371,-4.3166,-4.3927,-4.4587,0.0,0.0,0.0,0.0,0.0,-4.6308,-4.6308,-4.6308,-4.6308,0.0,0.0,0.0,-4.6177,-4.5988,-4.5853,-4.5796,-4.5719,-4.5624,-4.5586,-4.5586,-4.5586,-4.5586,-4.5586,-4.5586,-4.5586,-4.5586,-4.5513,-4.5303,-4.4849,-4.4501,-4.428,-4.3744,-4.3497,-4.3516,-4.4103,-4.4378,-4.4342,-4.3736,-4.3828,-4.4323,-4.3718,-4.3626,-4.3828,-4.3828,-4.3956,-4.4121,-4.3742,-4.3615,-4.3506,-4.2709,-4.2857,-4.3233,-4.2771,-4.1814,-4.0899,-4.0899,-4.051,-4.007,-4.007,0.0,0.0,0.0,0.0,0.0,-4.0341,-4.0392,-4.0595,-4.1356,-4.1508,-4.166,-4.2202,-4.2286,-4.2185,-4.1863,-4.2252,-4.2523,-4.232,-4.1984,-4.1628,-4.1322,-4.0849,-4.0426,-4.0155,-4.007,-4.007,0.0,-4.007,-4.007,-4.007,-4.007,-4.007,-4.007,-4.007,-4.007,-4.007,-4.007,-4.007,-4.007,-4.007,-4.007,-4.007,-4.007,-4.007,-4.007,-4.007,-4.007,-4.007,-4.007,-4.007,-4.0206,-4.1491,-4.1895,-4.1994,-4.3673,-4.4401,-4.4587,0.0,0.0,0.0,0.0,0.0,-4.6308,-4.6308,-4.6308,-4.6308,0.0,0.0,0.0,-4.6046,-4.62,-4.6124,-4.5757,-4.5643,-4.5586,-4.5586,-4.5586,-4.5586,-4.5586,-4.5586,-4.5586,-4.5586,-4.5586,-4.5457,-4.5182,-4.4781,-4.4447,-4.4125,-4.3712,-4.3663,-4.4011,-4.414,-4.4764,-4.5608,-4.4121,-4.4158,-4.5168,-4.469,-4.4488,-4.4488,-4.4488,-4.4488,-4.4452,-4.4121,-4.4213,-4.4343,-4.336,-4.3427,-4.3818,-4.3286,-4.267,-4.1971,-4.1392,-4.1102,-4.0933,-4.0629,-4.0764,-4.0916,-4.0629,0.0,0.0,-4.0155,-4.007,-4.0206,-4.0646,-4.073,-4.0865,-4.1288,-4.1373,-4.1221,-4.0798,-4.1085,-4.1373,-4.1373,-4.1001,-4.073,-4.073,-4.0341,-4.007,-4.007,-4.007,-4.007,-4.007,-4.007,-4.007,-4.007,-4.007,-4.007,-4.007,-4.007,-4.007,-4.007,-4.007,-4.007,-4.007,-4.007,-4.007,-4.007,-4.007,-4.007,-4.007,-4.007,-4.007,-4.007,-4.007,-4.007,-4.0189,-4.1047,-4.1603,-4.2095,-4.3944,-4.4587,-4.4587,0.0,0.0,-4.6308,-4.6308,-4.6387,-4.6445,-4.6445,-4.6445,-4.6445,0.0,-4.6327,-4.6164,-4.5932,-4.6471,-4.6509,-4.5663,-4.5586,-4.5586,-4.5586,-4.5586,-4.5586,-4.5586,-4.5586,-4.5586,-4.5586,-4.5568,-4.5243,-4.4676,-4.458,-4.425,-4.3676,-4.366,-4.4066,-4.48,-4.4085,-4.5002,-4.6985,-4.4819,-4.4727,-4.6012,-4.5736,-4.5681,-4.5755,-4.5663,-4.5626,-4.5535,-4.4819,-4.5039,-4.5424,-4.4085,-4.3743,-4.3804,-4.3415,-4.3265,-4.3016,-4.1869,-4.1884,-4.2138,-4.1474,-4.1796,-4.2134,-4.1491,-4.1322,0.0,-4.0375,-4.0273,-4.029,-4.0223,-4.0273,-4.0324,-4.0324,-4.0324,-4.0324,-4.0324,-4.0257,-4.0172,-4.0087,-4.007,-4.007,-4.007,-4.007,-4.007,-4.007,-4.007,-4.007,-4.007,-4.007,-4.007,-4.007,-4.007,-4.007,-4.007,-4.007,-4.007,-4.007,-4.007,-4.007,-4.007,-4.007,-4.007,-4.007,-4.007,-4.007,-4.007,-4.007,-4.007,-4.007,-4.007,-4.007,-4.0121,-4.0079,-4.0869,-4.225,-4.3961,-4.4587,-4.4587,0.0,-4.6308,-4.6308,-4.6308,-4.6875,-4.7344,-4.7344,-4.7344,-4.7344,-4.7344,-4.6554,-4.5958,-4.5895,-4.5876,-4.5797,-4.5605,-4.5586,-4.5586,-4.5586,-4.5586,-4.5586,-4.5586,-4.5586,-4.5586,-4.5586,-4.5342,-4.5118,-4.4988,-4.4401,-4.4363,-4.4878,-4.4589,-4.4911,-4.5663,-4.5498,-4.6049,-4.7095,-4.6617,-4.6599,-4.6709,-4.4745,-4.436,-4.4874,-4.4213,-4.3956,-4.3938,-4.3791,-4.3828,-4.4011,-4.436,-4.4198,-4.4043,-4.518,-4.4385,-4.3072,-4.3638,-4.2992,-4.212,-4.2106,-4.2185,-4.2252,-4.2117,-4.2083,0.0,-4.1153,-4.1441,-4.1694,-4.1102,-4.1457,-4.1863,-4.1863,-4.1863,-4.1863,-4.1863,-4.1356,-4.0781,-4.0155,-4.007,-4.007,-4.007,-4.007,-4.007,-4.007,-4.007,-4.007,-4.007,-4.007,-4.007,-4.007,-4.007,-4.007,-4.007,-4.007,-4.007,-4.007,-4.007,-4.007,-4.007,-4.007,-4.007,-4.007,-4.007,-4.007,-4.007,-4.007,-4.007,-4.007,-4.007,-4.007,-4.0121,-4.0079,-4.0258,-4.0849,-4.358,-4.4587,-4.4587,-4.6387,-4.6641,-4.6816,-4.6387,-4.7012,-4.7441,-4.7012,-4.7324,-4.7432,-4.7011,-4.6725,-4.6519,-4.645,-4.6683,-4.6855,-4.6855,-4.6471,-4.624,-4.624,-4.5836,-4.5586,-4.5586,-4.5586,-4.5797,-4.624,-4.6071,-4.5831,-4.5437,-4.5084,-4.4909,-4.4961,-4.4796,-4.5131,-4.5883,-4.548,-4.5975,-4.7076,-4.625,-4.6617,-4.7572,-4.5938,-4.5057,-4.4672,-4.425,-4.3846,-4.3497,-4.3497,-4.3497,-4.3608,-4.4433,-4.4766,-4.4867,-4.4953,-4.4797,-4.451,-4.4314,-4.3968,-4.3615,-4.3408,-4.3597,-4.3749,-4.3037,-4.2861,0.0,0.0,-4.2033,-4.2185,-4.1813,-4.1745,-4.1745,-4.1745,-4.1745,-4.1745,-4.1745,-4.1441,-4.1136,-4.0898,-4.0443,-4.007,-4.007,-4.007,-4.007,-4.007,-4.007,-4.007,-4.007,-4.007,-4.007,-4.007,-4.007,-4.007,-4.007,-4.007,-4.007,-4.007,-4.007,-4.007,-4.007,-4.007,-4.007,-4.007,-4.007,-4.007,-4.007,-4.007,-4.007,-4.007,-4.007,-4.007,-4.0104,-4.01,-4.1045,-4.2543,-4.4037,-4.4614,-4.4587,-4.6465,-4.6875,-4.7129,-4.6426,-4.7012,-4.7363,-4.666,-4.7139,-4.7281,-4.6378,-4.6784,-4.712,-4.7006,-4.7528,-4.8009,-4.8317,-4.7317,-4.6855,-4.7355,-4.6413,-4.5836,-4.5836,-4.599,-4.6336,-4.6894,-4.6916,-4.6628,-4.6013,-4.5726,-4.5351,-4.4947,-4.4782,-4.5223,-4.6085,-4.5131,-4.5773,-4.748,-4.57,-4.6159,-4.8012,-4.7205,-4.6195,-4.5149,-4.4837,-4.4305,-4.3699,-4.3552,-4.3497,-4.3608,-4.4433,-4.5131,-4.5517,-4.4681,-4.5106,-4.5766,-4.4981,-4.492,-4.5103,-4.4851,-4.5212,-4.5389,-4.4247,-4.3951,-4.3799,0.0,0.0,0.0,-4.2894,-4.2518,-4.2211,-4.2211,-4.1989,-4.1818,-4.1818,-4.1699,-4.1647,-4.1707,-4.1087,-4.0489,-4.0153,-4.0087,-4.0087,-4.0085,-4.0339,-4.0374,-4.0138,-4.034,-4.0374,-4.0138,-4.007,-4.007,-4.007,-4.007,-4.007,-4.007,-4.007,-4.007,-4.007,-4.007,-4.007,-4.007,-4.007,-4.007,-4.007,-4.007,-4.007,-4.007,-4.007,-4.007,-4.0104,-4.0103,-4.161,-4.3831,-4.4371,-4.4601,-4.4587,-4.6465,-4.6387,-4.6426,-4.6328,-4.7012,-4.7578,-4.7461,-4.7542,-4.7237,-4.6236,-4.6639,-4.7005,-4.699,-4.7028,-4.7625,-4.9125,-4.7105,-4.6701,-4.8971,-4.7625,-4.6759,-4.6759,-4.7451,-4.7528,-4.6913,-4.6949,-4.6944,-4.6862,-4.5491,-4.5164,-4.5755,-4.5039,-4.5516,-4.6911,-4.5388,-4.6416,-4.915,-4.6764,-4.6342,-4.7186,-4.6361,-4.6361,-4.6691,-4.5259,-4.4654,-4.447,-4.3754,-4.3497,-4.3608,-4.4433,-4.4764,-4.504,-4.6341,-4.5865,-4.5168,-4.662,-4.6092,-4.5186,-4.5964,-4.6217,-4.627,-4.6086,-4.6051,-4.5857,-4.5112,0.0,-4.5734,-4.5076,0.0,-4.5804,-4.5804,0.0,0.0,-4.4058,-4.3504,-4.284,-4.2325,-4.2365,-4.1922,-4.0306,-4.0101,-4.0101,-4.0075,-4.1212,-4.1446,-4.0172,-4.1246,-4.1429,-4.0172,-4.007,-4.007,-4.007,-4.007,-4.007,-4.007,-4.007,-4.007,-4.007,-4.007,-4.007,-4.007,-4.007,-4.007,-4.007,-4.007,-4.007,-4.007,-4.007,-4.007,-4.0104,-4.0103,-4.0282,-4.0936,-4.3613,-4.4601,-4.4587,-4.6367,-4.6719,-4.7051,-4.7051,-4.7773,-4.8359,-4.8359,-4.8291,-4.7875,-4.6874,-4.6894,-4.7355,-4.8298,-4.7913,-4.8298,-4.999,-4.824,-4.7721,-4.9298,-4.7836,-4.7336,-4.8317,-4.8202,-4.8413,-4.9086,-4.8635,-4.8186,-4.7758,-4.7121,-4.6717,-4.6599,-4.6269,-4.6471,-4.7076,-4.592,-4.6159,-4.7407,-4.6838,-4.6801,-4.7131,-4.7241,-4.7223,-4.6893,-4.48,-4.3993,-4.3956,-4.3608,-4.3497,-4.3534,-4.3883,-4.4617,-4.5351,-4.5094,-4.5516,-4.614,-4.6444,-4.6366,-4.6321,-4.6845,-4.6999,-4.691,-4.6478,-4.6383,-4.6342,-4.6006,-4.6183,-4.6324,-4.6006,0.0,0.0,0.0,0.0,0.0,0.0,-4.4671,-4.4401,-4.4216,-4.3342,-4.2236,-4.0892,0.0,0.0,-4.0631,-4.1817,-4.2079,-4.0676,-4.1864,-4.2061,-4.0611,-4.0577,-4.0417,-4.0121,-4.007,-4.007,-4.007,-4.007,-4.007,-4.007,-4.007,-4.007,-4.007,-4.007,-4.007,-4.007,-4.007,-4.007,-4.007,-4.007,-4.007,-4.0087,-4.0121,-4.0083,-4.0478,-4.3474,-4.4601,-4.4587,-4.6601,-4.7168,-4.7598,-4.7598,-4.832,-4.8884,-4.8855,-4.872,-4.8367,-4.7587,-4.7587,-4.8182,-4.9606,-4.9394,-4.9837,-5.1587,-5.0144,-4.9413,-5.0048,-4.874,-4.8163,-4.8682,-4.899,-4.9413,-4.9971,-4.985,-4.9406,-4.8626,-4.8168,-4.7653,-4.7113,-4.6893,-4.6911,-4.7095,-4.6507,-4.6489,-4.6929,-4.7297,-4.7443,-4.7462,-4.759,-4.704,-4.5957,-4.4415,-4.3681,-4.3497,-4.3497,-4.3497,-4.3516,-4.3754,-4.4599,0.0,-4.4452,-4.5204,-4.6379,-4.6012,-4.6159,-4.656,-4.7157,-4.7306,-4.7313,-4.7259,-4.7116,-4.699,-4.7223,-4.7098,-4.7008,-4.7241,-4.6856,0.0,0.0,0.0,-4.59,-4.59,0.0,-4.5525,-4.5468,-4.4227,-4.3302,-4.317,-4.327,0.0,0.0,-4.2882,-4.2987,-4.159,-4.2581,-4.265,-4.1213,-4.1133,-4.0967,-4.0611,-4.0417,-4.0336,-4.0336,-4.0154,-4.007,-4.007,-4.007,-4.007,-4.007,-4.007,-4.007,-4.007,-4.007,-4.007,-4.007,-4.007,-4.007,-4.0087,-4.0088,-4.0101,-4.0478,-4.3515,-4.4606,-4.4587,-4.7383,-4.7578,-4.7598,-4.7598,-4.832,-4.8868,-4.8728,-4.8585,-4.8444,-4.8277,-4.8894,-4.9663,-5.0548,-5.1337,-5.2491,-5.4222,-5.2779,-5.1798,-5.1837,-5.1048,-4.949,-4.7086,-5.0067,-5.0664,-4.824,-4.9867,-5.0325,-4.9466,-4.7911,-4.7113,-4.7095,-4.6305,-4.6361,-4.7113,-4.7095,-4.7957,-4.9407,-4.8618,-4.8269,-4.8141,-4.6599,-4.5021,-4.3681,-4.4397,-4.4176,-4.3497,-4.3497,0.0,0.0,-4.4397,-4.4709,0.0,0.0,0.0,-4.4929,-4.5681,-4.5369,-4.5131,-4.6672,0.0,-4.7497,-4.9093,-4.8873,-4.8469,-4.9313,-4.8854,-4.8488,-4.9313,-4.9478,-4.9698,-5.0486,-4.8894,-4.7452,-4.7452,-4.6777,0.0,0.0,-4.516,-4.5785,-4.7828,-4.6706,-4.5328,0.0,-4.4659,-4.4438,-4.3048,-4.353,-4.3248,-4.1846,-4.175,-4.175,-4.1768,-4.1178,-4.0856,-4.0856,-4.0368,-4.007,-4.007,-4.007,-4.007,-4.007,-4.007,-4.007,-4.007,-4.007,-4.007,-4.007,-4.007,-4.007,-4.0104,-4.0086,-4.0132,-4.0461,-4.3469,-4.4596,-4.4587,-4.8398,-4.8926,-4.9316,-4.9316,-4.9562,-4.9727,-4.9567,-4.9869,-5.025,-5.074,-5.0952,-5.1818,-5.378,-5.378,-5.4068,-5.5203,-5.3741,-5.301,-5.3587,-5.2299,-5.1375,-5.1087,-5.2164,-5.2356,-5.1491,-5.2069,-5.1844,-5.0703,-4.9913,-4.9374,-4.9082,-4.7997,-4.8233,-4.9499,-4.8398,-4.7921,-4.7976,-4.8214,-4.7388,-4.5883,-4.5333,-4.5094,-4.5002,-4.4213,-4.3736,-4.3497,-4.3497,-4.3497,0.0,-4.3809,-4.4268,-4.4654,-4.4397,-4.4856,-4.5553,-4.581,-4.6085,0.0,0.0,0.0,-4.8031,-4.86,0.0,0.0,-4.8673,-4.8508,-4.8526,-4.9352,-4.9554,-4.9829,-5.0655,-4.9746,-4.8875,-4.8875,-4.8181,-4.7354,0.0,-4.5073,-4.4492,-4.5755,-4.5425,-4.5017,-4.4803,0.0,-4.5049,-4.3683,-4.41,-4.3849,-4.2476,-4.24,-4.2203,-4.1793,-4.1578,-4.149,-4.149,-4.092,-4.0607,-4.0625,-4.0286,-4.007,-4.007,-4.007,-4.007,-4.007,-4.007,-4.007,-4.007,-4.007,-4.007,-4.0087,-4.0104,-4.0118,-4.0478,-4.3498,-4.4589,-4.4587,-4.9355,-5.0039,-5.0547,-5.0254,-5.0401,-5.051,-5.0414,-5.1183,-5.1972,-5.2431,-5.2932,-5.3991,-5.5953,-5.5972,-5.6069,-5.6588,-5.5645,-5.4876,-5.4511,-5.3453,-5.2529,-5.1875,-5.2722,-5.2626,-5.1414,-5.2425,-5.2292,-5.0855,-5.113,-5.0999,-5.0573,-4.975,-4.9766,-5.0343,-4.9848,-4.8691,-4.7186,-4.8269,-4.7333,-4.5112,-4.4837,-4.4837,-4.4929,-4.3883,-4.3846,-4.4268,0.0,-4.3497,-4.3497,-4.3497,-4.403,-4.4562,-4.3754,-4.4599,-4.5847,-4.5571,-4.6049,-4.6856,-4.7664,-4.7884,0.0,-4.8618,-4.8526,0.0,-4.9058,0.0,-4.8985,-4.9793,-5.0141,-5.0325,-5.0362,-5.0659,-5.0493,-4.9315,-4.893,-4.8269,0.0,-4.5315,-4.4436,-4.469,-4.5112,-4.5389,-4.5397,-4.568,-4.5425,-4.4267,-4.4236,-4.3888,-4.305,0.0,-4.2808,-4.2444,-4.2244,-4.2121,-4.2121,-4.1534,-4.1133,-4.0903,-4.0528,-4.0286,-4.007,-4.007,-4.007,-4.007,-4.007,-4.007,-4.007,-4.007,-4.007,-4.007,-4.007,-4.0103,-4.0478,-4.3498,-4.4589,-4.4587,-5.0312,-5.0976,-5.1289,-5.0506,-5.0828,-5.1183,-5.1106,-5.2395,-5.3355,-5.3337,-5.478,-5.6184,-5.7088,-5.7934,-5.8415,-5.8415,-5.8377,-5.7319,-5.4857,-5.4645,-5.3145,-4.9798,-5.1972,-5.1722,-4.8432,-5.1197,-5.1896,-5.025,-5.1499,-5.1908,-5.1535,-5.1428,-5.0805,-4.9795,-5.1338,-5.0178,-4.7223,-4.8765,-4.8012,-4.57,-4.4947,-4.4232,-4.3608,-4.3516,-4.4488,-4.5681,-4.4066,-4.3497,-4.3497,-4.3497,-4.4011,-4.4525,-4.3791,-4.4599,-4.5718,-4.5021,-4.5369,-4.614,-4.6948,-4.7186,-4.7553,-4.9132,0.0,0.0,0.0,0.0,-4.9756,-5.0582,-5.1092,-5.1073,-4.9958,-5.1507,-5.1989,-4.893,-4.9058,-4.8673,-4.6232,-4.5883,-4.5571,-4.48,-4.5809,-4.6434,-4.5993,-4.592,-4.5571,-4.4837,-4.3975,-4.3497,-4.3497,0.0,-4.3497,-4.3497,-4.3014,-4.275,-4.275,-4.2162,-4.1578,-4.0995,-4.0949,-4.0607,-4.0121,-4.0121,-4.007,-4.007,-4.007,-4.007,-4.007,-4.007,-4.007,-4.007,-4.007,-4.017,-4.0665,-4.352,-4.4613,-4.4587,-5.2051,-5.2754,-5.324,-5.2937,-5.1915,-5.1125,-5.1106,-5.2318,-5.3703,-5.4895,-5.6569,-5.8184,-5.9646,-6.0012,-6.0165,-6.0165,-5.9569,-5.8665,-5.7415,-5.6722,-5.5395,-5.328,-5.3818,-5.3453,-5.1914,-5.3275,-5.3481,-5.2406,-5.308,-5.3327,-5.3149,-5.1959,-5.1543,-5.1825,-5.1959,-5.0178,-4.7186,-4.8196,-4.6874,-4.4085,-4.3883,-4.4397,-4.5149,0.0,-4.4488,-4.5681,-4.4066,-4.3497,-4.3497,-4.3497,-4.3626,-4.3883,-4.4268,-4.469,-4.5204,-4.6214,-4.6654,-4.6985,-4.7774,-4.7994,-4.8104,-4.8526,-4.8471,-4.8416,0.0,0.0,0.0,0.0,0.0,0.0,0.0,-5.0809,-4.9814,-5.0643,-4.9575,-4.7994,-4.6159,-4.5553,-4.5168,-4.4764,-4.5002,-4.5626,-4.6709,-4.625,-4.581,-4.5608,-4.4287,-4.3497,-4.3497,0.0,0.0,-4.3497,-4.3375,-4.3286,-4.3286,-4.277,-4.2382,-4.2221,-4.1313,-4.0827,-4.0703,-4.0286,-4.007,-4.007,-4.007,-4.007,-4.007,-4.007,-4.007,-4.007,-4.007,-4.1494,-4.352,-4.4334,-4.4614,-4.4587,-5.334,-5.3359,-5.365,-5.4342,-5.324,-5.2395,-5.2704,-5.3763,-5.4957,-5.6186,-5.7857,-5.9261,-6.0146,-6.0569,-6.08,-6.08,-5.9685,-5.8781,-5.8338,-5.7126,-5.5838,-5.4549,-5.4491,-5.3741,-5.2145,-5.2933,-5.3318,-5.3203,-5.3475,-5.4058,-5.4917,-5.3618,-5.2682,-5.2082,-5.2565,-5.0874,-4.7627,-4.737,-4.6214,-4.4488,-4.3773,-4.403,0.0,-4.3828,-4.4048,-4.4727,-4.3828,-4.3497,-4.3497,-4.3497,-4.3718,-4.4103,-4.4562,-4.5186,-4.5938,-4.6856,-4.737,-4.7737,-4.8196,-4.8306,-4.8306,-4.8306,-4.8306,-4.8398,-4.8783,-4.8948,-4.9244,0.0,-5.0223,-5.0335,0.0,0.0,-5.0538,-5.0845,-4.9446,-4.7737,-4.6122,-4.5627,-4.526,-4.4764,-4.5021,-4.559,-4.6507,-4.5847,-4.5223,-4.4874,-4.3993,-4.3497,0.0,0.0,0.0,-4.3497,-4.3828,-4.3864,-4.3497,-4.3561,-4.3284,-4.2711,-4.175,-4.1178,-4.0856,-4.0319,-4.007,-4.007,-4.007,-4.007,-4.007,-4.007,-4.007,-4.0087,-4.0104,-4.1935,-4.4624,-4.4601,-4.4587,-4.4587,-5.4316,-5.3652,-5.3682,-5.5175,-5.4843,-5.4566,-5.5303,-5.6059,-5.6734,-5.7292,-5.8825,-5.9815,-5.9685,-6.0339,-6.08,-6.08,-5.9358,-5.8415,-5.8319,-5.6761,-5.5511,-5.4684,-5.4549,-5.3414,-5.1068,-5.1606,-5.2337,-5.3203,-5.3203,-5.4207,-5.6122,-5.5305,-5.3707,-5.1619,-5.303,-5.1695,-4.8272,-4.6618,-4.5809,-4.5515,-4.4083,-4.3497,-4.3497,-4.3497,-4.3497,-4.3497,-4.3497,-4.3497,-4.3497,-4.3497,-4.3956,-4.4562,-4.4672,-4.5736,-4.6966,-4.7095,-4.7682,-4.8306,-4.8306,-4.8306,-4.8306,-4.8306,-4.8306,-4.8508,-4.9242,-4.9612,-4.9759,-4.9759,-5.1261,-5.1115,0.0,0.0,-5.1893,-4.9816,-4.8802,-4.77,-4.5975,-4.5773,-4.5571,-4.4947,-4.5388,0.0,-4.6049,-4.5333,-4.4525,-4.3718,-4.3552,0.0,0.0,0.0,0.0,-4.3497,-4.4176,-4.4268,-4.3644,0.0,-4.4017,-4.2933,-4.2157,-4.1534,-4.0995,-4.0368,-4.007,-4.007,-4.007,-4.007,-4.007,-4.007,-4.0324,-4.068,-4.045,-4.2132,-4.4605,-4.4618,-4.4587,-4.4587,-5.5098,-5.5527,-5.5975,-5.6172,-5.675,-5.7422,-5.8098,-5.8254,-5.8253,-5.8269,-5.9727,-6.0708,-6.0589,-6.0704,-6.08,-6.08,-5.9877,-5.9011,-5.8338,-5.7338,-5.6376,-5.553,-5.4857,-5.3953,-5.2799,-5.2202,-5.2337,-5.3203,-5.3203,-5.3759,-5.4809,-5.4282,-5.3453,-5.2387,-5.2619,-5.1266,-4.8688,-4.6709,-4.5287,-4.4271,-4.3741,-4.3497,-4.3497,-4.3497,-4.3497,-4.3497,-4.3497,-4.3497,-4.3497,-4.3497,-4.3589,-4.3828,-4.4488,-4.5351,-4.625,-4.6929,-4.7682,-4.8306,-4.8306,-4.8306,-4.8306,-4.8306,-4.8306,-4.8343,-4.8489,-4.8563,-4.86,-4.86,-4.8917,-4.8087,-4.456,0.0,0.0,-4.6887,-4.7571,-4.7518,-4.5223,-4.5113,-4.5334,-4.5663,-4.5241,-4.5443,-4.6764,-4.6159,-4.5351,-4.4562,-4.3883,0.0,0.0,0.0,0.0,0.0,-4.3626,0.0,0.0,0.0,-4.394,-4.4327,-4.2629,-4.175,-4.1621,-4.0546,-4.007,-4.007,-4.007,-4.007,-4.007,-4.007,-4.1597,-4.37,-4.2419,-4.3027,-4.463,-4.4614,-4.4587,-4.4587,-5.5976,-5.5957,-5.6191,-5.7031,-5.7576,-5.8299,-5.9494,-6.0001,-6.0015,-5.9367,-5.9978,-6.04,-6.0146,-6.0531,-6.08,-6.08,-5.9627,-5.8704,-5.8338,-5.7049,-5.6126,-5.5722,-5.5318,-5.4511,-5.3241,-5.1933,-5.2125,-5.3876,-5.2549,-5.301,-5.5107,-5.4453,-5.3355,-5.1904,-5.1198,-5.0488,-4.9682,0.0,0.0,-4.5431,-4.4246,-4.374,-4.3758,-4.3582,-4.3497,-4.3497,-4.3497,-4.3497,-4.3497,-4.3497,-4.3497,-4.3626,-4.4452,-4.4984,-4.5535,-4.6764,-4.7388,-4.7774,-4.8196,-4.8306,-4.8306,-4.8306,-4.8306,-4.8306,-4.8306,-4.8306,-4.8306,-4.8306,-4.8309,-4.7315,-4.4088,-4.7518,0.0,0.0,0.0,-4.6746,-4.5863,-4.5369,-4.5132,-4.5259,-4.4947,-4.5186,-4.6361,-4.6122,-4.5571,-4.4764,-4.3956,0.0,0.0,0.0,0.0,0.0,0.0,0.0,0.0,0.0,0.0,-4.4066,-4.2526,-4.1979,-4.2221,-4.1059,-4.048,-4.0514,-4.0788,-4.0881,-4.0917,-4.1443,-4.2499,-4.3767,-4.3014,-4.3196,-4.3864,-4.4423,-4.4587,-4.4587,-5.6836,-5.6328,-5.6348,-5.789,-5.832,-5.8879,-6.0201,-6.1139,-6.1352,-6.0408,-6.0112,-5.9954,-5.98,-6.0223,-6.0512,-6.0512,-5.9165,-5.8223,-5.805,-5.6569,-5.5703,-5.5703,-5.5703,-5.4914,-5.3241,-5.1548,-5.1683,-5.3683,-5.1683,-5.2049,-5.4626,-5.4357,-5.3072,-5.1008,-5.0182,0.0,0.0,0.0,-4.6844,-4.6463,-4.4786,-4.4117,-4.4106,-4.3836,-4.3744,-4.3712,-4.3664,-4.3597,-4.3597,-4.3513,-4.3608,-4.3864,-4.4507,-4.4837,-4.5204,-4.6489,-4.6856,-4.704,-4.7847,-4.8049,-4.8104,-4.8269,-4.8306,-4.8306,-4.8306,-4.8306,-4.8306,-4.8306,-4.8309,-4.7518,-4.4967,-4.8145,0.0,0.0,0.0,-4.5535,-4.5955,-4.568,-4.5203,-4.4526,-4.4893,-4.5406,-4.5865,-4.6049,-4.5828,-4.5021,-4.4213,0.0,-4.3754,0.0,0.0,0.0,0.0,-4.4213,-4.3754,0.0,-4.4213,-4.3736,-4.2735,-4.2494,-4.2907,-4.2044,-4.1528,-4.1423,-4.1825,-4.195,-4.1968,-4.2836,-4.3243,-4.3433,-4.342,-4.3432,-4.3517,-4.4316,-4.4587,-4.4587,-5.7617,-5.7715,-5.7969,-5.8906,-5.9687,-6.0214,-6.0385,-6.1131,-6.1567,-6.1226,-6.0497,-6.0169,-6.0627,-6.005,-5.9627,-5.9627,-5.8819,-5.7953,-5.7165,-5.6222,-5.5703,-5.5703,-5.5703,-5.4914,-5.3241,-5.1548,-5.0818,-5.1048,-5.0818,-5.0856,-5.1202,-5.2645,-5.2168,-5.0139,0.0,0.0,0.0,-4.7227,-4.6341,-4.5239,-4.4739,-4.4553,-4.4527,-4.4501,-4.4501,-4.4447,-4.4058,-4.3955,-4.3912,-4.3597,-4.3975,-4.4617,-4.469,-4.5204,-4.581,-4.5975,-4.6012,-4.6195,-4.7003,-4.7223,-4.7407,-4.8122,-4.8306,-4.8306,-4.8306,-4.8306,-4.8306,-4.8306,-4.8309,-4.8217,-4.7915,-4.5954,-4.5169,0.0,0.0,0.0,-4.3778,-4.5388,-4.5828,-4.3869,-4.5535,-4.6636,-4.5957,-4.6562,-4.6654,-4.5847,-4.5039,0.0,0.0,0.0,0.0,-4.3497,0.0,-4.392,-4.458,-4.3938,-4.3938,-4.4599,-4.401,-4.3718,-4.3776,-4.3861,-4.3599,-4.3083,-4.3117,-4.3064,-4.2955,-4.3254,-4.38,-4.449,-4.4439,-4.4451,-4.4451,-4.4553,-4.4587,-4.4587,-5.7051,-5.7129,0.0,0.0,0.0,0.0,0.0,-6.1484,-6.1443,-6.0729,-6.0274,-6.0057,-6.0192,-5.9361,-5.8781,-5.8781,-5.8011,-5.7357,-5.7011,-5.6184,-5.5703,-5.5703,-5.5703,-5.4914,-5.3241,-5.1548,-5.0702,-5.0702,-5.0702,-5.0952,-5.1433,-5.2106,0.0,0.0,0.0,-4.8102,-4.7104,-4.6445,-4.5875,-4.5362,-4.5052,-4.4896,-4.4872,-4.4676,-4.458,-4.458,-4.4419,-4.4346,-4.4337,-4.4213,-4.4059,-4.4066,-4.4562,-4.4599,-4.4635,-4.5608,-4.5902,-4.6085,-4.6893,-4.7462,-4.7921,-4.8233,-4.8306,-4.8306,-4.8306,-4.8306,-4.8306,-4.8306,-4.8307,-4.8307,-4.8307,-4.7259,-4.68,0.0,0.0,0.0,-4.3775,-4.4232,-4.4689,-4.4504,-4.4744,-4.5002,-4.5168,-4.592,-4.625,-4.592,-4.5149,0.0,0.0,0.0,0.0,-4.4911,0.0,-4.3883,-4.4709,-4.4378,-4.4378,-4.4709,-4.4647,-4.4787,-4.5093,-4.4836,-4.4644,-4.4448,-4.4098,-4.3993,-4.402,-4.4118,-4.4321,-4.4597,-4.4609,-4.4814,-4.5142,-4.5299,-4.5027,-4.4577,-5.6933,0.0,-5.7754,0.0,-5.9394,-5.9863,-6.082,-6.1172,-6.0976,-6.0039,-5.9776,-5.9605,-5.9427,-5.8553,-5.7953,-5.7915,-5.7357,-5.6876,-5.6626,-5.603,-5.5703,-5.5703,-5.5472,-5.4664,-5.3241,-5.1548,-5.0452,-4.9933,-5.0183,-5.0356,-5.0433,0.0,0.0,0.0,-4.7163,-4.6759,-4.649,-4.5855,-4.5586,-4.5586,-4.5342,-4.5243,-4.5222,-4.4988,-4.4877,-4.4877,-4.4781,-4.4751,-4.477,-4.4915,-4.4458,-4.4008,-4.5064,-4.4823,-4.4453,-4.5823,-4.6064,-4.6064,-4.6845,-4.7659,-4.8361,-4.8601,-4.8584,-4.8492,-4.8362,-4.829,-4.829,-4.829,-4.831,-4.8311,-4.8292,-4.8291,-4.8309,-4.831,0.0,0.0,0.0,-4.3499,-4.3791,-4.4522,-4.4524,-4.4398,-4.4361,-4.548,-4.6067,-4.559,0.0,0.0,0.0,0.0,0.0,0.0,0.0,0.0,0.0,-4.458,-4.4709,-4.4727,-4.5364,-4.5913,-4.6214,-4.5918,-4.5785,-4.5828,-4.5238,-4.5042,-4.5142,-4.5142,-4.5142,-4.5142,-4.5142,-4.5372,-4.58,-4.5905,-4.5632,-4.5153,-5.7715,-5.8574,-5.918,-5.9199,-5.9863,-6.0117,-5.9355,-5.9902,-6.0137,-5.9316,-5.9043,-5.8805,-5.8527,-5.7747,-5.717,-5.7011,-5.6992,-5.6626,-5.5761,-5.5703,-5.5703,-5.5703,-5.4934,-5.4107,-5.3222,-5.1548,-4.9856,-4.8125,-4.899,0.0,-4.699,0.0,-4.7721,-4.6913,-4.6913,-4.6413,-4.5605,-4.5586,-4.5586,-4.5586,-4.5605,-4.5586,-4.5586,-4.5586,-4.5586,-4.5531,-4.5222,-4.5096,-4.5167,-4.5634,-4.524,-4.4863,-4.6485,-4.642,-4.5922,-4.6741,-4.6428,-4.5976,-4.6787,-4.7636,-4.8485,-4.9286,-4.9305,-4.8955,-4.8436,-4.8294,-4.8294,-4.8294,-4.8303,-4.8289,-4.8289,-4.8292,-4.8307,-4.831,0.0,0.0,0.0,-4.3504,-4.3504,-4.3522,-4.537,-4.5847,-4.3723,-4.5682,-4.6452,0.0,0.0,0.0,0.0,0.0,0.0,-4.3516,-4.3497,0.0,-4.3497,-4.4305,-4.4709,-4.4727,-4.6287,-4.7057,-4.7094,-4.7275,-4.7367,-4.7324,-4.6664,-4.6365,-4.6383,-4.6383,-4.6383,-4.6383,-4.6383,-4.6383,-4.6383,-4.6383,-4.6365,-4.6365,-5.6953,-5.7246,-5.7617,-5.8203,-5.9023,-5.9687,-5.9961,-6.0234,-6.0117,-5.9316,-5.8633,-5.7925,-5.7148,-5.6614,-5.6302,0.0,-5.6165,-5.5992,0.0,-5.5703,-5.5703,-5.5703,-5.4934,-5.4087,-5.3222,-5.1548,-4.9856,-4.8105,0.0,0.0,0.0,-4.8259,-4.7355,-4.6009,-4.6009,-4.5855,-4.5586,-4.5586,-4.5586,-4.5586,-4.5586,-4.5586,-4.5586,-4.5586,-4.5586,-4.5586,-4.5476,-4.5822,-4.6263,-4.582,-4.5896,-4.6258,-4.6774,-4.6411,-4.607,-4.7494,-4.7701,-4.755,-4.7815,-4.8494,-4.9183,-4.9447,-4.9447,-4.9324,-4.9154,-4.9541,-4.9948,-4.9948,-4.9954,-4.9939,-4.9939,-4.9052,-4.8301,-4.8289,-4.5585,0.0,-4.3501,-4.3499,-4.3499,-4.3499,-4.6061,-4.6943,-4.4796,-4.4618,0.0,0.0,0.0,0.0,0.0,0.0,0.0,0.0,-4.4066,0.0,-4.4305,-4.5131,-4.5516,-4.5535,-4.715,-4.7921,-4.7939,-4.7965,-4.7797,-4.7385,-4.7194,-4.6801,-4.6383,-4.6383,-4.6383,-4.6383,-4.6383,-4.6664,-4.7088,-4.6918,-4.7216,-4.7697,-5.6601,-5.6855,-5.7168,-5.7363,-5.8125,-5.8769,-5.8945,-5.9258,-5.916,-5.832,-5.8027,-5.7539,-5.6582,-5.6246,0.0,-5.6015,-5.5857,-5.578,-5.578,-5.5722,-5.5568,-5.5261,-5.4453,-5.3606,-5.2741,-5.1395,0.0,-4.8586,-4.9048,-4.8836,-4.7952,-4.7413,-4.6605,-4.5586,-4.5586,-4.5586,-4.5586,-4.5586,-4.5586,-4.5586,-4.5586,-4.5586,-4.5586,-4.5586,-4.5586,-4.5586,-4.5586,-4.5951,-4.6374,-4.6163,-4.6451,-4.7009,-4.7644,-4.7524,-4.7291,-4.8014,-4.8471,-4.8718,-4.8718,-4.9302,-4.9949,-4.9949,-4.9949,-4.9949,-4.9949,-5.0355,-5.0679,-5.0679,-5.0715,-5.0684,-5.0684,-4.9879,-4.889,-4.7958,-4.537,-4.3511,-4.348,-4.349,-4.3497,-4.3518,-4.5254,0.0,0.0,-4.4251,-4.4124,0.0,0.0,0.0,0.0,0.0,0.0,-4.4966,-4.4323,0.0,-4.4709,-4.581,-4.6361,-4.6379,-4.7682,-4.8306,-4.8306,-4.8306,-4.8075,-4.7756,-4.7756,-4.7512,-4.7132,-4.7132,-4.7132,-4.7132,-4.7132,-4.7367,-4.7738,-4.7588,-4.7846,-4.8306,-5.6601,-5.7246,-5.7558,0.0,-5.7324,0.0,-5.6816,-5.7383,-5.7617,-5.6797,-5.7344,-5.75,-5.6699,-5.6484,-5.6352,-5.6251,0.0,0.0,0.0,-5.5742,-5.5299,-5.4549,-5.3606,-5.2741,-5.1933,-5.1106,-5.0298,-4.949,-4.7759,-4.6509,-4.5759,-4.5643,-4.5586,-4.5586,-4.5586,-4.5586,-4.5586,-4.5586,-4.5586,-4.5586,-4.5586,-4.5586,-4.5586,-4.5586,-4.5586,-4.5586,-4.5586,-4.5663,-4.5893,-4.6644,-4.699,-4.7336,-4.8836,-4.9356,-4.924,-4.8509,-4.8856,-4.949,-4.949,-5.0067,-5.0702,-5.0702,-5.0702,-5.0702,-5.0702,-5.0702,-5.0702,-5.0702,-5.0708,-5.0718,-5.0718,-5.0582,-4.9759,-4.7408,-4.5103,-4.3608,-4.3502,-4.35,-4.3477,0.0,0.0,0.0,0.0,-4.4398,-4.4579,0.0,0.0,0.0,0.0,0.0,-4.4452,-4.3608,-4.4305,-4.4745,-4.4782,-4.6342,-4.715,-4.7205,-4.7957,-4.8306,-4.8306,-4.8306,-4.8306,-4.8306,-4.8306,-4.8306,-4.8306,-4.8306,-4.8306,-4.8306,-4.8306,-4.8306,-4.8306,-4.8306,-4.8306,-4.8306,0.0,0.0,-5.6836,-5.664,-5.7324,-5.7832,-5.7617,-5.7773,-5.7832,-5.7617,-5.7187,-5.6836,-5.6621,-5.6562,-5.6539,-5.6499,-5.6281,-5.613,-5.613,-5.5378,-5.4858,-5.4666,-5.3087,-5.2125,-5.1914,-5.1106,-5.0587,-5.0375,-4.8048,-4.7105,-4.749,-4.6201,-4.5586,-4.5586,-4.5586,-4.5586,-4.5586,-4.5586,-4.5586,-4.5586,-4.5586,-4.5586,-4.5586,-4.5586,-4.5586,-4.5586,-4.5586,-4.6413,-4.7451,-4.7048,-4.7759,-4.8759,-4.849,-4.8856,-4.949,-4.9952,-5.0221,-5.0375,-5.0375,-5.0529,-5.0702,-5.0702,-5.0702,-5.0702,-5.0702,-5.0702,-5.0702,-5.0702,-5.0701,-5.0699,-5.0699,-4.9595,-4.8389,-4.7405,-4.6036,-4.473,-4.3659,-4.3483,-4.3511,0.0,-4.3503,-4.3486,-4.3497,-4.3736,-4.3756,0.0,0.0,0.0,0.0,-4.5698,-4.5662,-4.4452,-4.4617,-4.5002,-4.5608,-4.6617,-4.7425,-4.8031,-4.8214,-4.8306,-4.8306,-4.8306,-4.8306,-4.8306,-4.8306,-4.8306,-4.8306,-4.8306,-4.8306,-4.8306,-4.8306,-4.8306,-4.8306,-4.8306,-4.8306,-4.8288,-5.6601,-5.6601,-5.6601,-5.6601,-5.6992,-5.7305,-5.7305,-5.7305,-5.7305,-5.7305,-5.6894,-5.6601,-5.6601,-5.6601,-5.6601,-5.6601,-5.6403,-5.6125,-5.5711,-5.5128,-5.4433,-5.3646,-5.2568,-5.1818,-5.1452,-5.0952,-5.0298,-4.951,-4.8125,-4.7278,-4.6932,-4.6028,-4.5586,-4.5586,-4.5586,-4.5586,-4.5586,-4.5586,-4.5586,-4.5586,-4.5586,-4.5586,-4.5586,-4.5586,-4.5586,-4.5586,-4.5586,-4.6182,-4.6894,-4.6451,-4.7182,-4.824,-4.8125,-4.8702,-4.9567,-5.0433,-5.0702,-5.0702,-5.0702,-5.0702,-5.0702,-5.0702,-5.0702,-5.0702,-5.0702,-5.0702,-5.0702,-5.0702,-5.0702,-5.0702,-5.0702,-4.9295,-4.8001,-4.7697,-4.65,-4.5336,-4.4578,-4.4474,-4.4471,-4.4468,-4.3896,-4.3498,-4.3518,-4.349,-4.3483,-4.3483,-4.3501,0.0,-4.4361,-4.4912,-4.5076,-4.4727,-4.5424,-4.6012,-4.6452,-4.726,-4.7884,-4.8306,-4.8306,-4.8306,-4.8306,-4.8306,-4.8306,-4.8306,-4.8306,-4.8306,-4.8306,-4.8306,-4.8306,-4.8306,-4.8306,-4.8306,-4.8306,-4.8306,-4.8306,-4.8306,-5.6601,-5.6601,-5.6601,-5.6601,-5.6601,-5.6601,-5.6601,-5.6601,-5.6601,-5.6601,-5.6601,-5.6601,-5.6601,-5.6601,-5.6601,-5.6601,-5.6504,-5.6055,-5.5195,-5.4761,-5.3876,-5.2396,-5.2088,-5.1626,-5.0952,-5.0818,-4.9933,-4.8298,-4.8163,-4.7317,-4.5778,-4.5663,-4.5586,-4.5586,-4.5586,-4.5586,-4.5586,-4.5586,-4.5586,-4.5586,-4.5586,-4.5586,-4.5586,-4.5586,-4.5586,-4.5586,-4.5586,-4.5682,-4.5797,-4.5797,-4.6451,-4.7413,-4.8086,-4.8894,-4.974,-5.0471,-5.0702,-5.0702,-5.0702,-5.0702,-5.0702,-5.0702,-5.0702,-5.0702,-5.0702,-5.0702,-5.0702,-5.0702,-5.0702,-5.0702,-5.0702,-4.9356,-4.824,-4.824,-4.6741,-4.5602,-4.5602,0.0,-4.5691,-4.5944,-4.4695,-4.3826,-4.3811,-4.3602,-4.3503,-4.3479,-4.3516,-4.3483,-4.3487,-4.3943,-4.4454,-4.4875,-4.6214,-4.7039,-4.7297,-4.7976,-4.8306,-4.8306,-4.8306,-4.8306,-4.8306,-4.8306,-4.8306,-4.8306,-4.8306,-4.8306,-4.8306,-4.8306,-4.8306,-4.8306,-4.8306,-4.8306,-4.8306,-4.8306,-4.8306,-4.8306,-5.6601,-5.6601,-5.6601,-5.6601,-5.6601,-5.6601,-5.6601,-5.6601,-5.6601,-5.6601,-5.6601,-5.6601,-5.6601,-5.6601,-5.6601,-5.6601,-5.6582,-5.6191,-5.5332,-5.3767,-5.2752,-5.248,-5.1692,-5.1203,-5.1068,-5.0952,-5.0317,-4.9202,-4.8471,-4.7625,-4.6682,-4.5932,-4.5586,-4.5586,-4.5586,-4.5586,-4.5586,-4.5586,-4.5586,-4.5586,-4.5586,-4.5586,-4.5586,-4.5586,-4.5586,-4.5586,-4.5586,-4.6067,-4.6701,-4.6701,-4.774,-4.9029,-4.9163,-4.9798,-5.051,-5.0644,-5.0702,-5.0702,-5.0702,-5.0702,-5.0702,-5.0702,-5.0702,-5.0702,-5.0702,-5.0702,-5.0702,-5.0702,-5.0702,-5.0702,-5.0702,-4.9702,-4.8874,-4.8875,-4.703,-4.5609,-4.5591,0.0,-4.6128,-4.7544,-4.6272,-4.5268,-4.5275,-4.4209,-4.3495,-4.3484,-4.3486,-4.3487,-4.3506,-4.6085,-4.6985,-4.5736,-4.5955,-4.6725,-4.8104,-4.8251,-4.8306,-4.8306,-4.8306,-4.8306,-4.8306,-4.8306,-4.8306,-4.8306,-4.8306,-4.8306,-4.8306,-4.8306,-4.8306,-4.8306,-4.8306,-4.8306,-4.8306,-4.8306,-4.8306,-4.8288,-5.6601,-5.6601,-5.6601,-5.6601,-5.6601,-5.6601,-5.6601,-5.6601,-5.6601,-5.6601,-5.6601,-5.6426,-5.5957,-5.5898,-5.5703,-5.5234,-5.4765,-5.4336,-5.3926,-5.3535,-5.2887,-5.1952,-5.1425,-5.1133,-5.1092,-5.0582,-4.9817,-4.8817,-4.7932,-4.7067,-4.6182,-4.5778,-4.5586,-4.5586,-4.5586,-4.5586,-4.5586,-4.5586,-4.5586,-4.5586,-4.5586,-4.5586,-4.5586,-4.5586,-4.5586,-4.5586,-4.5586,-4.5855,-4.6201,-4.6201,-4.6701,-4.7432,-4.7913,-4.8336,-4.8836,-4.9721,-5.0317,-5.0702,-5.0702,-5.0702,-5.0702,-5.0702,-5.0702,-5.0702,-5.0702,-5.0702,-5.0702,-5.0702,-5.0702,-5.0702,-5.0702,-5.0279,-4.9701,-4.9106,-4.7604,0.0,0.0,-4.6299,-4.6646,-4.7548,-4.6991,-4.6997,-4.8238,-4.6573,-4.5247,-4.4846,-4.5605,-4.6075,-4.6104,-4.7481,-4.7978,-4.7221,-4.7184,-4.7571,-4.8306,-4.8306,-4.8306,-4.8306,-4.8306,-4.8306,-4.8306,-4.8306,-4.8306,-4.8306,-4.8306,-4.8306,-4.8306,-4.8306,-4.8306,-4.8306,-4.8306,-4.8306,-4.8306,-4.8306,-4.8307,-4.8309,-5.6269,-5.6308,-5.6367,-5.6562,-5.6601,-5.6601,-5.6601,-5.6601,-5.6601,-5.6601,-5.6426,-5.6035,-5.5371,-5.5117,-5.4726,-5.4062,-5.3398,-5.293,-5.2715,-5.332,-5.3008,-5.1465,-5.1308,-5.1121,-5.084,-5.037,-4.944,-4.8053,-4.7582,-4.6759,-4.5643,-4.5643,-4.5624,-4.5586,-4.5586,-4.5586,-4.5586,-4.5586,-4.5586,-4.5586,-4.5586,-4.5586,-4.5586,-4.5586,-4.5586,-4.5586,-4.5586,-4.5586,-4.5586,-4.5586,-4.572,-4.6047,-4.6913,-4.7317,-4.7778,-4.926,-5.0183,-5.0702,-5.0702,-5.0702,-5.0702,-5.0702,-5.0702,-5.0702,-5.0702,-5.0702,-5.0702,-5.0702,-5.0702,-5.0702,-5.0702,-5.0375,-4.9682,-4.8433,0.0,0.0,0.0,-4.7067,-4.7182,-4.7721,-4.797,-4.8683,-5.016,-4.8705,-4.7416,-4.6775,-4.7718,-4.8298,-4.8291,-4.829,-4.8309,-4.8306,-4.8306,-4.8306,-4.8306,-4.8306,-4.8306,-4.8306,-4.8306,-4.8306,-4.8306,-4.8306,-4.8306,-4.8306,-4.8306,-4.8306,-4.8306,-4.8306,-4.8306,-4.8306,-4.8306,-4.8306,-4.8306,-4.8306,-4.8307,-4.8198,-5.5234,-5.539,-5.5644,-5.6465,-5.6601,-5.6601,-5.6601,-5.6601,-5.6601,-5.6601,-5.5898,-5.5371,-5.5312,-5.457,-5.4062,-5.4004,-5.3945,-5.3555,-5.2754,-5.2754,-5.2383,-5.1445,-5.1387,-5.0976,-5.0096,-5.0759,-4.984,-4.728,-4.8025,-4.7508,-4.5796,-4.5796,-4.5719,-4.5586,-4.5586,-4.5586,-4.5586,-4.5586,-4.5586,-4.5586,-4.5586,-4.5586,-4.5586,-4.5586,-4.5586,-4.5586,-4.5586,-4.5586,-4.5586,-4.5586,-4.6144,-4.6951,-4.7759,-4.8567,-4.9394,-5.0317,-5.0644,-5.0702,-5.0702,-5.0702,-5.0702,-5.0702,-5.0702,-5.0702,-5.0702,-5.0702,-5.0702,-5.0702,-5.0702,-5.0702,-5.0702,-4.9375,-4.776,-4.6129,0.0,0.0,-4.7952,-4.7586,-4.7759,-4.9086,-4.9952,-5.0105,-4.9209,-4.9264,-4.9315,-4.9244,-4.8639,-4.8291,-4.8288,-4.8288,-4.8306,-4.8306,-4.8306,-4.8306,-4.8306,-4.8306,-4.8306,-4.8306,-4.8306,-4.8306,-4.8306,-4.8306,-4.8306,-4.8306,-4.8306,-4.8306,-4.8306,-4.8306,-4.8306,-4.8306,-4.8306,-4.8306,-4.8306,-4.8306,-4.8306,-4.7882,-5.4433,-5.4922,-5.539,-5.5742,-5.623,-5.6601,-5.6601,-5.6133,-5.5781,-5.5781,-5.5039,-5.4297,-5.375,-5.3398,-5.2988,-5.2422,-5.2383,-5.2246,-5.1914,-5.1894,-5.1758,-5.1406,-5.1406,-5.0996,-5.0137,-4.9815,-4.8856,-4.7193,-4.6935,-4.6431,-4.568,-4.568,-4.5643,-4.5586,-4.5586,-4.5586,-4.5586,-4.5586,-4.5586,-4.5586,-4.5586,-4.5586,-4.5586,-4.5586,-4.5586,-4.5586,-4.5586,-4.5586,-4.5586,-4.5586,-4.5817,-4.6144,-4.6451,-4.7144,-4.8125,-4.949,-5.0279,-5.0702,-5.0702,-5.0702,-5.0702,-5.0702,-5.0702,-5.0702,-5.0702,-5.0702,-5.0702,-5.0702,-5.0702,-5.0702,-5.0702,-5.0144,-4.949,-4.8856,0.0,-4.7875,-4.8068,-4.8241,-4.8548,-4.9086,-4.9586,-4.9952,-5.0043,-4.9688,-4.9563,-4.986,-4.9183,-4.865,-4.8324,-4.8292,-4.8306,-4.8306,-4.8306,-4.8306,-4.8306,-4.8306,-4.8306,-4.8306,-4.8306,-4.8306,-4.8306,-4.8306,-4.8306,-4.8306,-4.8306,-4.8306,-4.8306,-4.8306,-4.8306,-4.8306,-4.8289,-4.8289,-4.8288,-4.8291,-4.8291,-4.8105,-5.3535,-5.4062,-5.457,-5.4844,-5.539,-5.5781,-5.5781,-5.5273,-5.4883,-5.4883,-5.4121,-5.3359,-5.2773,-5.2461,-5.2051,-5.1445,-5.1406,-5.1406,-5.1406,-5.1406,-5.1406,-5.1406,-5.1406,-5.1016,-5.0215,-4.952,-4.8565,-4.7323,-4.6673,-4.6123,-4.5699,-4.5699,-4.5643,-4.5586,-4.5586,-4.5586,-4.5586,-4.5586,-4.5586,-4.5586,-4.5586,-4.5586,-4.5586,-4.5586,-4.5586,-4.5586,-4.5586,-4.5586,-4.5586,-4.5586,-4.5586,-4.5682,-4.622,-4.7163,-4.8317,-4.9471,-5.0221,-5.0702,-5.0702,-5.0702,-5.0702,-5.0702,-5.0702,-5.0702,-5.0702,-5.0702,-5.0702,-5.0702,-5.0702,-5.0702,-5.0702,-5.0702,-5.0568,-5.0221,-4.9163,-4.8375,-4.8394,-4.8741,-4.9144,-4.949,-4.9702,-5.0029,-5.0625,-5.0162,-4.9939,-5.025,-4.9625,-4.8995,-4.8524,-4.8492,-4.8421,-4.8306,-4.8306,-4.8306,-4.8306,-4.8306,-4.8306,-4.8306,-4.8306,-4.8306,-4.8306,-4.8306,-4.8306,-4.8306,-4.8306,-4.8306,-4.8306,-4.8306,-4.8306,-4.8306,-4.8327,-4.7662,-4.6925,-4.7942,-4.7665,-4.6946,-5.2519,-5.2695,-5.2969,-5.3848,-5.4004,-5.4004,-5.4004,-5.3984,-5.3984,-5.3984,-5.3223,-5.2695,-5.2695,-5.1914,-5.1406,-5.1406,-5.1406,-5.1406,-5.1406,-5.1406,-5.1406,-5.1387,-5.1387,-5.1016,-5.0195,-5.0176,-4.9327,-4.758,-4.758,-4.7005,-4.5892,-4.5892,-4.5796,-4.5586,-4.5586,-4.5586,-4.5586,-4.5586,-4.5586,-4.5586,-4.5586,-4.5586,-4.5586,-4.5586,-4.5586,-4.5586,-4.5586,-4.5586,-4.5586,-4.5586,-4.5586,-4.5893,-4.7567,-4.9298,-5.0664,-5.0702,-5.0702,-5.0702,-5.0702,-5.0702,-5.0702,-5.0702,-5.0702,-5.0702,-5.0702,-5.0702,-5.0702,-5.0702,-5.0702,-5.0702,-5.0702,-5.0702,-5.0317,-4.9202,-4.901,-4.901,-4.901,-4.901,-4.9433,-5.0567,-5.0702,-5.0702,-5.0702,-5.0703,-5.0689,-5.0689,-4.9955,-4.9326,-4.893,-4.8897,-4.8709,-4.8344,-4.8306,-4.8306,-4.8306,-4.8306,-4.8306,-4.8306,-4.8306,-4.8306,-4.8306,-4.8306,-4.8306,-4.8306,-4.8306,-4.8306,-4.8306,-4.8306,-4.8306,-4.8306,-4.8306,-4.6355,-4.3917,-4.7108,-4.63,-4.401,-5.1738,-5.2285,-5.2773,-5.3047,-5.3594,-5.4004,-5.4004,-5.3476,-5.3086,-5.3086,-5.2324,-5.1797,-5.1797,-5.1562,-5.1406,-5.1406,-5.1406,-5.1406,-5.1406,-5.1406,-5.1152,-5.0586,-5.0566,-4.9863,-4.8418,-4.8281,-4.7688,-4.6543,-4.6445,-4.6236,-4.5894,-4.5889,-4.5834,-4.5738,-4.5738,-4.5699,-4.5586,-4.5586,-4.5586,-4.5586,-4.5586,-4.5586,-4.5586,-4.5586,-4.5586,-4.5586,-4.5586,-4.5586,-4.5586,-4.5586,-4.5586,-4.5893,-4.7567,-4.8471,-4.9125,-5.0337,-5.0702,-5.0702,-5.0702,-5.0702,-5.0702,-5.0702,-5.0702,-5.0702,-5.0702,-5.0702,-5.0702,-5.0702,-5.0702,-5.0856,-5.1433,-5.1087,-5.0587,-5.024,-5.0183,-5.0183,-5.0183,-5.0183,-5.0317,-5.0644,-5.0702,-5.0702,-5.0702,-5.07,-5.0717,-5.0717,-5.0217,-4.9746,-4.9356,-4.9326,-4.9265,-4.9158,-4.9139,-4.9139,-4.9139,-4.8568,-4.8306,-4.8306,-4.8306,-4.8306,-4.8306,-4.8306,-4.8306,-4.8306,-4.8306,-4.8306,-4.8306,-4.8306,-4.8306,-4.8306,-4.8309,-4.7699,-4.698,-4.796,-4.7684,-4.7001,-5.1406,-5.1816,-5.2187,-5.2187,-5.2617,-5.2969,-5.2969,-5.2519,-5.2187,-5.2187,-5.1738,-5.1406,-5.1406,-5.1406,-5.1406,-5.1406,-5.1113,-5.0781,-5.043,-5.041,-5.0195,-4.9707,-4.9355,-4.8848,-4.8125,-4.7695,-4.7226,-4.6699,-4.6261,-4.603,-4.5991,-4.5968,-4.5929,-4.5838,-4.5825,-4.5796,-4.5719,-4.5699,-4.568,-4.568,-4.5605,-4.5586,-4.5586,-4.5586,-4.5586,-4.5586,-4.5586,-4.5586,-4.5586,-4.5586,-4.6028,-4.6836,-4.8182,-4.8856,-4.9336,-5.0375,-5.0702,-5.0702,-5.0702,-5.0702,-5.0702,-5.0702,-5.0702,-5.0702,-5.0702,-5.0702,-5.0779,-5.1106,-5.1164,-5.1433,-5.226,-5.1741,-5.1183,-5.1182,-5.0914,-5.0702,-5.0702,-5.0702,-5.0702,-5.0702,-5.0702,-5.0702,-5.0702,-5.0702,-5.0702,-5.0702,-5.0483,-5.0159,-4.9746,-4.9746,-4.9645,-4.9522,-4.9504,-4.9504,-4.9504,-4.9029,-4.8692,-4.855,-4.8364,-4.8306,-4.8306,-4.8306,-4.8306,-4.8306,-4.8306,-4.8306,-4.8288,-4.7976,-4.7994,-4.8289,-4.831,-4.8292,-4.8291,-4.8292,-4.8292,-4.8126,-5.1387,-5.1348,-5.1328,-5.1387,-5.1406,-5.1406,-5.1406,-5.1406,-5.1406,-5.1406,-5.1348,-5.1289,-5.1289,-5.1211,-5.1172,-5.1172,-5.0508,-4.9785,-4.9062,-4.8945,-4.8926,-4.9004,-4.8105,-4.7969,-4.8769,-4.793,-4.748,-4.748,-4.6699,-4.623,-4.6113,-4.6113,-4.6056,-4.5924,-4.5918,-4.5915,-4.5885,-4.5828,-4.5811,-4.5796,-4.568,-4.5605,-4.5605,-4.5605,-4.5605,-4.5586,-4.5586,-4.5643,-4.572,-4.5797,-4.6836,-4.8259,-4.9125,-4.9933,-5.0587,-5.0664,-5.0702,-5.0702,-5.0702,-5.0702,-5.0702,-5.0702,-5.0702,-5.0721,-5.0779,-5.0741,-5.0933,-5.1741,-5.1856,-5.2068,-5.2933,-5.2395,-5.1818,-5.1895,-5.1221,-5.0702,-5.0702,-5.0702,-5.0702,-5.0702,-5.0702,-5.0702,-5.0702,-5.0702,-5.0702,-5.0702,-5.0702,-5.0544,-5.0183,-5.0159,-4.9993,-4.9617,-4.9608,-4.9608,-4.9608,-4.9561,-4.9356,-4.8963,-4.8568,-4.8402,-4.8402,-4.8402,-4.8402,-4.8402,-4.8402,-4.8402,-4.8328,-4.7611,-4.7611,-4.8071,-4.8087,-4.7977,-4.7866,-4.7866,-4.7866,-4.7442,-5.1289,-5.0898,-5.0664,-5.1289,-5.1406,-5.1406,-5.1406,-5.1406,-5.1406,-5.1406,-5.0859,-5.0469,-5.0469,-4.9844,-4.9433,-4.9433,-4.9277,-4.9394,-4.9883,-4.9277,-4.9199,-4.9883,-4.8437,-4.7695,-4.7871,-4.7031,-4.6582,-4.6582,-4.6387,-4.6289,-4.6269,-4.6269,-4.619,-4.6065,-4.6049,-4.6001,-4.5899,-4.588,-4.5893,-4.5873,-4.5853,-4.5796,-4.5757,-4.5757,-4.5699,-4.5586,-4.5586,-4.6028,-4.6721,-4.7355,-4.7798,-4.8259,-4.9125,-4.9529,-4.9817,-5.0491,-5.0702,-5.0702,-5.0702,-5.0702,-5.0702,-5.0702,-5.0702,-5.0856,-5.151,-5.1144,-5.0933,-5.1741,-5.1395,-5.1202,-5.2029,-5.151,-5.1164,-5.1798,-5.1221,-5.0702,-5.0702,-5.0702,-5.0702,-5.0702,-5.0702,-5.0702,-5.0702,-5.0702,-5.0702,-5.0702,-5.0702,-5.0663,-5.0565,-5.0565,-5.0544,-5.0442,-5.0442,-5.0442,-5.0442,-5.0135,-4.9773,-4.9356,-4.9265,-4.9234,-4.9234,-4.9234,-4.9234,-4.9234,-4.9234,-4.9234,-4.9234,-4.9046,-4.7934,-4.6345,-4.6394,-4.5653,-4.4547,-4.4547,-4.4539,-4.4448,-5.0664,-5.0156,-4.9707,-5.0137,-5.0547,-5.082,-5.082,-5.1152,-5.1406,-5.1406,-5.1035,-5.0625,-5.0234,-4.9785,-4.9199,-4.8359,-4.8281,-4.8301,-4.834,-4.791,-4.8047,-4.8926,-4.7695,-4.7168,-4.7598,-4.6758,-4.6308,-4.6308,-4.6308,-4.6308,-4.6308,-4.6308,-4.6269,-4.6191,-4.6191,-4.6165,-4.6084,-4.6026,-4.6001,-4.5988,-4.5937,-4.588,-4.5847,-4.5861,-4.5796,-4.5738,-4.5719,-4.5951,-4.6413,-4.7259,-4.7528,-4.7759,-4.899,-4.9394,-4.9567,-5.0433,-5.0702,-5.0702,-5.0702,-5.0702,-5.0702,-5.0702,-5.0702,-5.0798,-5.1221,-5.0991,-5.1048,-5.2279,-5.2183,-5.2145,-5.2991,-5.2452,-5.1895,-5.1914,-5.1221,-5.0702,-5.0702,-5.0702,-5.0702,-5.0702,-5.0702,-5.0702,-5.0702,-5.0702,-5.0702,-5.0702,-5.0702,-5.0702,-5.0702,-5.0702,-5.0702,-5.0702,-5.0702,-5.0702,-5.0702,-5.0483,-5.0272,-5.0068,-4.9692,-4.9504,-4.9504,-4.9504,-4.9504,-4.9504,-4.9504,-4.9504,-4.9447,-4.8655,-4.8013,-4.7401,-4.5884,-4.4944,-4.4511,-4.4511,-4.4519,-4.4508,-4.9805,-4.9277,-4.8711,-4.8867,-4.9492,-4.998,-4.998,-5.0547,-5.1035,-5.1172,-5.1074,-5.0723,-5.0058,-4.9707,-4.8945,-4.75,-4.7383,-4.7129,-4.6562,-4.6387,-4.6758,-4.7773,-4.6836,-4.6719,-4.7578,-4.6758,-4.6308,-4.6308,-4.6308,-4.6308,-4.6308,-4.6308,-4.6308,-4.6308,-4.6308,-4.6308,-4.6289,-4.6172,-4.6133,-4.6113,-4.6011,-4.5955,-4.5932,-4.5944,-4.5931,-4.5893,-4.5838,-4.5844,-4.5988,-4.699,-4.7336,-4.7605,-4.9144,-4.9625,-4.976,-5.0491,-5.0702,-5.0702,-5.0702,-5.0702,-5.0702,-5.0702,-5.0702,-5.0702,-5.0702,-5.0702,-5.1183,-5.2856,-5.2972,-5.3049,-5.3895,-5.3356,-5.2549,-5.1818,-5.1144,-5.0702,-5.0702,-5.0702,-5.0702,-5.0702,-5.0702,-5.0702,-5.0702,-5.0702,-5.0702,-5.0702,-5.0702,-5.0702,-5.0702,-5.0702,-5.0702,-5.0702,-5.0702,-5.0702,-5.0702,-5.0702,-5.0702,-5.0683,-4.9999,-4.9719,-4.9719,-4.9719,-4.9719,-4.9719,-4.9719,-4.9625,-4.9397,-4.7977,-4.8067,-4.8783,-4.6114,-4.5274,-4.5583,-4.5583,-4.5583,-4.5583,-4.8906,-4.8379,-4.8008,-4.8769,-4.9004,-4.9082,-4.9082,-4.918,-4.9512,-5.0254,-4.9707,-4.9199,-4.9082,-4.7734,-4.6738,-4.6504,-4.6484,-4.6758,-4.7383,-4.6719,-4.7031,-4.8652,-4.7168,-4.6719,-4.7578,-4.6758,-4.6308,-4.6308,-4.6308,-4.6308,-4.6308,-4.6308,-4.6308,-4.6308,-4.6308,-4.6308,-4.6308,-4.6289,-4.6269,-4.6269,-4.6248,-4.6189,-4.6067,-4.6076,-4.6008,-4.5911,-4.5891,-4.6293,-4.7045,-4.8566,-4.9067,-4.9221,-5.0221,-5.051,-5.0548,-5.0664,-5.0702,-5.0702,-5.0702,-5.0702,-5.0702,-5.0702,-5.0702,-5.0702,-5.0702,-5.0702,-5.1183,-5.2856,-5.2049,-5.1279,-5.2106,-5.1587,-5.0991,-5.0875,-5.076,-5.0702,-5.0702,-5.0702,-5.0702,-5.0702,-5.0702,-5.0702,-5.0702,-5.0702,-5.0702,-5.0702,-5.0702,-5.0702,-5.0702,-5.0702,-5.0702,-5.0702,-5.0702,-5.0702,-5.0702,-5.0702,-5.0702,-5.0702,-5.0604,-5.0544,-5.0544,-5.0544,-5.0544,-5.0544,-5.0544,-5.0122,-4.9411,-4.9181,-4.8356,-4.7223,-4.7012,-4.6378,-4.5591,-4.5591,-4.5591,-4.5591,-4.8008,-4.7461,-4.6992,-4.7383,-4.7851,-4.8164,-4.8164,-4.9004,-4.9766,-5.0156,-5.0254,-4.9941,-4.9004,-4.7344,-4.6308,-4.6308,-4.6308,-4.6465,-4.6855,-4.6504,-4.6641,-4.7402,-4.6719,-4.6484,-4.6875,-4.6504,-4.6308,-4.6308,-4.6308,-4.6308,-4.6308,-4.6308,-4.6308,-4.6308,-4.6308,-4.6308,-4.6308,-4.6308,-4.6308,-4.6308,-4.6308,-4.6269,-4.6211,-4.6212,-4.6175,-4.6175,-4.6589,-4.6902,-4.7293,-4.8411,-4.8779,-4.8933,-4.9721,-4.9971,-5.0067,-5.0548,-5.0702,-5.0702,-5.0702,-5.0702,-5.0702,-5.0702,-5.0702,-5.0702,-5.0702,-5.0702,-5.1029,-5.2241,-5.2279,-5.2068,-5.1933,-5.1606,-5.1221,-5.076,-5.0702,-5.0702,-5.0702,-5.0702,-5.0702,-5.0702,-5.0702,-5.0702,-5.0702,-5.0702,-5.0702,-5.0702,-5.0702,-5.0702,-5.0702,-5.0702,-5.0702,-5.0702,-5.0702,-5.0702,-5.0702,-5.0702,-5.0702,-5.0702,-5.0702,-5.0702,-5.0702,-5.0702,-5.0702,-5.0702,-5.0702,-5.049,-5.0048,-4.9067,-4.8816,-4.8834,-4.7046,-4.6028,-4.5586,-4.5586,-4.5586,-4.5586]}]]